[[{"header":{"parameterUnit":"m.s-1","parameterCategory":1,"la1":30.6,"la2":29.2853,"lo1":-89.7004,"lo2":-87.6739,"dy":0.0162,"dx":0.0183,"nx":112,"ny":82,"refTime":"2024-04-27T12:00:00:Z","depth":0,"parameterNumber":2,"parameterNumberName":"U-component_of_WINDS"},"data":[0.0,0.0,0.0,0.0,0.0,0.0,0.0,0.0,0.0,0.0,0.0,0.0,0.0,0.0,0.0,0.0,0.0,0.0,0.0,0.0,0.0,0.0,0.0,0.0,0.0,0.0,0.0,0.0,0.0,0.0,0.0,0.0,0.0,0.0,0.0,0.0,0.0,0.0,0.0,0.0,0.0,0.0,0.0,0.0,0.0,0.0,0.0,0.0,0.0,0.0,0.0,0.0,0.0,0.0,0.0,0.0,0.0,0.0,0.0,0.0,0.0,0.0,0.0,0.0,0.0,0.0,0.0,0.0,0.0,0.0,0.0,0.0,0.0,0.0,0.0,0.0,0.0,0.0,0.0,0.0,0.0,0.0,0.0,0.0,0.0,0.0,0.0,0.0,0.0,0.0,-6.4822,-7.1226,-7.6349,-7.8806,-7.7577,-7.729,-7.1782,-5.8897,0.0,0.0,0.0,0.0,0.0,0.0,0.0,0.0,0.0,0.0,0.0,0.0,0.0,0.0,0.0,0.0,0.0,0.0,0.0,0.0,0.0,0.0,0.0,0.0,0.0,0.0,0.0,0.0,0.0,0.0,0.0,0.0,0.0,0.0,0.0,0.0,0.0,0.0,0.0,0.0,0.0,0.0,0.0,0.0,0.0,0.0,0.0,0.0,0.0,0.0,0.0,0.0,0.0,0.0,0.0,0.0,0.0,0.0,0.0,0.0,0.0,0.0,0.0,0.0,0.0,0.0,0.0,0.0,0.0,0.0,0.0,0.0,0.0,0.0,0.0,0.0,0.0,0.0,0.0,0.0,0.0,0.0,0.0,0.0,0.0,0.0,0.0,0.0,0.0,0.0,0.0,0.0,0.0,0.0,0.0,0.0,0.0,0.0,0.0,0.0,0.0,0.0,0.0,0.0,-6.7671,-7.6898,-7.9093,-7.9224,-7.7603,-7.6558,-7.0847,-5.8766,0.0,0.0,0.0,0.0,0.0,0.0,0.0,0.0,0.0,0.0,0.0,0.0,0.0,0.0,0.0,0.0,0.0,0.0,0.0,0.0,0.0,0.0,0.0,0.0,0.0,0.0,0.0,0.0,0.0,0.0,0.0,0.0,0.0,0.0,0.0,0.0,0.0,0.0,0.0,0.0,0.0,0.0,0.0,0.0,0.0,0.0,0.0,0.0,0.0,0.0,0.0,0.0,0.0,0.0,0.0,0.0,0.0,0.0,0.0,0.0,0.0,0.0,0.0,0.0,0.0,0.0,0.0,0.0,0.0,0.0,0.0,0.0,0.0,0.0,0.0,0.0,0.0,0.0,0.0,0.0,0.0,0.0,0.0,0.0,0.0,0.0,0.0,0.0,0.0,0.0,0.0,0.0,0.0,0.0,0.0,0.0,0.0,0.0,0.0,0.0,0.0,0.0,0.0,-6.7253,-7.2663,-7.8126,-7.9224,-7.8989,-7.7577,-7.6375,-7.0796,-5.9175,-5.7763,0.0,0.0,0.0,0.0,0.0,0.0,0.0,0.0,0.0,0.0,0.0,0.0,0.0,0.0,0.0,0.0,0.0,0.0,0.0,0.0,0.0,0.0,0.0,0.0,0.0,0.0,0.0,0.0,0.0,0.0,0.0,0.0,0.0,0.0,0.0,0.0,0.0,0.0,0.0,0.0,0.0,0.0,0.0,0.0,0.0,0.0,0.0,0.0,0.0,0.0,0.0,0.0,0.0,0.0,0.0,0.0,0.0,0.0,0.0,0.0,0.0,0.0,0.0,0.0,0.0,0.0,0.0,0.0,0.0,0.0,0.0,0.0,0.0,0.0,0.0,0.0,0.0,0.0,0.0,0.0,0.0,0.0,0.0,0.0,0.0,0.0,0.0,0.0,0.0,0.0,0.0,0.0,0.0,0.0,0.0,0.0,0.0,0.0,0.0,0.0,0.0,0.0,-7.2575,-7.6401,-7.8675,-7.9198,-7.8806,-7.7394,-7.6192,-7.0808,-5.984,-5.7541,0.0,0.0,0.0,0.0,0.0,0.0,0.0,0.0,0.0,0.0,0.0,0.0,0.0,0.0,0.0,0.0,0.0,0.0,0.0,0.0,0.0,0.0,0.0,0.0,0.0,0.0,0.0,0.0,0.0,0.0,0.0,0.0,0.0,0.0,0.0,0.0,0.0,0.0,0.0,0.0,0.0,0.0,0.0,0.0,0.0,0.0,0.0,0.0,0.0,0.0,0.0,0.0,0.0,0.0,0.0,0.0,0.0,0.0,0.0,0.0,0.0,0.0,0.0,0.0,0.0,0.0,0.0,0.0,0.0,0.0,0.0,0.0,0.0,0.0,0.0,0.0,0.0,0.0,0.0,0.0,0.0,0.0,0.0,0.0,0.0,0.0,0.0,0.0,0.0,0.0,0.0,0.0,0.0,0.0,0.0,0.0,0.0,0.0,0.0,0.0,0.0,0.0,-7.1826,-7.6427,-8.0295,-8.0269,-7.9067,-7.6871,-7.5617,-7.0736,-6.0844,-5.7934,0.0,0.0,0.0,0.0,0.0,0.0,0.0,0.0,0.0,0.0,0.0,0.0,0.0,0.0,0.0,0.0,0.0,0.0,0.0,0.0,0.0,0.0,0.0,0.0,0.0,0.0,0.0,0.0,0.0,0.0,0.0,0.0,0.0,0.0,0.0,0.0,0.0,0.0,0.0,0.0,0.0,0.0,0.0,0.0,0.0,0.0,0.0,0.0,0.0,0.0,0.0,0.0,0.0,0.0,0.0,0.0,0.0,0.0,0.0,0.0,0.0,0.0,0.0,0.0,0.0,0.0,0.0,0.0,0.0,0.0,0.0,0.0,0.0,0.0,0.0,0.0,0.0,0.0,0.0,0.0,0.0,0.0,0.0,0.0,0.0,0.0,0.0,0.0,0.0,0.0,0.0,0.0,0.0,0.0,0.0,0.0,0.0,0.0,0.0,0.0,0.0,0.0,-7.165,-7.629,-7.9982,-7.9511,-7.8335,-7.6741,-7.5565,-7.0307,-5.9504,0.0,0.0,0.0,0.0,0.0,0.0,0.0,0.0,0.0,0.0,0.0,0.0,0.0,0.0,0.0,0.0,0.0,0.0,0.0,0.0,0.0,0.0,0.0,0.0,0.0,0.0,0.0,0.0,0.0,0.0,0.0,0.0,0.0,0.0,0.0,0.0,0.0,0.0,0.0,0.0,0.0,0.0,0.0,0.0,0.0,0.0,0.0,0.0,0.0,0.0,0.0,0.0,0.0,0.0,0.0,0.0,0.0,0.0,0.0,0.0,0.0,0.0,0.0,0.0,0.0,0.0,0.0,0.0,0.0,0.0,0.0,0.0,0.0,0.0,0.0,0.0,0.0,0.0,0.0,0.0,0.0,0.0,0.0,0.0,0.0,0.0,0.0,0.0,0.0,0.0,0.0,0.0,0.0,0.0,0.0,0.0,0.0,0.0,0.0,0.0,0.0,0.0,-6.6012,-7.1587,-7.646,-7.9482,-7.8727,-7.7598,-7.6427,-7.5277,-7.0101,-5.9398,0.0,0.0,0.0,0.0,0.0,0.0,0.0,0.0,0.0,0.0,0.0,0.0,0.0,0.0,0.0,0.0,0.0,0.0,0.0,0.0,0.0,0.0,0.0,0.0,0.0,0.0,0.0,0.0,0.0,0.0,0.0,0.0,0.0,0.0,0.0,0.0,0.0,0.0,0.0,0.0,0.0,0.0,0.0,0.0,0.0,0.0,0.0,0.0,0.0,0.0,0.0,0.0,0.0,0.0,0.0,0.0,0.0,0.0,0.0,0.0,0.0,0.0,0.0,0.0,0.0,0.0,0.0,0.0,0.0,0.0,0.0,0.0,0.0,0.0,0.0,0.0,0.0,0.0,0.0,0.0,0.0,0.0,0.0,0.0,0.0,0.0,0.0,0.0,0.0,0.0,0.0,0.0,0.0,0.0,0.0,0.0,0.0,0.0,0.0,0.0,0.0,0.0,-6.5695,-7.1857,-7.6741,-7.9074,-7.822,-7.7038,-7.576,-7.465,-7.0039,0.0,0.0,0.0,0.0,0.0,0.0,0.0,0.0,0.0,0.0,0.0,0.0,0.0,0.0,0.0,0.0,0.0,0.0,0.0,0.0,0.0,0.0,0.0,0.0,0.0,0.0,0.0,0.0,0.0,0.0,0.0,0.0,0.0,0.0,0.0,0.0,0.0,0.0,0.0,0.0,0.0,0.0,0.0,0.0,0.0,0.0,0.0,0.0,0.0,0.0,0.0,0.0,0.0,0.0,0.0,0.0,0.0,0.0,0.0,0.0,0.0,0.0,0.0,0.0,0.0,0.0,0.0,0.0,0.0,0.0,0.0,0.0,0.0,0.0,0.0,0.0,0.0,0.0,0.0,0.0,0.0,0.0,0.0,0.0,0.0,0.0,0.0,0.0,0.0,0.0,0.0,0.0,0.0,0.0,0.0,0.0,0.0,0.0,0.0,0.0,0.0,0.0,0.0,-6.5688,-7.0833,-7.5239,-7.7845,-7.7072,-7.5787,-7.4676,-7.3869,-6.9142,-5.9267,0.0,0.0,0.0,0.0,0.0,0.0,0.0,0.0,0.0,0.0,0.0,0.0,0.0,0.0,0.0,0.0,0.0,0.0,0.0,0.0,0.0,0.0,0.0,0.0,0.0,0.0,0.0,0.0,0.0,0.0,0.0,0.0,0.0,0.0,0.0,0.0,0.0,0.0,0.0,0.0,0.0,0.0,0.0,0.0,0.0,0.0,0.0,0.0,0.0,0.0,0.0,0.0,0.0,0.0,0.0,0.0,0.0,0.0,0.0,0.0,0.0,0.0,0.0,0.0,0.0,0.0,0.0,0.0,0.0,0.0,0.0,0.0,0.0,0.0,0.0,0.0,0.0,0.0,0.0,0.0,0.0,0.0,0.0,0.0,0.0,0.0,0.0,0.0,0.0,0.0,0.0,0.0,0.0,0.0,0.0,0.0,0.0,0.0,0.0,0.0,0.0,0.0,-6.5075,-6.9952,-7.416,-7.6674,-7.5754,-7.4557,-7.3907,-7.3069,-6.9013,-6.0795,0.0,0.0,0.0,0.0,0.0,0.0,0.0,0.0,0.0,0.0,0.0,0.0,0.0,0.0,0.0,0.0,0.0,0.0,0.0,0.0,0.0,0.0,0.0,0.0,0.0,0.0,0.0,0.0,0.0,0.0,0.0,0.0,0.0,0.0,0.0,0.0,0.0,0.0,0.0,0.0,0.0,0.0,0.0,0.0,0.0,0.0,0.0,0.0,0.0,0.0,0.0,0.0,0.0,0.0,0.0,0.0,0.0,0.0,0.0,0.0,0.0,0.0,0.0,0.0,0.0,0.0,0.0,0.0,0.0,0.0,0.0,0.0,0.0,0.0,0.0,0.0,0.0,0.0,0.0,0.0,0.0,0.0,0.0,0.0,0.0,0.0,0.0,0.0,0.0,0.0,0.0,0.0,0.0,0.0,0.0,0.0,0.0,0.0,0.0,0.0,0.0,0.0,-6.4254,-6.93,-7.3458,-7.5579,-7.4407,-7.3376,-7.3202,-7.2243,-6.9372,-6.4014,0.0,0.0,0.0,0.0,0.0,0.0,0.0,0.0,0.0,0.0,0.0,0.0,0.0,0.0,0.0,0.0,0.0,0.0,0.0,0.0,0.0,0.0,0.0,0.0,0.0,0.0,0.0,0.0,0.0,0.0,0.0,0.0,0.0,0.0,0.0,0.0,0.0,0.0,0.0,0.0,0.0,0.0,0.0,0.0,0.0,0.0,0.0,0.0,0.0,0.0,0.0,0.0,0.0,0.0,0.0,0.0,0.0,0.0,0.0,0.0,-6.1933,-5.7769,0.0,0.0,0.0,0.0,0.0,0.0,0.0,0.0,0.0,0.0,0.0,0.0,0.0,0.0,0.0,0.0,0.0,0.0,0.0,0.0,0.0,0.0,0.0,0.0,0.0,0.0,0.0,0.0,0.0,0.0,0.0,0.0,0.0,0.0,0.0,0.0,0.0,0.0,0.0,0.0,-6.4781,-6.92,-7.2565,-7.4012,-7.3313,-7.2429,-7.1621,-7.1269,-6.8966,-6.3989,-6.1216,0.0,0.0,0.0,0.0,0.0,0.0,0.0,0.0,0.0,0.0,0.0,0.0,0.0,0.0,0.0,0.0,0.0,0.0,0.0,0.0,0.0,0.0,0.0,0.0,0.0,0.0,0.0,0.0,0.0,0.0,0.0,0.0,0.0,0.0,0.0,0.0,0.0,0.0,0.0,0.0,0.0,0.0,0.0,0.0,0.0,0.0,0.0,0.0,0.0,0.0,0.0,0.0,0.0,0.0,0.0,0.0,0.0,0.0,0.0,-6.5485,-6.2759,0.0,0.0,0.0,0.0,0.0,0.0,0.0,0.0,0.0,0.0,0.0,0.0,0.0,0.0,0.0,0.0,0.0,0.0,0.0,0.0,0.0,0.0,0.0,0.0,0.0,0.0,0.0,0.0,0.0,0.0,0.0,0.0,0.0,0.0,0.0,0.0,0.0,0.0,0.0,0.0,-6.458,-6.8773,-7.2037,-7.3443,-7.2778,-7.1932,-7.1099,-7.079,-6.9433,-6.6639,-6.3481,0.0,0.0,0.0,0.0,0.0,0.0,0.0,0.0,0.0,0.0,0.0,0.0,0.0,0.0,0.0,0.0,0.0,0.0,0.0,0.0,0.0,0.0,0.0,0.0,0.0,0.0,0.0,0.0,0.0,0.0,0.0,0.0,0.0,0.0,0.0,0.0,0.0,0.0,0.0,0.0,0.0,0.0,0.0,0.0,0.0,0.0,0.0,0.0,0.0,0.0,0.0,0.0,0.0,-6.5961,-6.7166,-6.8949,-6.8472,-6.802,-6.7668,-7.0311,-6.9522,-6.6357,-6.6813,0.0,0.0,0.0,0.0,0.0,0.0,0.0,0.0,0.0,0.0,0.0,0.0,0.0,0.0,0.0,0.0,0.0,0.0,0.0,0.0,0.0,0.0,-6.1969,-6.3827,-6.3626,-6.3023,-6.3048,0.0,0.0,0.0,0.0,0.0,0.0,0.0,0.0,0.0,0.0,0.0,-6.3927,-6.8145,-7.146,-7.2866,-7.2163,-7.1384,-7.0832,-7.038,-6.9928,-6.9476,-6.5719,-6.355,0.0,0.0,0.0,0.0,0.0,0.0,0.0,0.0,0.0,0.0,0.0,0.0,0.0,0.0,0.0,0.0,0.0,0.0,0.0,0.0,0.0,0.0,0.0,0.0,0.0,0.0,0.0,0.0,0.0,0.0,0.0,0.0,-5.3759,-5.8146,0.0,0.0,0.0,0.0,0.0,0.0,0.0,0.0,0.0,0.0,0.0,0.0,0.0,-6.4379,-6.5986,-6.8572,-6.9752,-6.9526,-7.1937,-7.3268,-7.3544,-7.3468,-7.3393,-7.3343,-7.3715,0.0,-6.7555,-6.7631,0.0,0.0,0.0,0.0,0.0,0.0,0.0,0.0,0.0,0.0,0.0,0.0,0.0,0.0,0.0,0.0,0.0,0.0,0.0,0.0,0.0,0.0,-6.9627,-6.9928,-6.8472,-6.7668,-7.0003,-6.34,-5.775,-6.0161,-5.8679,-5.7072,0.0,0.0,0.0,0.0,0.0,0.0,-6.2948,-6.7317,-7.0455,-7.0681,-7.0556,-7.0255,-6.9702,-6.9602,-6.9526,-6.9451,-6.7213,-6.5673,-6.5043,-6.3896,0.0,0.0,0.0,0.0,0.0,0.0,0.0,0.0,0.0,0.0,0.0,0.0,0.0,0.0,0.0,0.0,0.0,0.0,0.0,0.0,0.0,0.0,0.0,0.0,0.0,0.0,0.0,0.0,0.0,-5.585,-5.9313,-6.134,-6.1489,-5.9968,0.0,0.0,0.0,0.0,0.0,0.0,0.0,0.0,0.0,-6.6237,-6.7241,-6.8371,-6.9727,-7.1887,-7.3293,-7.3996,-7.5226,-7.6306,-7.721,-7.721,-7.721,-7.721,-7.721,-7.5753,-7.3217,-7.1359,-6.92,-6.6764,0.0,0.0,0.0,0.0,-6.0512,-6.1466,-6.355,-6.4555,-6.5082,-6.6262,0.0,0.0,0.0,0.0,0.0,0.0,0.0,-6.237,-6.3902,-6.699,-7.0079,-7.1636,-7.1535,-7.1309,-7.2188,-6.7241,-6.2898,-6.3776,-6.2245,-6.0261,-5.8604,-5.9106,0.0,0.0,0.0,-6.4178,-6.5057,-6.8145,-7.038,-7.0681,-7.0732,-7.0506,-6.9953,-6.9903,-6.9777,-6.9451,-6.8585,-6.7949,-6.758,-6.7011,-6.4981,0.0,0.0,0.0,0.0,0.0,0.0,0.0,0.0,0.0,0.0,0.0,0.0,0.0,0.0,0.0,0.0,0.0,0.0,0.0,0.0,0.0,0.0,0.0,0.0,0.0,0.0,0.0,0.0,-6.063,-6.3412,-6.4273,-6.5133,-6.3729,0.0,0.0,0.0,0.0,0.0,0.0,-6.5308,-6.6262,-6.7794,-7.0054,-7.1309,-7.2565,-7.382,-7.5075,-7.6306,-7.7511,-7.7511,-7.8164,-7.9394,-7.9394,-7.9394,-7.9394,-7.9394,-7.8917,-7.7913,-7.5,-7.2188,-6.9551,-6.7995,-6.5886,-6.3827,-6.4655,-6.5233,-6.5961,-6.8572,-6.9476,-6.9677,-7.0757,-6.8773,-6.5835,-6.5258,0.0,0.0,0.0,0.0,-6.3776,-6.5986,-6.8321,-7.0631,-7.2665,-7.3494,-7.3694,-7.3242,-7.0229,-6.7518,-6.7241,-6.5509,-6.335,-6.0989,-6.1617,0.0,-6.0362,-6.3199,-6.576,-6.6463,-6.8597,-7.0204,-7.0631,-7.0656,-7.0506,-7.0079,-7.0054,-6.9878,-6.9476,-6.9361,-6.9361,-6.9361,-6.9361,-6.7911,-6.4685,0.0,0.0,0.0,0.0,0.0,0.0,0.0,0.0,0.0,0.0,0.0,0.0,0.0,0.0,0.0,0.0,0.0,0.0,0.0,0.0,0.0,0.0,0.0,0.0,0.0,0.0,0.0,0.0,0.0,-6.6474,-6.9551,0.0,0.0,0.0,0.0,-6.3525,-6.5459,-6.7693,-6.9803,-7.048,-7.2514,-7.6306,-7.6507,-7.7335,-7.8992,-7.9093,-7.9168,-7.9269,-7.9269,-7.9294,-7.9394,-7.9394,-7.9394,-7.9394,-7.9394,-7.9344,-7.9168,-7.7385,-7.5954,-7.4598,-7.1887,-7.0732,-7.0405,-6.8924,-6.9376,-7.0807,-7.151,-7.2765,-7.4021,-7.3569,-7.0807,-6.7267,-6.5157,-6.3324,0.0,0.0,-6.4655,-6.689,-6.7543,-7.0907,-7.4146,-7.4297,-7.4347,-7.4372,-7.4347,-7.1686,-6.9476,-6.9953,-6.7417,-6.5333,-6.5685,0.0,-6.4957,-6.2295,-6.4279,-6.5911,-6.5434,-6.7769,-6.9501,-6.9526,-6.9526,-6.9501,-6.9501,-6.9501,-6.9476,-6.9361,-6.9361,-6.9361,-6.9361,-6.9361,-6.9285,-6.9045,-6.5057,0.0,0.0,0.0,0.0,0.0,0.0,0.0,0.0,0.0,0.0,0.0,0.0,0.0,0.0,0.0,0.0,0.0,0.0,0.0,0.0,0.0,0.0,0.0,0.0,0.0,0.0,0.0,0.0,-6.8246,-7.0857,0.0,-6.8748,-6.9024,-6.8974,-6.7995,-7.0631,-7.2941,-7.4448,-7.505,-7.6306,-7.8415,-7.849,-7.8792,-7.9369,-7.9394,-7.9394,-7.9394,-7.9394,-7.9394,-7.9394,-7.9394,-7.9394,-7.9394,-7.9394,-7.9394,-7.9344,-7.8741,-7.7611,-7.613,-7.4423,-7.3544,-7.3242,-7.3368,-7.3996,-7.495,-7.5854,-7.6105,-7.5728,-7.4121,-7.2414,-7.0757,-6.9602,-6.8848,-6.8422,-6.8622,-6.9627,-7.0807,-7.1384,-7.269,-7.3971,-7.4322,-7.4423,-7.4322,-7.3971,-7.2389,-7.0983,-7.0832,-6.8698,-6.6865,-6.6689,-6.7543,-6.7568,-6.5509,-6.694,-6.8196,-6.7995,-6.8823,-6.9361,-6.9361,-6.9361,-6.9361,-6.9361,-6.9361,-6.9361,-6.9361,-6.9361,-6.9361,-6.9361,-6.9361,-6.9361,-6.9361,-6.7911,-6.4017,0.0,0.0,0.0,0.0,0.0,0.0,0.0,0.0,0.0,0.0,0.0,0.0,0.0,0.0,0.0,0.0,0.0,0.0,0.0,0.0,0.0,0.0,0.0,0.0,0.0,-6.3927,-6.8196,-7.0054,-7.2565,-7.3468,-7.1811,-7.1987,-7.2288,-7.2489,-7.4875,-7.6758,-7.7662,-7.8063,-7.8616,-7.9369,-7.9394,-7.9394,-7.9394,-7.9394,-7.9394,-7.9394,-7.9394,-7.9394,-7.9394,-7.9394,-7.9394,-7.9394,-7.9394,-7.9394,-7.9394,-7.9394,-7.8741,-7.7662,-7.6908,-7.6406,-7.618,-7.6908,-7.7411,-7.7812,-7.834,-7.7812,-7.6607,-7.495,-7.3644,-7.2665,-7.2288,-7.2062,-7.1937,-7.2138,-7.2715,-7.3443,-7.3996,-7.4297,-7.4423,-7.4423,-7.4272,-7.3946,-7.3192,-7.1987,-7.1033,-7.0832,-6.9476,-6.817,-6.7618,-6.8296,-6.8522,-6.7417,-6.7869,-6.8396,-6.8597,-6.8773,-6.8899,-6.8899,-6.9225,-6.9361,-6.9361,-6.8924,-6.8848,-6.9401,-6.8924,-6.8848,-6.9426,-6.8723,-6.8321,-6.8321,-6.7417,-6.3865,-5.7693,0.0,0.0,0.0,0.0,0.0,0.0,0.0,0.0,0.0,0.0,0.0,0.0,0.0,0.0,0.0,0.0,0.0,0.0,0.0,0.0,0.0,0.0,0.0,-6.1266,-6.6564,-7.0757,-7.1937,-7.495,-7.6331,-7.4724,-7.5527,-7.6381,-7.6908,-7.7938,-7.8792,-7.9369,-7.9419,-7.9444,-7.9444,-7.9444,-7.9444,-7.9444,-7.9394,-7.9394,-7.9394,-7.9394,-7.9394,-7.9394,-7.9394,-7.9394,-7.9394,-7.9394,-7.9394,-7.9394,-7.9394,-7.9394,-7.9394,-7.9394,-7.9394,-7.9394,-7.9394,-7.9394,-7.9294,-7.8716,-7.7812,-7.6833,-7.6256,-7.4598,-7.2791,-7.2791,-7.2414,-7.2087,-7.264,-7.3594,-7.4598,-7.5126,-7.5628,-7.5728,-7.4649,-7.3946,-7.3242,-7.2113,-7.0606,-6.9627,-7.0154,-6.9828,-6.9275,-6.8748,-6.8196,-6.7844,-6.7844,-6.6915,0.0,-6.699,-6.7518,-6.7844,-6.7844,-6.8798,-6.9336,-6.9361,-6.797,-6.7719,-6.9351,-6.7945,-6.7769,-6.9376,-6.7367,-6.6212,-6.6212,-6.3418,-6.2134,-6.2432,0.0,0.0,0.0,0.0,0.0,0.0,0.0,0.0,0.0,0.0,0.0,0.0,0.0,0.0,0.0,0.0,0.0,0.0,0.0,0.0,0.0,-6.2596,-6.576,-6.6488,-6.9727,-7.2916,-7.5226,-7.7411,-7.8515,-7.8063,-7.8289,-7.854,-7.8691,-7.8992,-7.9218,-7.9369,-8.0147,-8.0574,-8.0574,-8.0574,-8.0574,-8.0574,-7.9796,-7.9394,-7.9394,-7.9394,-7.9394,-7.9394,-7.9394,-7.9394,-7.9394,-7.9394,-7.9394,-7.9394,-7.9394,-7.9394,-7.9394,-7.9394,-7.9394,-7.9394,-7.9394,-7.9394,-7.9243,-7.8264,-7.7988,-7.7913,-7.6959,-7.5703,-7.4473,-7.4071,-7.3845,-7.3745,-7.392,-7.4749,-7.5628,-7.5778,-7.5352,-7.4699,-7.3996,-7.3067,-7.2188,-7.146,-7.0631,-7.0079,-7.0229,-6.9828,-6.9311,-6.925,-6.91,-6.8999,-6.8999,-6.8723,-6.8597,-6.8748,-6.8899,-6.8999,-6.8999,-6.8899,-6.8999,-6.9401,-6.8673,-6.8522,-6.9401,-6.9024,-6.8974,-6.9336,-6.8848,-6.8522,-6.8522,-6.4444,-6.2996,0.0,0.0,0.0,0.0,0.0,0.0,0.0,0.0,0.0,0.0,0.0,0.0,0.0,0.0,0.0,0.0,0.0,0.0,0.0,0.0,0.0,0.0,-6.684,-7.0455,-7.2188,-7.3594,-7.5327,-7.7662,-7.8792,-7.9394,-7.9394,-7.9394,-7.9394,-7.9394,-7.9394,-7.9394,-7.9394,-7.9997,-8.0549,-8.1026,-8.0574,-8.0574,-8.1026,-7.9947,-7.9394,-7.9394,-7.9394,-7.9394,-7.9394,-7.9394,-7.9394,-7.9394,-7.9394,-7.9394,-7.9394,-7.9394,-7.9394,-7.9394,0.0,0.0,0.0,0.0,-7.9394,-7.9218,-7.8088,-7.7913,-7.7963,-7.6632,-7.5603,-7.4799,-7.4247,-7.3895,-7.377,-7.3996,-7.4523,-7.5075,-7.5301,-7.4724,-7.387,-7.3067,-7.2213,-7.1359,-7.0556,-6.9978,-6.9652,-6.9878,-6.9476,0.0,-6.9401,-6.9049,-6.8748,-6.8748,-6.8346,-6.8145,-6.8371,-6.8622,-6.8748,-6.8748,-6.8874,-6.91,-6.9336,-6.8522,0.0,0.0,0.0,-6.8296,-6.807,-6.8045,0.0,0.0,0.0,-6.3211,-6.5283,-6.2519,0.0,0.0,-6.2306,-6.1642,0.0,0.0,0.0,0.0,0.0,0.0,0.0,0.0,0.0,0.0,0.0,0.0,0.0,0.0,0.0,0.0,-7.1083,-7.4297,-7.7461,-7.7461,-7.7712,-7.9218,-7.9394,-7.9394,-7.9394,-7.9394,-7.9394,-7.9394,-7.9394,-7.9394,-7.9394,-7.9495,0.0,0.0,0.0,-8.0047,-8.1026,-7.9947,-7.9394,-7.9394,-7.9394,-7.9394,-7.9394,-7.9394,-7.9394,-7.9394,-7.9394,-7.9394,-7.9394,-7.9394,-7.9394,-7.9394,-7.9394,-7.9394,-7.9369,-7.9319,-7.9294,-7.9143,-7.7988,0.0,0.0,-7.5753,-7.4875,-7.4322,-7.377,-7.3268,-7.3016,-7.3468,-7.3694,-7.387,-7.4222,-7.392,-7.3217,-7.2087,-7.1384,-7.0706,-6.9677,-6.9049,-6.8848,-6.9351,-6.9049,-6.8874,-6.9351,-6.8622,-6.7995,-6.7995,-6.7141,-6.6689,-6.7191,-6.7693,-6.7995,-6.7995,-6.8798,0.0,-6.9336,-6.8045,-6.7819,-6.9351,-6.807,-6.7015,-6.6513,-6.6488,-6.5333,-6.2898,-6.2847,-6.3802,-6.576,-6.576,-6.7041,-6.9235,-6.4404,-6.3425,0.0,0.0,0.0,0.0,0.0,0.0,0.0,0.0,0.0,0.0,0.0,0.0,0.0,0.0,0.0,-7.1184,-7.4197,-7.6783,-7.8792,-7.8967,-7.9018,-7.9344,-7.9394,-7.9394,-7.9394,-7.9394,-7.9394,-7.9394,-7.9394,-7.9394,-7.9394,-8.0223,-8.0825,-8.1026,-8.0825,-8.0825,-8.1026,-7.9947,-7.9394,-7.9394,-7.9394,0.0,-7.9394,-7.9394,-7.9394,-7.9394,-7.9394,-7.9394,-7.9394,-7.9394,-7.9394,-7.9394,-7.9394,-7.9394,-7.9319,-7.8867,-7.8691,-7.854,-7.7411,-7.7034,-7.6833,-7.5628,-7.4875,-7.4322,-7.377,-7.382,0.0,-7.3694,-7.4222,-7.4749,-7.3946,-7.3318,-7.2615,-7.151,-7.0832,-7.0229,-6.9577,-6.9351,-6.9325,-6.9426,-6.9351,-6.9325,-6.9336,-6.9275,-6.9125,-6.9125,-6.8949,-6.8848,-6.8949,-6.9049,-6.9125,-6.9125,-6.8924,-6.8949,-6.9401,-6.8748,-6.8622,-6.9311,-6.915,-6.8924,-6.8798,-6.8798,-6.8547,-6.802,-6.802,-6.8221,-6.8648,-6.8648,-6.8924,-6.9336,-6.8346,-6.8145,0.0,0.0,0.0,0.0,0.0,0.0,0.0,0.0,0.0,0.0,0.0,-6.3601,-6.6112,0.0,-7.1836,-7.4046,-7.6733,-7.8741,-7.9319,-7.9394,-7.9394,-7.9394,-7.9394,-7.9394,-7.9394,-7.9394,-7.9394,-7.9394,-7.9394,-7.9394,-7.9394,-7.9921,-8.0474,-8.1026,-8.0499,-8.0474,-8.1026,-7.9947,-7.9394,-7.9394,-7.9394,-7.9394,-7.9394,-7.9394,-7.9394,-7.9394,-7.9394,-7.9394,-7.9394,-7.9394,-7.9394,-7.9394,-7.9394,-7.9394,-7.9344,-7.9068,-7.8766,-7.8415,-7.7586,-7.6933,-7.6281,-7.5176,-7.4448,-7.3946,-7.3669,-7.3393,-7.3217,-7.3519,-7.3594,-7.3519,-7.3242,-7.2539,-7.1761,-7.1209,-7.0455,-6.9777,-6.9501,-6.9361,-6.9361,-6.9361,-6.9361,-6.9361,-6.9361,-6.9361,-6.9361,-6.9361,-6.9361,-6.9361,-6.9361,-6.9361,-6.9361,-6.9361,-6.92,-6.915,-6.9426,-6.92,-6.915,-6.9336,-6.9361,-6.9361,-6.9361,-6.9361,-6.9361,-6.9361,-6.9361,-6.9361,-6.9361,-6.9361,-6.9361,-6.9361,-6.9361,-6.9361,0.0,0.0,0.0,0.0,0.0,0.0,0.0,-6.3048,-6.3802,-6.5157,-6.5961,-6.7317,-7.033,-7.3092,-7.5301,-7.6507,-7.8591,-7.9896,-7.9444,-7.9394,-7.9394,-7.9394,-7.9394,-7.9394,-7.9394,-7.9394,-7.9394,-7.9394,-7.9394,-7.9394,-7.9394,-7.9394,-7.9796,-8.0675,-7.9846,-7.9821,-8.07,-7.9821,-7.9394,-7.9394,-7.9394,-7.9394,-7.9394,-7.9394,-7.9394,-7.9394,-7.9394,-7.9394,-7.9394,-7.9394,-7.9394,-7.9394,-7.9394,-7.9394,-7.9369,-7.9269,-7.8867,-7.8289,-7.7737,-7.6883,-7.5879,-7.49,-7.4197,-7.3745,-7.3619,-7.2966,-7.2414,-7.3192,-7.2765,-7.2113,-7.2339,-7.1661,-7.0907,-7.0782,-7.0104,-6.9361,-6.9361,-6.9361,-6.9361,-6.9361,-6.9361,-6.9361,-6.9361,-6.9361,-6.9361,-6.9361,-6.9361,-6.9361,-6.9361,-6.9361,-6.9361,-6.9361,-6.9361,-6.9361,-6.9361,-6.9361,-6.9361,-6.9361,-6.9361,-6.9361,-6.9361,-6.9361,-6.9361,-6.9361,-6.9361,-6.9361,-6.9361,-6.9361,-6.9361,-6.9361,-6.9361,-6.9361,-5.9659,-5.7022,-5.6821,-5.9709,-6.1918,-6.4178,0.0,-6.9677,-7.1485,-7.1686,-7.2565,-7.387,-7.5703,-7.6356,-7.7134,-7.8741,-7.9269,-7.9469,-7.9394,-7.9394,-7.9394,-7.9394,-7.9394,-7.9394,-7.9394,-7.9394,-7.9394,-7.9394,-7.9394,-7.9394,-7.9394,-7.9394,-7.9444,-7.957,-7.9444,-7.9444,-7.957,-7.9444,-7.9394,-7.9394,-7.9394,-7.9394,-7.9394,-7.9394,-7.9394,-7.9394,-7.9394,-7.9394,-7.9394,-7.9394,-7.9394,-7.9394,-7.9394,-7.9394,-7.9319,-7.8817,-7.8264,-7.7712,-7.7159,-7.6557,-7.5954,-7.5352,-7.4774,-7.4222,-7.3745,-7.3519,-7.3318,-7.2941,-7.274,-7.2414,-7.151,-7.0807,-7.0229,-6.9752,-6.9526,-6.9361,-6.9361,-6.9361,-6.9361,-6.9361,-6.9361,-6.9361,-6.9361,-6.9361,-6.9361,-6.9361,-6.9361,-6.9361,-6.9361,-6.9361,-6.9361,-6.9361,-6.9361,-6.9361,-6.9361,-6.9361,-6.9361,-6.9361,-6.9361,-6.9361,-6.9361,-6.9361,-6.9361,-6.9361,-6.9361,-6.9361,-6.9361,-6.9361,-6.9361,-6.9361,-6.9361,-6.9361,-6.114,-6.0939,-6.2119,-6.4153,-6.6589,-6.91,-7.146,-7.2891,-7.3971,-7.495,-7.5527,-7.6356,-7.8038,-7.8591,-7.8942,-7.9319,-7.9645,-7.9746,-7.9419,-7.9394,-7.9394,-7.9394,-7.9394,-7.9645,-8.0273,-7.9771,-7.9645,-8.0298,-7.9746,-7.9394,-7.9394,-7.9394,-7.9394,-7.9394,-7.9394,-7.9394,-7.9394,-7.9394,-7.9394,-7.9394,-7.9394,-7.9394,-7.9394,-7.9394,-7.9394,-7.9394,-7.9394,-7.9394,-7.9394,-7.9394,-7.9394,-7.9394,-7.9394,-7.9193,-7.8867,-7.8616,-7.8164,-7.7611,-7.7059,-7.6105,-7.5126,-7.5201,-7.4423,-7.3519,-7.3946,-7.3619,-7.3042,-7.2791,-7.2489,-7.2062,-7.1284,-7.0681,-7.0204,-6.9978,-6.9677,-6.9361,-6.9361,-6.9361,-6.9361,-6.9361,-6.9361,-6.9361,-6.9361,-6.9361,-6.9361,-6.9361,-6.9361,-6.9361,-6.9361,-6.9361,-6.9361,-6.9361,-6.9361,-6.9361,-6.9361,-6.9361,-6.9361,-6.9361,-6.9361,-6.9361,-6.9361,-6.9361,-6.9361,-6.9361,-6.9361,-6.9361,-6.9361,-6.9361,-6.9361,-6.9361,-6.9361,-6.9361,-6.2169,-6.3676,-6.571,-6.7744,-7.0204,-7.264,-7.4649,-7.5201,-7.5753,-7.726,-7.7561,-7.7938,-7.9168,-7.9721,-7.9846,-7.9444,-7.9721,-7.9846,-7.9444,-7.9394,-7.9168,-7.854,-7.8465,-7.8892,-8.0022,-7.967,-7.9721,-8.0524,-7.9846,-7.9394,-7.9394,-7.9394,-7.9394,-7.9394,-7.9394,-7.9394,-7.9394,-7.9394,-7.9394,-7.9394,-7.9394,-7.9394,-7.9394,-7.9394,-7.9394,-7.9394,-7.9394,-7.9394,-7.9394,-7.9394,-7.9394,-7.9369,-7.9218,-7.8892,-7.849,-7.8189,-7.7812,-7.7385,-7.6833,-7.5854,-7.4925,-7.5151,-7.4322,-7.3318,-7.3996,-7.3393,-7.2489,-7.2489,-7.1987,-7.1359,-7.0958,-7.0455,-7.0029,-7.0029,-6.9727,-6.9361,-6.9361,-6.9361,-6.9361,-6.9361,-6.9361,-6.9361,-6.9361,-6.9361,-6.9361,-6.9361,-6.9361,-6.9361,-6.9361,-6.9361,-6.9361,-6.9361,-6.9361,-6.9361,-6.9361,-6.9361,-6.9361,-6.9361,-6.9361,-6.9361,-6.9361,-6.9361,-6.9361,-6.9361,-6.9361,-6.9361,-6.9361,-6.9361,-6.9361,-6.9361,-6.9361,-6.9361,-6.222,-6.2873,-6.3977,-6.8321,-7.1058,-7.3418,-7.618,-7.721,-7.7938,-7.9068,-7.9319,-7.9319,-7.9369,-7.9394,-7.9394,-7.9394,-7.9394,-7.9394,-7.9394,-7.9394,-7.8591,-7.6406,-7.6155,-7.6582,-7.7687,-7.8766,-7.9394,-7.9444,-7.9394,-7.9394,-7.9394,-7.9394,-7.9394,-7.9394,-7.9394,-7.9394,-7.9394,-7.9394,-7.9394,-7.9394,-7.9394,-7.9394,-7.9394,-7.9394,-7.9394,-7.9394,-7.9394,-7.9394,-7.9394,-7.9394,-7.9394,-7.9344,-7.8766,-7.854,-7.839,-7.731,-7.6908,-7.6833,-7.6281,-7.6055,-7.5929,-7.5402,-7.4849,-7.4272,-7.377,-7.2816,-7.1937,-7.1937,-7.1158,-7.0305,-7.0305,-6.9878,-6.9476,-6.9476,-6.9451,-6.9361,-6.9361,-6.9361,-6.9361,-6.9361,-6.9361,-6.9361,-6.9361,-6.9361,-6.9361,-6.9361,-6.9361,-6.9361,-6.9361,-6.9361,-6.9361,-6.9361,-6.9361,-6.9361,-6.9361,-6.9361,-6.9361,-6.9361,-6.9361,-6.9361,-6.9361,-6.9361,-6.9361,-6.9361,-6.9361,-6.9361,-6.9361,-6.9361,-6.9361,-6.9361,-6.9361,-6.9361,-6.0914,-6.4103,-6.8371,-7.0983,-7.3569,-7.603,-7.8063,-7.8691,-7.8942,-7.9319,-7.849,-7.7712,-7.7712,-7.7436,-7.7285,-7.7662,-7.8967,-7.9796,-7.9444,-8.065,-8.0474,-7.7511,-7.8139,-7.8515,-7.7762,-7.7385,-7.8088,-8.0323,-7.9796,-7.9394,-7.9394,-7.9394,-7.9394,-7.9394,-7.9394,-7.9394,-7.9394,-7.9394,-7.9394,-7.9394,-7.9394,-7.9394,-7.9394,-7.9394,-7.9394,-7.9394,-7.9394,-7.9394,-7.9394,-7.9394,-7.9168,-7.8792,-7.8591,-7.8088,-7.7385,-7.7009,-7.6632,-7.6306,-7.613,-7.5578,-7.5,-7.5176,-7.4347,-7.3343,-7.3519,-7.2791,-7.1836,-7.146,-7.0832,-7.0179,-6.9828,-6.9577,-6.9361,-6.9361,-6.9361,-6.9361,-6.9361,-6.9361,-6.9361,-6.9361,-6.9361,-6.9361,-6.9361,-6.9361,-6.9361,-6.9361,-6.9361,-6.9361,-6.9361,-6.9361,-6.9361,-6.9361,-6.9361,-6.9361,-6.9361,-6.9361,-6.9361,-6.9361,-6.9361,-6.9361,-6.9361,-6.9361,-6.9361,-6.9361,-6.9361,-6.9361,-6.9361,-6.9361,-6.9361,-6.9361,-6.9361,-6.9361,-6.2772,-6.6865,-7.1636,-7.3694,-7.5854,-7.7812,-7.9093,-7.9394,-7.9218,-7.8616,-7.7637,-7.6582,-7.5578,-7.4774,-7.4724,-7.608,-7.7159,-7.8214,-7.9243,-8.0599,-8.0398,-7.7461,-7.8063,-7.8289,-7.721,-7.6482,-7.736,-8.0499,-8.0273,-7.9896,-7.9695,-7.9871,-7.9796,-7.9394,-7.9394,-7.9394,-7.9394,-7.9394,-7.9394,-7.9394,-7.9394,-7.9394,-7.9394,-7.9394,-7.9269,-7.9093,-7.9294,-7.9269,-7.9093,-7.9294,-7.9043,-7.8515,-7.8314,-7.7687,-7.6858,-7.6657,-7.6356,-7.6055,-7.6055,-7.5578,-7.5,-7.495,-7.4222,-7.3293,-7.3067,-7.2489,-7.1786,-7.1234,-7.0681,-7.0179,-6.9828,-6.9602,-6.9361,-6.9361,-6.9361,-6.9361,-6.9361,-6.9361,-6.9361,-6.9361,-6.9361,-6.9361,-6.9361,-6.9361,-6.9361,-6.9361,-6.9361,-6.9361,-6.9361,-6.9361,-6.9361,-6.9361,-6.9361,-6.9361,-6.9361,-6.9361,-6.9361,-6.9361,-6.9361,-6.9361,-6.9361,-6.9361,-6.9361,-6.9361,-6.9361,-6.9361,-6.9361,-6.9361,-6.9361,-6.9361,-6.9361,-6.9361,-6.7442,-7.0832,-7.3619,-7.6306,-7.7762,-7.8716,-7.9218,-7.9294,-7.8766,-7.6984,-7.6507,-7.5552,-7.2791,-7.1535,-7.1811,-7.4548,-7.4347,-7.5151,-7.8942,-7.952,-7.8741,-7.6482,-7.6256,-7.623,-7.6155,-7.6155,-7.731,-8.0022,-8.0675,-8.0725,-8.0198,-8.0675,-8.0474,-7.9419,-7.9394,-7.9394,-7.9394,-7.9394,-7.9394,-7.9394,-7.9394,-7.9394,-7.9394,-7.9394,-7.9093,-7.8591,-7.9143,-7.9068,-7.8616,-7.9118,-7.8992,-7.8415,-7.7862,-7.731,-7.6783,-7.6256,-7.603,-7.6004,-7.6004,-7.6004,-7.5804,-7.4724,-7.4347,-7.4021,-7.2439,-7.1937,-7.1786,-7.1234,-7.0681,-7.0255,-7.0229,-6.9828,-6.9361,-6.9361,-6.9451,-6.9501,-6.9501,-6.9501,-6.9501,-6.9501,-6.9451,-6.9361,-6.9361,-6.9361,-6.9361,-6.9361,-6.9361,-6.9361,-6.9361,-6.9361,-6.9361,-6.9361,-6.9361,-6.9361,-6.9361,-6.9361,-6.9361,-6.9361,-6.9361,-6.9361,-6.9361,-6.9361,-6.9361,-6.9361,-6.9361,-6.9361,-6.9361,-6.9361,-6.9361,-6.9361,-6.9361,-6.9361,-6.9777,-7.3368,-7.6707,-7.7812,-7.8641,-7.9093,-7.8817,-7.8114,-7.6682,-7.377,-7.1535,-6.9275,-6.6513,-6.7442,-6.9275,-7.1209,-7.4749,-7.8038,-8.0298,-8.1328,-8.1026,-7.8792,-7.8892,-7.8666,-7.7411,-7.7662,-7.854,-8.0097,-7.9972,-7.9746,-7.9595,-7.9721,-7.967,-7.9394,-7.9394,-7.9394,-7.9394,-7.9394,-7.9394,-7.9394,-7.9394,-7.9394,-7.9394,-7.9394,-7.9319,-7.9168,-7.9319,-7.9294,-7.9143,-7.8867,-7.8415,-7.7862,-7.731,-7.6758,-7.6256,-7.6105,-7.5804,-7.5452,-7.5452,-7.5176,-7.4724,-7.4021,-7.3519,-7.3067,-7.264,-7.2238,-7.1786,-7.1234,-7.0681,-7.0179,-6.9752,-6.9551,-6.9361,-6.9361,-6.9752,-7.0054,-7.0054,-7.0054,-7.0054,-7.0054,-6.9727,-6.9361,-6.9361,-6.9361,-6.9361,-6.9361,-6.9361,-6.9361,-6.9361,-6.9361,-6.9361,-6.9361,-6.9361,-6.9361,-6.9361,-6.9361,-6.9361,-6.9361,-6.9361,-6.9361,-6.9361,-6.9361,-6.9361,-6.9361,-6.9361,-6.9361,-6.9361,-6.9361,-6.9361,-6.9361,-6.9361,-6.9361,-7.2966,-7.6,-7.8443,-7.8745,-7.8897,-7.8645,-7.7006,-7.5698,-7.3619,-6.9777,-6.7568,-6.5559,-6.3048,-6.4655,-6.7116,-6.9526,-7.3318,-7.7185,-8.0549,-8.1553,-8.1503,-8.0248,-8.0373,-8.0022,-7.8566,-7.8716,-7.9168,-7.9796,-8.0022,-7.9997,-7.9746,-7.9972,-7.9896,-7.9394,-7.9394,-7.9394,-7.9394,-7.9394,-7.9394,-7.9394,-7.9394,-7.9394,-7.9394,-7.9394,-7.9243,-7.9018,-7.9269,-7.9243,-7.8992,-7.8666,-7.8189,-7.7637,-7.7084,-7.6532,-7.6055,-7.6055,-7.5703,-7.5201,-7.495,-7.4523,-7.3996,-7.3694,-7.3368,-7.3016,-7.2514,-7.2313,-7.2163,-7.161,-7.1209,-7.0857,-7.0305,-7.0154,-7.0104,-6.9853,-7.0029,-7.033,-7.0581,-7.0255,-6.9903,-6.9903,-6.9652,-6.9361,-6.9361,-6.9361,-6.9361,-6.9361,-6.9361,-6.9361,-6.9361,-6.9361,-6.9361,-6.9361,-6.9361,-6.9361,-6.9361,-6.9361,-6.9361,-6.9361,-6.9361,-6.9361,-6.9361,-6.9361,-6.9361,-6.9361,-6.9361,-6.9361,-6.9361,-6.9361,-6.9361,-6.9361,-6.9361,-6.9361,-7.6155,-7.814,-7.9329,-7.9329,-7.8847,-7.783,-7.5341,-7.3111,-7.0346,-6.5961,-6.4279,-6.3023,-6.109,-6.2596,-6.5358,-6.9049,-7.1661,-7.5101,-8.0599,-8.1102,-8.1001,-8.1227,-8.1127,-8.0599,-7.9495,-7.952,-7.9545,-7.9394,-8.0273,-8.0599,-8.0122,-8.0549,-8.0373,-7.9419,-7.9394,-7.9394,-7.9394,-7.9394,-7.9394,-7.9394,-7.9394,-7.9394,-7.9394,-7.9394,-7.9118,-7.8666,-7.9168,-7.9093,-7.8616,-7.8465,-7.8139,-7.7637,-7.7009,-7.6482,-7.6055,-7.6055,-7.5653,-7.505,-7.4573,-7.3996,-7.3468,-7.3468,-7.3418,-7.3192,-7.2288,-7.2288,-7.2539,-7.2138,-7.1962,-7.1786,-7.1309,-7.1133,-7.0958,-7.048,-7.043,-7.0606,-7.1083,-7.038,-6.9627,-6.9476,-6.9361,-6.9361,-6.9361,-6.9361,-6.9361,-6.9361,-6.9361,-6.9361,-6.9361,-6.9361,-6.9361,-6.9361,-6.9361,-6.9361,-6.9361,-6.9361,-6.9361,-6.9361,-6.9361,-6.9361,-6.9361,-6.9361,-6.9361,-6.9361,-6.9361,-6.9361,-6.9361,-6.9361,-6.9361,-6.9361,-6.9361,-6.9361,-7.7159,-7.8418,-7.9329,-7.9329,-7.8868,-7.8047,-7.6712,-7.2944,-6.8638,-6.4764,-6.1341,-5.893,-5.8529,-6.0638,-6.4279,-6.9878,-7.3443,-7.726,-8.2357,-8.1503,-8.085,-8.2231,-8.1579,-8.0599,-7.9495,-8.0223,-8.0373,-7.9444,-7.957,-7.9645,-7.9545,-7.962,-7.9595,-7.9394,-7.9394,-7.9394,-7.9394,-7.9394,-7.9394,-7.9394,-7.9394,-7.9394,-7.9394,-7.9394,-7.9344,-7.9243,-7.9344,-7.9319,-7.9168,-7.8239,-7.7787,-7.7611,-7.6582,-7.613,-7.6055,-7.6055,-7.5427,-7.4548,-7.4448,-7.3745,-7.2891,-7.2891,-7.2565,-7.2238,-7.2514,-7.2339,-7.2113,-7.2489,-7.2263,-7.1887,-7.1786,-7.1435,-7.1058,-7.0958,-7.1284,-7.1636,-7.1736,-7.1259,-7.0531,-6.9627,-6.9361,-6.9361,-6.9361,-6.9361,-6.9361,-6.9361,-6.9361,-6.9361,-6.9361,-6.9361,-6.9361,-6.9361,-6.9361,-6.9361,-6.9361,-6.9361,-6.9361,-6.9361,-6.9361,-6.9361,-6.9361,-6.9361,-6.9361,-6.9361,-6.9361,-6.9361,-6.9361,-6.9361,-6.9361,-6.9361,-6.9361,-6.9361,-7.8716,-7.9607,-8.0192,-8.0192,-7.9291,-7.7454,-7.3867,-6.9752,-6.5343,-6.0365,-5.7675,-5.6244,-5.6545,-5.8855,-6.232,-6.7267,-7.0631,-7.4548,-8.0122,-7.9997,-7.9947,-8.1629,-8.1353,-8.0825,-8.0298,-8.0474,-8.0499,-8.0273,-7.9972,-7.9695,-7.9394,-7.9394,-7.9394,-7.9394,-7.9394,-7.9394,-7.9394,-7.9394,-7.9394,-7.9394,-7.9394,-7.9394,-7.9394,-7.9394,-7.9394,-7.9394,-7.9394,-7.9218,-7.8867,-7.8038,-7.7536,-7.7185,-7.6381,-7.6055,-7.6055,-7.6055,-7.5352,-7.4423,-7.4423,-7.3669,-7.274,-7.274,-7.2539,-7.2339,-7.2313,-7.2514,-7.2765,-7.274,-7.2765,-7.264,-7.2062,-7.1937,-7.1861,-7.1585,-7.1711,-7.1761,-7.1184,-7.0857,-7.0405,-6.9602,-6.9361,-6.9361,-6.9361,-6.9361,-6.9361,-6.9361,-6.9361,-6.9361,-6.9361,-6.9361,-6.9361,-6.9361,-6.9361,-6.9361,-6.9361,-6.9361,-6.9361,-6.9361,-6.9361,-6.9361,-6.9361,-6.9361,-6.9361,-6.9361,-6.9361,-6.9361,-6.9361,-6.9361,-6.9361,-6.9361,-6.9361,-6.9361,-7.962,-8.0342,-8.0804,-8.1008,-7.9409,-7.6529,-7.128,-6.7077,-6.2632,-5.7197,-5.529,-5.4838,-5.5767,-5.77,-6.0663,-6.5258,-6.7744,-7.1334,-7.7812,-7.8289,-7.8741,-8.08,-8.1026,-8.0951,-8.07,-8.0499,-8.0474,-8.0675,-8.0273,-7.9846,-7.9419,-7.9394,-7.9394,-7.9394,-7.9394,-7.9394,-7.9394,-7.9394,-7.9394,-7.9394,-7.9394,-7.9394,-7.9394,-7.9394,-7.9394,-7.9394,-7.9394,-7.9068,-7.849,-7.7938,-7.736,-7.6833,-7.6281,-7.6055,-7.6055,-7.6055,-7.5352,-7.4423,-7.4548,-7.377,-7.274,-7.2866,-7.2841,-7.2665,-7.2364,-7.2891,-7.3519,-7.3192,-7.3418,-7.3544,-7.2539,-7.259,-7.274,-7.2062,-7.1912,-7.161,-7.0506,-7.0255,-7.0104,-6.9551,-6.9361,-6.9361,-6.9361,-6.9361,-6.9361,-6.9361,-6.9361,-6.9361,-6.9361,-6.9361,-6.9361,-6.9361,-6.9361,-6.9361,-6.9361,-6.9361,-6.9361,-6.9361,-6.9361,-6.9361,-6.9361,-6.9361,-6.9361,-6.9361,-6.9361,-6.9361,-6.9361,-6.9361,-6.9361,-6.9361,-6.9361,-6.9361,-7.8641,-7.9428,-8.0396,-8.0906,-7.8522,-7.5464,-7.299,-6.7809,-6.2607,-5.9108,-5.6369,-5.5189,-5.7273,-5.7876,-6.0286,-6.7191,-6.812,-7.0606,-7.8239,-7.7561,-7.7461,-8.065,-8.1026,-8.065,-7.9645,-8.0398,-8.0574,-7.962,-7.9495,-7.9444,-7.9394,-7.9394,-7.9394,-7.9394,-7.9394,-7.9394,-7.9394,-7.9394,-7.9394,-7.9394,-7.9394,-7.9394,-7.9394,-7.9394,-7.9394,-7.9394,-7.9394,-7.9068,-7.849,-7.7938,-7.736,-7.6833,-7.6281,-7.6055,-7.6055,-7.6055,-7.5352,-7.4498,-7.5,-7.4096,-7.2816,-7.3343,-7.3167,-7.2816,-7.3293,-7.3519,-7.3694,-7.4121,-7.4297,-7.4197,-7.3594,-7.3468,-7.3242,-7.2163,-7.1912,-7.161,-7.0506,-7.0255,-7.0104,-6.9551,-6.9361,-6.9361,-6.9361,-6.9361,-6.9361,-6.9361,-6.9361,-6.9361,-6.9361,-6.9361,-6.9361,-6.9361,-6.9361,-6.9361,-6.9361,-6.9361,-6.9361,-6.9361,-6.9361,-6.9361,-6.9361,-6.9361,-6.9361,-6.9361,-6.9361,-6.9361,-6.9361,-6.9361,-6.9361,-6.9361,-6.9361,-6.9361,-7.8716,-7.9857,-8.0191,-8.0498,-7.8248,-7.4866,-7.1077,-6.6517,-6.172,-5.7147,-5.5064,-5.431,-5.5214,-5.5365,-5.6972,-6.1868,-6.2471,-6.4806,-7.1912,-7.2138,-7.3318,-7.7988,-7.854,-7.9018,-8.0248,-8.0474,-8.0348,-7.9921,-8.0198,-8.0097,-7.9419,-7.9394,-7.9394,-7.9394,-7.9394,-7.9394,-7.9394,-7.9394,-7.9394,-7.9394,-7.9394,-7.9394,-7.9394,-7.9394,-7.9394,-7.9394,-7.9394,-7.8691,-7.7536,-7.7662,-7.6984,-7.5904,-7.6004,-7.6055,-7.6055,-7.6055,-7.5578,-7.495,-7.5176,-7.4573,-7.3795,-7.4021,-7.4146,-7.4146,-7.372,-7.382,-7.4146,-7.4347,-7.4423,-7.4297,-7.3745,-7.3092,-7.2389,-7.1585,-7.1158,-7.0807,-7.0355,-7.0003,-6.9702,-6.9501,-6.9361,-6.9361,-6.9361,-6.9361,-6.9361,-6.9361,-6.9361,-6.9361,-6.9361,-6.9361,-6.9361,-6.9361,-6.9361,-6.9361,-6.9361,-6.9361,-6.9361,-6.9361,-6.9361,-6.9361,-6.9361,-6.9361,-6.9361,-6.9361,-6.9361,-6.9361,-6.9361,-6.9361,-6.9361,-6.9361,-6.9361,-6.9361,-7.736,-7.925,-7.9986,-8.0191,-7.7217,-7.324,-6.9485,-6.4818,-5.9995,-5.5487,-5.411,-5.3658,-5.3507,-5.3607,-5.4687,-5.7725,-5.878,-6.124,-6.7066,-6.802,-7.0003,-7.505,-7.5352,-7.6381,-7.9495,-7.9896,-7.9972,-7.9972,-8.0323,-8.0223,-7.9419,-7.9394,-7.9394,-7.9394,-7.9394,-7.9394,-7.9394,-7.9394,-7.9394,-7.9394,-7.9394,-7.9294,-7.9143,-7.9319,-7.9294,-7.9118,-7.9118,-7.8365,-7.7134,-7.736,-7.6682,-7.5527,-7.5904,-7.6055,-7.603,-7.5879,-7.5578,-7.5251,-7.5251,-7.4875,-7.4473,-7.4799,-7.4824,-7.4674,-7.4222,-7.4473,-7.4824,-7.4498,-7.4171,-7.382,-7.3443,-7.2615,-7.1736,-7.1008,-7.0531,-7.0204,-7.0054,-6.9727,-6.9361,-6.9361,-6.9361,-6.9361,-6.9361,-6.9361,-6.9361,-6.9361,-6.9361,-6.9361,-6.9361,-6.9361,-6.9361,-6.9361,-6.9361,-6.9361,-6.9361,-6.9361,-6.9361,-6.9361,-6.9361,-6.9361,-6.9361,-6.9361,-6.9361,-6.9361,-6.9361,-6.9361,-6.9361,-6.9361,-6.9361,-6.9361,-6.9361,-6.9361,-7.387,-7.6883,-7.9497,-8.0089,-7.5187,-7.0034,-6.8877,-6.3078,-5.7298,-5.5039,-5.411,-5.3557,-5.303,-5.3356,-5.4436,-5.6696,-5.888,-6.1667,-6.5584,-6.6639,-6.8422,-7.2313,-7.1811,-7.2665,-7.6532,-7.8415,-7.9394,-7.9394,-7.9394,-7.9394,-7.9394,-7.9394,-7.9394,-7.9394,-7.9394,-7.9394,-7.9394,-7.9394,-7.9394,-7.9394,-7.9394,-7.9093,-7.854,-7.9118,-7.9068,-7.854,-7.854,-7.8214,-7.7662,-7.7109,-7.6557,-7.6055,-7.6055,-7.6055,-7.5979,-7.5452,-7.5251,-7.5251,-7.5251,-7.4875,-7.4598,-7.5678,-7.4925,-7.382,-7.49,-7.5603,-7.5804,-7.4724,-7.3619,-7.274,-7.274,-7.2339,-7.1636,-7.0531,-7.0255,-7.0104,-6.9577,-6.9361,-6.9361,-6.9361,-6.9361,-6.9361,-6.9361,-6.9361,-6.9361,-6.9361,-6.9361,-6.9361,-6.9361,-6.9361,-6.9361,-6.9361,-6.9361,-6.9361,-6.9361,-6.9361,-6.9361,-6.9361,-6.9361,-6.9361,-6.9361,-6.9361,-6.9361,-6.9361,-6.9361,-6.9361,-6.9361,-6.9361,-6.9361,-6.9361,-6.9361,-6.9361,-6.7819,-7.0079,-7.1377,-7.0689,-6.8473,-6.5745,-6.347,-6.0289,-5.7148,-5.4511,-5.3557,-5.313,-5.2955,-5.3356,-5.4561,-5.7198,-5.8504,-6.0814,-6.5459,-6.7267,-6.9526,-7.3418,-7.5578,-7.7235,-7.8465,-7.9771,-8.0198,-7.9444,-8.0097,-8.0173,-7.9419,-7.9394,-7.9394,-7.9394,-7.9394,-7.9394,-7.9394,-7.9394,-7.9394,-7.9394,-7.9394,-7.9093,-7.854,-7.9118,-7.9068,-7.854,-7.8942,-7.8566,-7.7687,-7.7511,-7.6883,-7.6055,-7.6055,-7.5829,-7.5527,-7.5728,-7.5552,-7.5301,-7.5653,-7.5427,-7.5025,-7.5377,-7.49,-7.4222,-7.4573,-7.4523,-7.4297,-7.3946,-7.3594,-7.3067,-7.1912,-7.1485,-7.1058,-6.9953,-6.9702,-6.9652,-6.9476,-6.9361,-6.9361,-6.9361,-6.9752,-6.9878,-6.9501,-6.9752,-6.9878,-6.9501,-6.9361,-6.9361,-6.9361,-6.9361,-6.9361,-6.9361,-6.9361,-6.9361,-6.9361,-6.9361,-6.9361,-6.9361,-6.9361,-6.9361,-6.9361,-6.9361,-6.9361,-6.9361,-6.9361,-6.9361,-6.9361,-6.9361,-6.9361,-6.9361,-6.9361,-6.9361,-6.3023,-6.5685,-6.7041,-6.6564,-6.4655,-6.2496,-6.0989,-5.8403,-5.5817,-5.4059,-5.411,-5.416,-5.313,-5.4034,-5.5189,-5.5917,-5.8052,-6.0563,-6.3249,-6.6689,-7.0054,-7.3117,-7.6783,-7.8892,-7.849,-7.9645,-8.0122,-7.9444,-8.0022,-8.0122,-7.9419,-7.9394,-7.9394,-7.9394,-7.9394,-7.9394,-7.9394,-7.9394,-7.9394,-7.9394,-7.9394,-7.9093,-7.854,-7.9118,-7.9068,-7.854,-7.8917,-7.8666,0.0,-7.7561,-7.6984,-7.6331,-7.613,-7.5854,-7.5578,-7.5703,-7.5527,-7.5251,-7.5402,-7.5226,-7.49,-7.4699,-7.4247,-7.3795,-7.3795,-7.3694,-7.3594,-7.3594,-7.3443,-7.2941,-7.146,-7.1083,-7.0807,-6.9702,-6.9361,-6.9361,-6.9361,-6.9361,-6.9501,-6.9727,-7.0029,-7.0204,-7.0079,-7.0355,-7.0455,-7.0104,-6.9878,-6.9828,-7.0029,-6.9878,-6.9828,-7.0054,-6.9878,-6.9752,-6.9752,-6.9551,-6.9361,-6.9361,-6.9361,-6.9361,-6.9361,-6.9361,-6.9361,-6.9361,-6.9361,-6.9361,-6.9361,-6.9361,-6.9361,-6.9361,-6.9361,-6.9361,0.0,-6.2847,-6.5409,-6.5911,-6.2923,-5.9985,-6.0537,-5.7047,0.0,-5.3909,-5.5591,-5.6244,-5.3683,-5.5465,-5.642,-5.3658,-5.77,-6.0839,-5.9859,-6.5434,-7.0305,-7.2163,-7.6055,-7.8164,-7.7109,-7.844,-7.9394,-7.9394,-7.9394,-7.9394,-7.9394,-7.9394,-7.9369,-7.9319,-7.9369,-7.9394,-7.9394,-7.9394,-7.9369,-7.9319,-7.9369,-7.9068,-7.849,-7.9093,-7.9043,-7.8465,-7.8515,-7.849,-7.839,-7.731,-7.6883,-7.6833,-7.6281,-7.6004,-7.5879,-7.5452,-7.5251,-7.5126,-7.4649,-7.4448,-7.4322,-7.372,-7.3167,-7.274,-7.274,-7.3092,-7.3544,-7.3544,-7.3142,-7.2489,-7.141,-7.1108,-7.0807,-6.9752,-6.9476,-6.9361,-6.9361,-6.9361,-6.9602,-7.0104,-7.0255,-7.0455,-7.0932,-7.1083,-7.1133,-7.1083,-7.0656,-7.0506,-7.1008,-7.0631,-7.0506,-7.1033,-7.0581,-7.0255,-7.0255,-6.9752,-6.9361,-6.9361,-6.9361,-6.9361,-6.9361,-6.9361,-6.9361,-6.9361,-6.9361,-6.9361,-6.9361,-6.9361,-6.9361,-6.9361,-6.9361,-6.9361,-5.3356,0.0,-5.7198,-5.6897,-5.6043,-5.529,0.0,-5.4561,-5.4185,-5.5892,-5.6671,-5.6821,-5.6194,-5.8328,-5.9307,-5.652,-5.8956,-6.1391,-6.1969,-6.7392,-7.274,-7.6532,-7.8264,-7.8917,-7.8214,-7.8892,-7.9394,-7.9394,-7.9394,-7.9394,-7.9394,-7.9394,-7.9193,-7.8741,-7.9143,-7.9394,-7.9394,-7.9394,-7.9168,-7.8741,-7.9168,-7.8867,-7.7938,-7.8942,-7.8842,-7.7913,-7.834,-7.8289,-7.7837,-7.7159,-7.6883,-7.6833,-7.6281,-7.5527,-7.49,-7.5603,-7.5327,-7.4649,-7.495,-7.4774,-7.4247,-7.3268,-7.2841,-7.274,-7.274,-7.2816,-7.2941,-7.2941,-7.2841,-7.2565,-7.1887,-7.141,-7.0907,-7.0229,-6.9752,-6.9361,-6.9361,-6.9361,-6.9476,-6.9602,-7.033,-7.0807,-7.0506,-7.1158,-7.156,-7.1158,-7.0983,-7.0932,-7.1058,-7.0958,-7.0932,-7.1058,-7.0581,-7.0255,-7.0255,-6.9752,-6.9361,-6.9361,-6.9361,-6.9361,-6.9361,-6.9361,-6.9361,-6.9361,-6.9361,-6.9361,-6.9361,-6.9361,-6.9361,-6.9361,-6.9361,-6.9361,-5.1373,-5.2703,-5.4411,-5.539,-5.5039,-5.4687,-5.544,-5.4838,-5.4662,-5.662,-5.7248,-5.7349,-5.7072,-5.8478,-5.9106,-5.7323,-5.873,-6.1768,-6.6689,-7.0882,-7.5075,-7.9495,-7.9871,-7.9746,-7.967,-7.9495,-7.9394,-7.9394,-7.9394,-7.9394,-7.9394,-7.9394,-7.9118,-7.854,-7.9093,-7.9269,-7.8992,-7.9243,-7.9093,-7.854,-7.9118,-7.8792,-7.7737,-7.8867,-7.8766,-7.7712,-7.8013,-7.7988,-7.7637,-7.6833,-7.6507,-7.6456,-7.5904,-7.5176,-7.4523,-7.5377,-7.4975,-7.4121,-7.4674,-7.4171,-7.3167,-7.2539,-7.2188,-7.1987,-7.1987,-7.1987,-7.2087,-7.259,-7.274,-7.2615,-7.2037,-7.1686,-7.1309,-7.0757,-7.0405,-7.0204,-7.0204,-7.0204,-7.028,-7.0531,-7.1058,-7.1435,-7.141,-7.1887,-7.2188,-7.1887,-7.1636,-7.156,-7.1811,-7.161,-7.156,-7.1811,-7.1334,-7.1008,-7.1008,-7.028,-6.9702,-6.9451,-6.9361,-6.9361,-6.9361,-6.9361,-6.9551,-6.9828,-6.9828,-6.9828,-6.9828,-6.9577,-6.9361,-6.9361,-6.9361,-6.9361,-5.1574,-5.2779,-5.4587,-5.7248,-5.6445,-5.5516,-5.7449,-5.6043,-5.4963,-5.7198,-5.8052,-5.8278,-5.7876,-5.8805,-5.9106,-5.7424,-5.8604,-6.2747,-7.1384,-7.4046,-7.6657,-8.08,-8.0574,-8.0223,-8.0624,-7.9896,-7.9394,-7.9394,-7.9394,-7.9394,-7.9394,-7.9294,-7.9043,-7.854,-7.8992,-7.9018,-7.854,-7.9093,-7.9093,-7.854,-7.9018,-7.8716,-7.7737,-7.8691,-7.8566,-7.7586,-7.7586,-7.7486,-7.726,-7.6306,-7.5879,-7.5753,-7.5301,-7.4774,-7.4347,-7.49,-7.4473,-7.3644,-7.4021,-7.3217,-7.2012,-7.1937,-7.1636,-7.1309,-7.1234,-7.1209,-7.141,-7.2339,-7.2615,-7.2514,-7.2138,-7.1962,-7.1786,-7.1309,-7.1133,-7.1083,-7.1083,-7.1083,-7.1209,-7.1686,-7.1836,-7.2087,-7.264,-7.2791,-7.2891,-7.2966,-7.259,-7.2464,-7.2916,-7.2514,-7.2339,-7.2816,-7.2288,-7.1887,-7.1786,-7.0932,-7.0154,-6.9602,-6.9501,-6.9476,-6.9551,-6.9501,-6.9752,-7.038,-7.0229,-7.0229,-7.038,-6.9828,-6.9577,-6.9577,-6.9652,-6.9652,-5.2955,-5.421,-5.5566,-5.7449,-5.5591,-5.411,-5.7198,-5.544,-5.4587,-5.9533,-6.0613,-6.0788,-6.1165,-6.4756,-6.5509,-5.8855,-6.1441,-6.6086,-7.1309,-7.3494,-7.5653,-7.8666,-7.9319,-7.9344,-7.8942,-7.9193,-7.9394,-7.9394,-7.9394,-7.9394,-7.9394,-7.8917,-7.8616,-7.8515,-7.8616,-7.8616,-7.8515,-7.9093,-7.9093,-7.8515,-7.8616,-7.8314,-7.7712,-7.7888,-7.7611,-7.7009,-7.7009,-7.6482,-7.5603,-7.5427,-7.5075,-7.4649,-7.4573,-7.4197,-7.3795,-7.4347,-7.4146,-7.3544,-7.3142,-7.2816,-7.2514,-7.2062,-7.2163,-7.2389,-7.1912,-7.1786,-7.1811,-7.1987,-7.2037,-7.2113,-7.2514,-7.2263,-7.1887,-7.1811,-7.141,-7.1083,-7.1083,-7.1083,-7.1108,-7.1184,-7.1585,-7.2087,-7.264,-7.3142,-7.3619,-7.4096,-7.4096,-7.4071,-7.4146,-7.3669,-7.3368,-7.3443,-7.2514,-7.1711,-7.1259,-7.1058,-7.0706,-7.0179,-6.9702,-6.9652,-7.0104,-6.9702,-6.9928,-7.0932,-7.0054,-7.0029,-7.0958,-7.0405,-7.0129,-7.0154,-7.0606,-7.0581,-5.1724,-5.2754,-5.4511,-5.8278,-5.7173,-5.6319,-6.0864,-5.7449,-5.5265,-6.2019,-6.006,-5.8227,-6.1793,-6.3576,-6.4228,-6.3375,-6.7166,-7.0932,-7.2966,-7.4448,-7.6431,-7.952,-7.9319,-7.9168,-7.9821,-7.957,-7.9394,-7.9394,-7.9394,-7.9394,-7.9394,-7.9143,-7.8842,-7.854,-7.8817,-7.8842,-7.8515,-7.9093,-7.8942,-7.8088,-7.839,-7.7913,-7.6833,-7.7436,-7.7235,-7.6406,-7.6105,-7.5703,-7.5176,-7.4247,-7.392,-7.392,-7.3293,-7.3092,-7.3167,-7.3418,-7.3544,-7.3468,-7.259,-7.2288,-7.2188,-7.1636,-7.1636,-7.1736,-7.1184,-7.1234,-7.146,-7.146,-7.1686,-7.2037,-7.259,-7.2539,-7.2288,-7.1987,-7.1937,-7.1887,-7.1585,-7.1761,-7.2062,-7.2389,-7.264,-7.2991,-7.3544,-7.387,-7.4121,-7.4372,-7.4423,-7.4423,-7.4423,-7.392,-7.3594,-7.3594,-7.2841,-7.2238,-7.1987,-7.1711,-7.1284,-7.0732,-7.048,-7.043,-7.0706,-7.0757,-7.1008,-7.151,-7.1033,-7.1033,-7.1535,-7.0983,-7.0706,-7.0706,-7.0958,-7.0958,-5.087,-5.1624,-5.3532,-5.8679,-5.8001,-5.7725,-6.4028,-5.9684,-5.642,-6.3927,-6.0537,-5.7725,-6.2697,-6.2873,-6.3676,-6.8045,-7.2263,-7.5075,-7.5327,-7.6205,-7.7787,-8.0348,-7.952,-7.9243,-8.0524,-7.9871,-7.9394,-7.9394,-7.9394,-7.9394,-7.9394,-7.9269,-7.9043,-7.8741,-7.9018,-7.9043,-7.8716,-7.9043,-7.8741,-7.7888,-7.8189,-7.7611,-7.6281,-7.6858,-7.6657,-7.5829,-7.5276,-7.49,-7.4548,-7.3268,-7.2841,-7.2916,-7.2062,-7.2062,-7.2539,-7.2539,-7.2891,-7.3242,-7.2263,-7.1987,-7.2012,-7.146,-7.1284,-7.1209,-7.0782,-7.0857,-7.1108,-7.1234,-7.1485,-7.1836,-7.2389,-7.2439,-7.2238,-7.1811,-7.2138,-7.2464,-7.2163,-7.2539,-7.3092,-7.3669,-7.3795,-7.3971,-7.4523,-7.4598,-7.4649,-7.4774,-7.4799,-7.4799,-7.4799,-7.4322,-7.392,-7.3795,-7.3268,-7.2866,-7.274,-7.2238,-7.1786,-7.1485,-7.1234,-7.1133,-7.1259,-7.156,-7.1836,-7.2087,-7.1836,-7.1836,-7.2087,-7.1535,-7.1284,-7.1284,-7.141,-7.146,-5.2176,-5.2804,-5.3833,-5.7801,-5.5993,-5.5465,-6.4103,-6.0864,-5.7951,-6.468,-6.4806,-6.4128,-6.5609,-6.7066,-6.8798,-7.1209,-7.4473,-7.7059,-7.8088,-7.8766,-7.9243,-7.9469,-7.9394,-7.9369,-7.9495,-7.9444,-7.9394,-7.9394,-7.9394,-7.9394,-7.9394,-7.8867,-7.8817,-7.9319,-7.8842,-7.8817,-7.9319,-7.8842,-7.854,-7.8465,-7.7988,-7.7436,-7.6783,-7.5854,-7.5377,-7.5276,-7.4724,-7.3895,-7.2891,-7.2791,-7.2163,-7.1259,-7.1184,-7.1485,-7.1962,-7.1962,-7.2313,-7.2715,-7.2113,-7.2238,-7.259,-7.2037,-7.1836,-7.1836,-7.1811,-7.146,-7.1184,-7.1711,-7.151,-7.1259,-7.1836,-7.1585,-7.1184,-7.1158,-7.156,-7.2087,-7.2565,-7.3117,-7.3694,-7.4247,-7.4347,-7.4523,-7.5075,-7.5176,-7.5352,-7.5854,-7.5929,-7.5929,-7.5929,-7.5452,-7.4925,-7.4423,-7.387,-7.3318,-7.2765,-7.2238,-7.2113,-7.259,-7.1661,-7.1309,-7.1836,-7.1384,-7.1636,-7.264,-7.1661,-7.1636,-7.2665,-7.2113,-7.1836,-7.1861,-7.2364,-7.2615,-5.0619,-5.1875,-5.3934,-5.8127,-5.7047,-5.7123,-6.5283,-6.2546,-6.0437,-6.812,-6.6915,-6.4806,-6.5911,-6.8597,-7.1284,-7.3167,-7.6256,-7.8591,-7.8992,-7.9243,-7.9394,-7.9394,-7.9394,-7.9394,-7.9394,-7.9394,-7.9394,-7.9394,-7.9394,-7.9394,-7.9394,-7.9168,-7.9168,-7.9369,-7.9168,-7.8992,-7.8842,-7.8641,-7.8189,-7.7486,-7.7285,-7.6733,-7.5854,-7.5427,-7.505,-7.4674,-7.377,-7.3117,-7.264,-7.161,-7.1158,-7.1083,-7.1083,-7.1008,-7.0958,-7.1661,-7.1836,-7.1736,-7.1861,-7.1585,-7.1259,-7.1761,-7.1686,-7.146,-7.1811,-7.1987,-7.2087,-7.1937,-7.151,-7.1209,-7.1761,-7.1485,-7.1083,-7.1083,-7.1761,-7.2389,-7.2238,-7.2941,-7.3644,-7.387,-7.4171,-7.4598,-7.5151,-7.5527,-7.5829,-7.603,-7.6055,-7.6055,-7.6055,-7.5578,-7.5025,-7.4473,-7.3594,-7.2966,-7.274,-7.2539,-7.2514,-7.2715,-7.2339,-7.2213,-7.2414,-7.2213,-7.2313,-7.2715,-7.2313,-7.2489,-7.3268,-7.3067,-7.3142,-7.3468,-7.3694,-7.377,-4.9339,-5.0569,-5.2854,-5.6922,-5.6796,-5.7951,-6.6614,-6.468,-6.3249,-7.0882,-6.9451,-6.694,-6.7342,-7.0305,-7.2966,-7.3745,-7.6984,-7.9394,-7.9394,-7.9394,-7.9394,-7.9394,-7.9394,-7.9394,-7.9394,-7.9394,-7.9394,-7.9394,-7.9394,-7.9394,-7.9394,-7.9394,-7.9394,-7.9394,-7.9218,-7.8917,-7.8515,-7.8164,-7.7536,-7.6607,-7.6431,-7.5954,-7.5226,-7.505,-7.4573,-7.3845,-7.2891,-7.2263,-7.1861,-7.0732,-7.038,-7.0556,-7.0556,-7.0455,-7.0355,-7.1108,-7.1259,-7.1133,-7.151,-7.1158,-7.0681,-7.161,-7.1535,-7.1209,-7.1937,-7.2313,-7.2439,-7.2238,-7.1636,-7.1209,-7.1761,-7.1359,-7.0832,-7.0832,-7.1811,-7.2615,-7.2238,-7.3067,-7.3845,-7.3845,-7.4171,-7.4598,-7.5151,-7.5552,-7.5854,-7.603,-7.6055,-7.6055,-7.6055,-7.5578,-7.495,-7.4222,-7.3293,-7.274,-7.274,-7.274,-7.2816,-7.2991,-7.2841,-7.274,-7.274,-7.274,-7.274,-7.274,-7.2916,-7.3192,-7.3594,-7.377,-7.4046,-7.4423,-7.4423,-7.4498,-4.8812,-4.9213,-5.0419,-5.3783,-5.4637,-5.7374,-6.7869,-6.7292,-6.6262,-7.2364,-7.2715,-7.1585,-7.048,-7.2565,-7.4071,-7.2916,-7.6482,-7.9369,-7.9369,-7.9394,-7.9394,-7.9394,-7.9394,-7.9394,-7.9394,-7.9394,-7.9394,-7.9394,-7.9394,-7.9394,-7.9394,-7.9394,-7.9394,-7.9369,-7.8817,-7.8515,-7.849,-7.7411,-7.6582,-7.603,-7.5477,-7.5226,-7.5201,-7.4649,-7.3795,-7.269,-7.2138,-7.1284,-7.0255,-7.0255,-6.9928,-6.9361,-6.9361,-6.9777,-7.0255,-7.0255,-7.0606,-7.1058,-7.1083,-7.1083,-7.1158,-7.1736,-7.1535,-7.1284,-7.2389,-7.2339,-7.2012,-7.2565,-7.1937,-7.1209,-7.1761,-7.1083,-7.028,-7.028,-7.1535,-7.274,-7.274,-7.3619,-7.4397,-7.4397,-7.4397,-7.4573,-7.5126,-7.5251,-7.5427,-7.5979,-7.6055,-7.6055,-7.6055,-7.5578,-7.4799,-7.372,-7.3067,-7.274,-7.274,-7.274,-7.2991,-7.3569,-7.3067,-7.274,-7.274,-7.274,-7.274,-7.274,-7.3293,-7.3594,-7.3619,-7.4171,-7.4423,-7.4423,-7.4423,-7.4724,-5.2327,-5.2126,-5.2352,-5.647,-5.8654,-6.1743,-6.915,-6.8447,-6.797,-7.4071,-7.4448,-7.3318,-7.2213,-7.3946,-7.5075,-7.3569,-7.6406,-7.8792,-7.8792,-7.9118,-7.9394,-7.9394,-7.9394,-7.9394,-7.9394,-7.9394,-7.9394,-7.9394,-7.9394,-7.9394,-7.9394,-7.9394,-7.9193,-7.8792,-7.8616,-7.7963,-7.6783,-7.6456,-7.5628,-7.4322,-7.4171,-7.4071,-7.4071,-7.392,-7.3217,-7.2113,-7.156,-7.0907,-7.0229,-6.9853,-6.9602,-6.9361,-6.9361,-6.9551,-6.9727,-7.0104,-7.0129,-7.0054,-7.0807,-7.0581,-7.0154,-7.1485,-7.1535,-7.1284,-7.2389,-7.2339,-7.2012,-7.2565,-7.1661,-7.0732,-7.1661,-7.1359,-7.0932,-7.1334,-7.2087,-7.274,-7.274,-7.3318,-7.372,-7.3318,-7.3569,-7.4021,-7.4573,-7.4975,-7.5427,-7.5979,-7.6055,-7.6055,-7.6055,-7.49,-7.4096,-7.4171,-7.3318,-7.274,-7.274,-7.3092,-7.3418,-7.3594,-7.3418,-7.3519,-7.3895,-7.3142,-7.3092,-7.3895,-7.3694,-7.3971,-7.4749,-7.4925,-7.5201,-7.5578,-7.5578,-7.5653,-5.3708,-5.3507,-5.4185,-6.0161,-6.232,-6.4404,-6.9853,-7.0832,-7.1736,-7.5854,-7.5653,-7.4548,-7.3845,-7.4824,-7.5402,-7.4397,-7.6657,-7.8515,-7.8515,-7.9018,-7.9394,-7.9394,-7.9394,-7.9394,-7.9394,-7.9394,-7.9394,-7.9394,-7.9394,-7.9294,-7.9068,-7.9043,-7.8691,-7.7888,-7.7662,-7.6959,-7.5753,-7.5301,-7.4473,-7.3242,-7.3016,-7.2816,-7.2615,-7.2816,-7.2313,-7.1209,-7.0681,-7.0255,-6.9903,-6.9577,-6.9361,-6.9361,-6.9361,-6.9361,-6.9476,-6.9828,-6.9727,-6.9551,-7.0204,-7.0003,-6.9652,-7.0857,-7.1033,-7.0907,-7.1811,-7.1987,-7.1987,-7.2313,-7.1686,-7.1108,-7.2012,-7.1661,-7.1234,-7.1786,-7.2514,-7.2941,-7.2489,-7.2841,-7.3067,-7.2514,-7.269,-7.3167,-7.3946,-7.4372,-7.4774,-7.5327,-7.5402,-7.5402,-7.5402,-7.4523,-7.4046,-7.4372,-7.382,-7.3393,-7.3393,-7.372,-7.4021,-7.4222,-7.4046,-7.4272,-7.5025,-7.3795,-7.3494,-7.4397,-7.4297,-7.4573,-7.5251,-7.5452,-7.5728,-7.6055,-7.6055,-7.6055,-5.4009,-5.4235,-5.6118,-6.4002,-6.5634,-6.6413,-7.0706,-7.3996,-7.6406,-7.736,-7.6431,-7.5452,-7.5452,-7.5427,-7.5402,-7.5452,-7.7134,-7.8465,-7.8515,-7.9018,-7.9394,-7.9394,-7.9394,-7.9394,-7.9394,-7.9394,-7.9369,-7.9319,-7.9319,-7.9043,-7.8415,-7.8365,-7.7837,-7.6682,-7.6155,-7.5603,-7.495,-7.3946,-7.3117,-7.2489,-7.1987,-7.146,-7.0958,-7.156,-7.1259,-7.0229,-6.9677,-6.9361,-6.9361,-6.9361,-6.9361,-6.9361,-6.9361,-6.9361,-6.9361,-6.9361,-6.9361,-6.9361,-6.9361,-6.9361,-6.9526,-7.0079,-7.0255,-7.0355,-7.0907,-7.1435,-7.1836,-7.1887,-7.1861,-7.1962,-7.2565,-7.1937,-7.1284,-7.1786,-7.264,-7.3092,-7.2062,-7.2238,-7.2439,-7.1987,-7.1912,-7.2263,-7.3393,-7.3594,-7.3795,-7.4397,-7.4448,-7.4448,-7.4548,-7.4473,-7.4423,-7.4473,-7.4448,-7.4423,-7.4423,-7.4473,-7.4699,-7.5201,-7.4774,-7.4975,-7.6004,-7.4523,-7.3946,-7.4548,-7.5,-7.5276,-7.5301,-7.5804,-7.6055,-7.6055,-7.6055,-7.608,-5.7524,-5.8252,-5.9307,-6.3726,-6.8246,-7.2439,-7.5552,-7.6507,-7.6632,-7.6456,-7.6808,-7.7159,-7.7159,-7.6808,-7.6657,-7.7109,-7.7561,-7.8038,-7.8465,-7.9018,-7.9394,-7.9394,-7.9394,-7.9394,-7.9394,-7.9394,-7.9193,-7.8741,-7.8716,-7.8264,-7.7285,-7.7235,-7.6532,-7.5,-7.4824,-7.4071,-7.264,-7.2389,-7.1761,-7.0782,-7.0681,-7.033,-6.9828,-7.0807,-7.0907,-7.0229,-6.9677,-6.9361,-6.9361,-6.9361,-6.9361,-6.9361,-6.9361,-6.9361,-6.9361,-6.9361,-6.9361,-6.9361,-6.9361,-6.9361,-6.9526,-7.0079,-7.0255,-7.0355,-7.0907,-7.1158,-7.1359,-7.1786,-7.1585,-7.1485,-7.2464,-7.2238,-7.1761,-7.1887,-7.1761,-7.156,-7.1309,-7.1359,-7.1535,-7.1836,-7.1912,-7.2263,-7.3393,-7.3594,-7.392,-7.49,-7.4699,-7.4724,-7.5578,-7.495,-7.4573,-7.5025,-7.4674,-7.4423,-7.4423,-7.4824,-7.5126,-7.5226,-7.5126,-7.5352,-7.603,-7.4875,-7.4699,-7.5678,-7.5402,-7.5452,-7.5879,-7.6004,-7.6055,-7.6055,-7.6055,-7.6281,-5.7173,-5.8704,-6.0989,-6.7267,-7.2213,-7.5854,-7.7034,-7.7285,-7.7185,-7.6908,-7.6883,-7.6908,-7.6908,-7.6883,-7.6959,-7.726,-7.7762,-7.8189,-7.849,-7.9018,-7.9394,-7.9394,-7.9394,-7.9269,-7.8992,-7.8967,-7.8741,-7.8164,-7.7888,-7.736,-7.6532,-7.5979,-7.505,-7.3644,-7.3343,-7.2665,-7.151,-7.1259,-7.0832,-7.0255,-7.0003,-6.9727,-6.9451,-7.0054,-7.0129,-6.9853,-6.9577,-6.9361,-6.9361,-6.9361,-6.9361,-6.9361,-6.9361,-6.9361,-6.9361,-6.9361,-6.9361,-6.9361,-6.9361,-6.9361,-6.9501,-6.9777,-6.9878,-6.9928,-7.0204,-7.048,-7.0757,-7.1033,-7.1108,-7.1209,-7.1786,-7.1535,-7.1108,-7.1108,-7.1309,-7.1334,-7.0807,-7.0681,-7.0857,-7.141,-7.151,-7.1861,-7.2991,-7.3418,-7.3795,-7.4372,-7.4222,-7.4423,-7.5527,-7.4925,-7.4724,-7.5552,-7.5377,-7.5201,-7.5201,-7.5452,-7.5628,-7.5628,-7.5628,-7.5753,-7.6055,-7.5502,-7.5477,-7.6055,-7.5778,-7.5778,-7.6055,-7.6331,-7.6456,-7.6456,-7.6733,-7.6984,-5.5239,-5.8227,-6.2847,-7.146,-7.5377,-7.7084,-7.6908,-7.7084,-7.731,-7.7385,-7.6833,-7.6331,-7.6331,-7.6707,-7.7009,-7.7009,-7.7787,-7.8415,-7.8515,-7.8867,-7.9143,-7.9218,-7.9143,-7.8917,-7.8415,-7.8289,-7.8013,-7.7461,-7.6808,-7.618,-7.5527,-7.4523,-7.3468,-7.2339,-7.1861,-7.1359,-7.0807,-7.0355,-7.0104,-7.0104,-6.9652,-6.9361,-6.9361,-6.9361,-6.9361,-6.9361,-6.9361,-6.9361,-6.9361,-6.9361,-6.9361,-6.9361,-6.9361,-6.9361,-6.9361,-6.9361,-6.9361,-6.9361,-6.9361,-6.9361,-6.9361,-6.9361,-6.9361,-6.9361,-6.9361,-6.9828,-7.0255,-7.0255,-7.0656,-7.1083,-7.1083,-7.0757,-7.038,-7.028,-7.0958,-7.1334,-7.033,-7.0104,-7.0305,-7.0958,-7.1234,-7.1661,-7.2565,-7.3217,-7.3619,-7.372,-7.3745,-7.4121,-7.5226,-7.49,-7.495,-7.5954,-7.6055,-7.6055,-7.6055,-7.6055,-7.6055,-7.6055,-7.6055,-7.6055,-7.6055,-7.6055,-7.6055,-7.6055,-7.6055,-7.6055,-7.6055,-7.6607,-7.6883,-7.6883,-7.7436,-7.7762,-5.3778,-5.9885,-6.7191,-7.2313,-7.4222,-7.5201,-7.6582,-7.6205,-7.5703,-7.618,-7.6908,-7.7486,-7.7486,-7.7536,-7.7586,-7.7586,-7.7712,-7.7988,-7.8465,-7.8189,-7.8114,-7.8566,-7.8214,-7.7888,-7.7812,-7.7385,-7.6858,-7.6306,-7.5327,-7.4272,-7.3242,-7.259,-7.1736,-7.0631,-7.0506,-7.0204,-6.9677,-6.9602,-6.9551,-6.9551,-6.9476,-6.9361,-6.9361,-6.9361,-6.9361,-6.9361,-6.9361,-6.9361,-6.9361,-6.9361,-6.9361,-6.9361,-6.9361,-6.9361,-6.9361,-6.9361,-6.9361,-6.9361,-6.9361,-6.9361,-6.9361,-6.9361,-6.9361,-6.9361,-6.9361,-6.9828,-7.0255,-7.0255,-7.0656,-7.1083,-7.1083,-7.1033,-7.0857,-7.038,-7.038,-7.0305,-6.9677,-6.9551,-6.9853,-7.0882,-7.1861,-7.2565,-7.2715,-7.3217,-7.377,-7.4222,-7.4297,-7.4699,-7.5804,-7.5477,-7.5377,-7.5979,-7.6055,-7.6055,-7.6055,-7.6055,-7.6055,-7.6055,-7.6055,-7.6055,-7.6055,-7.6055,-7.6055,-7.6055,-7.6055,-7.6055,-7.6055,-7.6607,-7.6883,-7.6883,-7.7436,-7.7963,-5.5638,-6.0261,-6.5383,-7.2313,-7.3519,-7.377,-7.6682,-7.6482,-7.5854,-7.6406,-7.6908,-7.7134,-7.6833,-7.7034,-7.7235,-7.7235,-7.7486,-7.7787,-7.8038,-7.7862,-7.7787,-7.8038,-7.7837,-7.7461,-7.6833,-7.6281,-7.5603,-7.4749,-7.3644,-7.2791,-7.2288,-7.146,-7.0757,-7.028,-6.9953,-6.9702,-6.9361,-6.9361,-6.9361,-6.9361,-6.9361,-6.9361,-6.9361,-6.9361,-6.9361,-6.9361,-6.9361,-6.9361,-6.9361,-6.9361,-6.9361,-6.9361,-6.9361,-6.9361,-6.9361,-6.9361,-6.9361,-6.9361,-6.9361,-6.9361,-6.9361,-6.9361,-6.9361,-6.9361,-6.9361,-6.9627,-6.9803,-6.9803,-6.9978,-7.0179,-7.0179,-7.0179,-7.0104,-6.9853,-6.9803,-6.9828,-6.9878,-6.9903,-7.0229,-7.1334,-7.2188,-7.2841,-7.3167,-7.3418,-7.3895,-7.4749,-7.4623,-7.4824,-7.5904,-7.5578,-7.5452,-7.6004,-7.6055,-7.6055,-7.6055,-7.6055,-7.6055,-7.6055,-7.6055,-7.6055,-7.6055,-7.6055,-7.6205,-7.6507,-7.6205,-7.6205,-7.6507,-7.7059,-7.7486,-7.7812,-7.839,-7.8766,-5.5764,-5.8755,-6.1818,-6.9727,-7.0958,-7.1209,-7.495,-7.5176,-7.4774,-7.5477,-7.5854,-7.5879,-7.5301,-7.6004,-7.6632,-7.6482,-7.6808,-7.7059,-7.7059,-7.7059,-7.7059,-7.7059,-7.6959,-7.6482,-7.5527,-7.4799,-7.4046,-7.3217,-7.2113,-7.1485,-7.1485,-7.0581,-7.0054,-7.0054,-6.9652,-6.9361,-6.9361,-6.9361,-6.9361,-6.9361,-6.9361,-6.9361,-6.9361,-6.9361,-6.9361,-6.9361,-6.9361,-6.9361,-6.9361,-6.9361,-6.9361,-6.9361,-6.9361,-6.9361,-6.9361,-6.9361,-6.9361,-6.9361,-6.9361,-6.9361,-6.9361,-6.9361,-6.9361,-6.9361,-6.9361,-6.9361,-6.9361,-6.9361,-6.9361,-6.9361,-6.9361,-6.9361,-6.9361,-6.9361,-6.9361,-6.9602,-7.0154,-7.048,-7.0907,-7.1736,-7.2339,-7.2916,-7.3494,-7.372,-7.4121,-7.5101,-7.4875,-7.4975,-7.5929,-7.5578,-7.5452,-7.6004,-7.6055,-7.6055,-7.6055,-7.6055,-7.6055,-7.6055,-7.6055,-7.6055,-7.6055,-7.6055,-7.6306,-7.6858,-7.6482,-7.6532,-7.7084,-7.7637,-7.8114,-7.854,-7.9118,-7.9394,-5.1565,-5.4436,-5.7725,-6.2948,-6.4957,-6.6513,-6.9878,-7.0606,-7.0857,-7.1937,-7.3016,-7.3594,-7.3016,-7.4649,-7.5929,-7.5402,-7.5352,-7.5377,-7.5377,-7.5377,-7.5377,-7.5377,-7.49,-7.4372,-7.377,-7.2715,-7.2062,-7.1987,-7.0958,-7.0355,-7.0355,-6.9803,-6.9501,-6.9501,-6.9451,-6.9361,-6.9361,-6.9361,-6.9361,-6.9361,-6.9361,-6.9361,-6.9361,-6.9361,-6.9361,-6.9361,-6.9361,-6.9361,-6.9361,-6.9361,-6.9361,-6.9361,-6.9361,-6.9361,-6.9361,-6.9361,-6.9361,-6.9361,-6.9361,-6.9361,-6.9361,-6.9361,-6.9361,-6.9361,-6.9361,-6.9361,-6.9361,-6.9361,-6.9361,-6.9361,-6.9361,-6.9361,-6.9361,-6.9361,-6.9361,-6.9602,-7.0154,-7.1083,-7.1836,-7.1887,-7.2339,-7.2916,-7.3494,-7.4021,-7.4573,-7.5151,-7.5226,-7.5402,-7.5979,-7.5578,-7.5452,-7.6004,-7.6055,-7.6055,-7.6055,-7.6055,-7.6055,-7.6055,-7.6055,-7.6055,-7.6055,-7.6055,-7.6306,-7.6858,-7.6858,-7.7109,-7.7662,-7.8214,-7.849,-7.854,-7.9118,-7.9394,-5.1494,-5.2438,-5.3959,-6.0035,-6.1843,-6.3073,-6.6764,-6.8698,-6.9752,-6.9803,-7.1234,-7.2113,-7.0857,-7.2439,-7.387,-7.3669,-7.3619,-7.3619,-7.3619,-7.3619,-7.3619,-7.3619,-7.3443,-7.3117,-7.2565,-7.1811,-7.1234,-7.0882,-6.9501,-6.8999,-6.9702,-6.8874,-6.8723,-6.9426,-6.9361,-6.9361,-6.9361,-6.9361,-6.9361,-6.9361,-6.9361,-6.9361,-6.9361,-6.9361,-6.9361,-6.9361,-6.9361,-6.9361,-6.9361,-6.9361,-6.9361,-6.9361,-6.9361,-6.9361,-6.9361,-6.9361,-6.9361,-6.9361,-6.9361,-6.9361,-6.9361,-6.9361,-6.9361,-6.9361,-6.9361,-6.9361,-6.9361,-6.9361,-6.9361,-6.9361,-6.9361,-6.9361,-6.9526,-6.9878,-7.0229,-7.0656,-7.1209,-7.1912,-7.2439,-7.2439,-7.259,-7.2916,-7.3494,-7.377,-7.4197,-7.5101,-7.5251,-7.5427,-7.5979,-7.5879,-7.5829,-7.603,-7.6055,-7.6055,-7.6055,-7.6055,-7.6055,-7.6055,-7.6055,-7.6055,-7.6055,-7.6381,-7.6833,-7.7385,-7.7762,-7.8038,-7.8214,-7.8415,-7.8716,-7.9093,-7.9294,-7.9394,-5.0346,-5.0493,-5.138,-5.7046,-5.8127,-5.9056,-6.3676,-6.6187,-6.7518,-6.7493,-6.9551,-7.0958,-6.9677,-7.0631,-7.1736,-7.2113,-7.2188,-7.2188,-7.2188,-7.2339,-7.2389,-7.2188,-7.2188,-7.1962,-7.141,-7.0857,-7.038,-7.0003,-6.8974,-6.8673,-6.9401,-6.8748,-6.8698,-6.9426,-6.9361,-6.9361,-6.9361,-6.9361,-6.9361,-6.9361,-6.9361,-6.9361,-6.9361,-6.9361,-6.9361,-6.9361,-6.9361,-6.9361,-6.9361,-6.9361,-6.9361,-6.9361,-6.9361,-6.9361,-6.9361,-6.9361,-6.9361,-6.9361,-6.9361,-6.9361,-6.9361,-6.9361,-6.9361,-6.9361,-6.9361,-6.9361,-6.9361,-6.9361,-6.9361,-6.9361,-6.9361,-6.9577,-6.9853,-7.0405,-7.0958,-7.146,-7.1836,-7.2339,-7.274,-7.274,-7.274,-7.2916,-7.3494,-7.3745,-7.4171,-7.5101,-7.5402,-7.5653,-7.6004,-7.6055,-7.6055,-7.6055,-7.6055,-7.6055,-7.6055,-7.6055,-7.6055,-7.6055,-7.6055,-7.613,-7.6331,-7.6682,-7.7235,-7.7963,-7.834,-7.8616,-7.8817,-7.8817,-7.9018,-7.9394,-7.9394,-7.9394,0.0,0.0,0.0,-5.3596,-5.3658,-5.4461,-6.0387,-6.2672,-6.3827,-6.4931,-6.7794,-6.9953,-6.9476,-6.9426,-6.9803,-7.0857,-7.1033,-7.1033,-7.1033,-7.1485,-7.1636,-7.1108,-7.1033,-7.0832,-7.028,-6.9752,-6.9361,-6.9361,-6.9401,-6.9401,-6.9361,-6.9361,-6.9361,-6.9361,-6.9361,-6.9361,-6.9361,-6.9361,-6.9361,-6.9361,-6.9361,-6.9361,-6.9361,-6.9361,-6.9361,-6.9361,-6.9361,-6.9361,-6.9361,-6.9361,-6.9361,-6.9361,-6.9361,-6.9361,-6.9361,-6.9361,-6.9361,-6.9361,-6.9361,-6.9361,-6.9361,-6.9361,-6.9361,-6.9361,-6.9361,-6.9361,-6.9361,-6.9361,-6.9361,-6.9361,-6.9451,-6.9853,-7.0405,-7.0983,-7.151,-7.1912,-7.1937,-7.2339,-7.274,-7.274,-7.274,-7.2916,-7.3468,-7.4046,-7.4598,-7.5126,-7.5703,-7.6055,-7.6055,-7.6055,-7.6055,-7.608,-7.608,-7.608,-7.608,-7.608,-7.608,-7.608,-7.608,-7.6331,-7.6883,-7.6908,-7.7436,-7.849,-7.854,-7.8817,-7.9394,-7.9394,-7.9394,-7.9394,-7.9394,-7.9394,-4.8723,0.0,0.0,0.0,0.0,0.0,-5.4963,-5.7549,-6.0035,-6.1918,-6.4329,-6.6513,-6.7995,-6.8899,-6.9461,-6.9853,-6.9903,-6.9903,-6.9903,-7.0029,-7.0079,-6.9928,-6.9903,-6.9828,-6.9677,-6.9526,-6.9361,-6.9361,-6.8698,-6.8597,-6.9401,-6.9361,-6.9361,-6.9361,-6.9361,-6.9361,-6.9361,-6.9361,-6.9361,-6.9361,-6.9361,-6.9361,-6.9361,-6.9361,-6.9361,-6.9361,-6.9361,-6.9361,-6.9361,-6.9361,-6.9361,-6.9361,-6.9361,-6.9361,-6.9361,-6.9361,-6.9361,-6.9361,-6.9361,-6.9361,-6.9361,-6.9361,-6.9361,-6.9361,-6.9361,-6.9361,-6.9361,-6.9361,-6.9361,-6.9526,-6.9928,-7.0154,-7.0506,-7.146,-7.1786,-7.2012,-7.2414,-7.2615,-7.274,-7.274,-7.274,-7.2791,-7.2941,-7.377,-7.4473,-7.4623,-7.5452,-7.6055,-7.6055,-7.6055,-7.6205,-7.6607,-7.6657,-7.6657,-7.6657,-7.6657,-7.6657,-7.6657,-7.6657,-7.6883,-7.7461,-7.7862,-7.8214,-7.8515,-7.8942,-7.9218,-7.9394,-7.9394,-7.9394,-7.9394,-7.9394,-7.9394,0.0,0.0,-4.933,-5.0046,0.0,0.0,-5.2854,-5.6018,-5.9006,-6.0512,-6.3877,-6.6589,-6.6739,-6.7467,-6.797,-6.7744,-6.7894,-6.8371,-6.93,-6.9361,-6.9361,-6.9361,-6.9361,-6.9361,-6.9361,-6.9361,-6.9361,-6.9361,-6.8848,-6.8773,-6.9401,-6.9361,-6.9361,-6.9361,-6.9361,-6.9361,-6.9361,-6.9361,-6.9361,-6.9361,-6.9361,-6.9361,-6.9361,-6.9361,-6.9361,-6.9361,-6.9361,-6.9361,-6.9361,-6.9361,-6.9361,-6.9361,-6.9361,-6.9361,-6.9361,-6.9361,-6.9361,-6.9361,-6.9361,-6.9361,-6.9361,-6.9361,-6.9361,-6.9361,-6.9361,-6.9361,-6.9361,-6.9361,-6.9602,-6.9903,-7.0455,-7.0782,-7.1158,-7.2037,-7.2238,-7.2339,-7.2665,-7.274,-7.274,-7.274,-7.274,-7.274,-7.274,-7.3669,-7.4423,-7.4423,-7.5352,-7.6055,-7.6055,-7.6055,-7.618,-7.6507,-7.6733,-7.6883,-7.6883,-7.7084,-7.721,-7.721,-7.721,-7.7461,-7.8013,-7.834,-7.8641,-7.8867,-7.9218,-7.9394,-7.9394,-7.9394,-7.9394,-7.9394,-7.9394,-7.9394,0.0,0.0,0.0,-5.1716,-5.0519,0.0,-5.2678,-5.6018,-5.8704,-5.9508,-6.4002,-6.7141,-6.5032,-6.5082,-6.5308,-6.4806,-6.5308,-6.6538,-6.8848,-6.9325,-6.9285,-6.92,-6.9325,-6.9361,-6.9361,-6.9361,-6.9361,-6.9361,-6.9361,-6.9361,-6.9361,-6.9361,-6.9361,-6.9361,-6.9361,-6.9361,-6.9361,-6.9361,-6.9361,-6.9361,-6.9361,-6.9361,-6.9361,-6.9361,-6.9361,-6.9361,-6.9361,-6.9361,-6.9361,-6.9361,-6.9361,-6.9361,-6.9361,-6.9361,-6.9361,-6.9361,-6.9361,-6.9361,-6.9361,-6.9361,-6.9361,-6.9361,-6.9361,-6.9361,-6.9361,-6.9361,-6.9361,-6.9361,-6.9803,-7.0305,-7.0932,-7.1435,-7.1962,-7.259,-7.274,-7.274,-7.274,-7.274,-7.274,-7.274,-7.2791,-7.2816,-7.2816,-7.377,-7.4498,-7.4498,-7.5402,-7.6055,-7.6055,-7.6055,-7.608,-7.613,-7.6632,-7.6959,-7.6959,-7.7486,-7.7787,-7.7787,-7.7787,-7.8038,-7.8591,-7.8616,-7.8867,-7.9369,-7.9394,-7.9394,-7.9394,-7.9394,-7.9394,-7.9394,-7.9394,-7.9394,0.0,0.0,0.0,0.0,-5.1122,0.0,-5.1021,-5.1649,-5.2854,-5.5189,-5.6646,-5.8127,-6.0236,-6.1065,-6.1416,-6.1316,-6.2521,-6.4404,-6.7091,-6.8597,-6.8949,-6.7618,-6.8622,-6.9361,-6.9361,-6.9361,-6.9361,-6.9361,-6.9361,-6.9361,-6.9361,-6.9361,-6.9361,-6.9361,-6.9361,-6.9361,-6.9361,-6.9361,-6.9361,-6.9361,-6.9361,-6.9361,-6.9361,-6.9361,-6.9361,-6.9361,-6.9361,-6.9361,-6.9361,-6.9361,-6.9361,-6.9361,-6.9361,-6.9361,-6.9361,-6.9361,-6.9361,-6.9361,-6.9361,-6.9361,-6.9361,-6.9361,-6.9361,-6.9361,-6.9361,-6.9361,-6.9361,-6.9361,-6.9526,-6.9828,-7.0832,-7.1158,-7.1485,-7.2489,-7.274,-7.274,-7.274,-7.274,-7.274,-7.274,-7.3117,-7.3418,-7.3418,-7.4347,-7.5075,-7.5075,-7.5628,-7.6055,-7.6055,-7.6055,-7.623,-7.6682,-7.721,-7.7536,-7.7536,-7.8038,-7.8365,-7.8365,-7.8365,-7.8616,-7.9193,-7.9218,-7.9269,-7.9394,-7.9394,-7.9394,-7.9394,-7.9394,-7.9394,-7.9394,-7.9394,-7.9394,0.0,0.0,0.0,-5.1766,-5.1498,0.0,0.0,-5.1925,-5.3206,-5.4336,-5.5867,-5.7123,-5.7399,-5.7901,-5.8278,-5.8278,-5.9207,-6.0613,-6.2596,-6.5936,-6.8221,-6.8221,-6.8949,-6.9361,-6.9361,-6.9361,-6.9361,-6.9361,-6.9361,-6.9361,-6.9361,-6.9361,-6.9361,-6.9361,-6.9361,-6.9361,-6.9361,-6.9361,-6.9361,-6.9361,-6.9361,-6.9361,-6.9361,-6.9361,-6.9361,-6.9361,-6.9361,-6.9361,-6.9361,-6.9361,-6.9361,-6.9361,-6.9361,-6.9361,-6.9361,-6.9361,-6.9361,-6.9361,-6.9361,-6.9361,-6.9361,-6.9361,-6.9361,-6.9361,-6.9361,-6.9361,-6.9361,-6.9361,-6.9652,-7.0029,-7.0857,-7.1284,-7.1711,-7.2539,-7.274,-7.274,-7.274,-7.274,-7.274,-7.274,-7.3192,-7.3594,-7.3594,-7.4498,-7.5251,-7.5251,-7.5703,-7.6055,-7.6055,-7.6055,-7.6155,-7.6431,-7.721,-7.7712,-7.7712,-7.8465,-7.8967,-7.8967,-7.8967,-7.9093,-7.9369,-7.9394,-7.9394,-7.9394,-7.9394,-7.9394,-7.9394,-7.9394,-7.9394,-7.9394,-7.9394,-7.9394,0.0,0.0,0.0,0.0,0.0,-5.195,0.0,0.0,0.0,-5.4059,-5.5968,-5.7072,-5.4838,-5.4787,-5.5089,-5.5089,-5.5742,-5.6671,-5.7901,-6.2119,-6.5634,-6.7191,-6.7568,-6.7719,-6.7844,-6.8346,-6.8874,-6.9401,-6.9361,-6.9361,-6.9361,-6.9361,-6.9361,-6.9361,-6.9361,-6.9361,-6.9361,-6.9361,-6.9361,-6.9361,-6.9361,-6.9361,-6.9361,-6.9361,-6.9361,-6.9361,-6.9361,-6.9361,-6.9361,-6.9361,-6.9361,-6.9361,-6.9361,-6.9361,-6.9361,-6.9361,-6.9361,-6.9361,-6.9361,-6.9361,-6.9361,-6.9361,-6.9361,-6.9361,-6.9361,-6.9361,-6.9361,-6.9361,-6.9828,-7.038,-7.0932,-7.1485,-7.2037,-7.259,-7.274,-7.274,-7.274,-7.274,-7.274,-7.274,-7.3293,-7.3745,-7.3745,-7.4573,-7.5276,-7.5377,-7.5854,-7.6205,-7.6205,-7.6205,-7.6205,-7.6205,-7.7109,-7.7712,-7.7712,-7.8741,-7.9394,-7.9394,-7.9394,-7.9394,-7.9394,-7.9394,-7.9394,-7.9394,-7.9394,-7.9394,-7.9394,-7.9394,-7.9394,-7.9394,-7.9394,-7.9394,0.0,0.0,0.0,-5.4662,-5.4612,-5.4411,-5.2452,0.0,-5.2327,-5.1774,0.0,-5.1348,-5.1046,0.0,0.0,-5.1071,-5.2377,-5.3959,-5.5541,-5.7148,-5.8604,-5.9759,-6.0763,-6.1567,-6.2069,-6.4329,-6.6789,-6.925,-6.9361,-6.9361,-6.9361,-6.9361,-6.9361,-6.9361,-6.9361,-6.9361,-6.9361,-6.9361,-6.9361,-6.9361,-6.9361,-6.9361,-6.9361,-6.9361,-6.9361,-6.9361,-6.9361,-6.9361,-6.9361,-6.9361,-6.9361,-6.9361,-6.9361,-6.9361,-6.9361,-6.9361,-6.9361,-6.9361,-6.9361,-6.9361,-6.9361,-6.9361,-6.9361,-6.9361,-6.9361,-6.9361,-6.9361,-6.9361,-6.9828,-7.038,-7.0932,-7.1485,-7.2037,-7.259,-7.274,-7.274,-7.274,-7.274,-7.274,-7.274,-7.3594,-7.4322,-7.4322,-7.4824,-7.5402,-7.5879,-7.6431,-7.6783,-7.6783,-7.6783,-7.6783,-7.6783,-7.7335,-7.7712,-7.7712,-7.8741,-7.9394,-7.9394,-7.9394,-7.9394,-7.9394,-7.9394,-7.9394,-7.9394,-7.9394,-7.9394,-7.9394,-7.9394,-7.9394,-7.9394,-7.9394,-7.9394,0.0,0.0,-5.7926,-5.7524,-5.6872,-5.6194,-5.5616,-5.3733,-5.2051,-5.18,0.0,0.0,0.0,0.0,0.0,0.0,-5.1222,-5.1825,-5.2854,-5.3406,-5.5064,-5.8704,-5.9834,-6.1165,-6.335,-6.2847,-6.3701,-6.6789,-6.7041,-6.7041,-6.7041,-6.8572,-6.9361,-6.9361,-6.9361,-6.9361,-6.9361,-6.9361,-6.9361,-6.9361,-6.9361,-6.9361,-6.9361,-6.9361,-6.9361,-6.9361,-6.9361,-6.9361,-6.9361,-6.9361,-6.9361,-6.9361,-6.9361,-6.9361,-6.9361,-6.9361,-6.9361,-6.9361,-6.9361,-6.9361,-6.9361,-6.9361,-6.9361,-6.9361,-6.9361,-6.9361,-6.9361,-6.9361,-6.9828,-7.038,-7.0932,-7.1485,-7.2037,-7.259,-7.274,-7.2816,-7.3167,-7.2966,-7.2916,-7.3594,-7.382,-7.4146,-7.4799,-7.5352,-7.5804,-7.603,-7.6532,-7.6758,-7.6431,-7.6682,-7.6883,-7.6883,-7.736,-7.7837,-7.8164,-7.8917,-7.9394,-7.9394,-7.9394,-7.9394,-7.9394,-7.9394,-7.9394,-7.9394,-7.9394,-7.9394,-7.9394,-7.9394,-7.9394,-7.9394,-7.9394,-7.9394,-6.0236,-6.0412,-6.0362,-5.9659,-5.8604,-5.7549,-5.6897,-5.4687,-5.2703,-5.2402,-5.2126,0.0,0.0,0.0,-5.0745,-5.0996,0.0,-5.0469,-5.0569,-5.072,-5.2427,-5.6721,-5.8403,-6.0136,-6.2571,-6.1441,-6.1567,-6.3977,-6.4856,-6.5283,-6.5283,-6.7945,-6.9361,-6.9361,-6.9361,-6.9361,-6.9361,-6.9361,-6.9361,-6.9361,-6.9361,-6.9361,-6.9361,-6.9361,-6.9361,-6.9361,-6.9361,-6.9361,-6.9361,-6.9361,-6.9361,-6.9361,-6.9361,-6.9361,-6.9361,-6.9361,-6.9361,-6.9361,-6.9361,-6.9361,-6.9361,-6.9361,-6.9361,-6.9361,-6.9361,-6.9361,-6.9476,-6.9627,-7.0054,-7.0606,-7.1158,-7.1711,-7.2238,-7.264,-7.274,-7.2841,-7.3268,-7.3142,-7.3217,-7.4021,-7.4121,-7.4297,-7.5101,-7.5578,-7.5879,-7.603,-7.6532,-7.6783,-7.6532,-7.6858,-7.7159,-7.731,-7.7687,-7.8088,-7.849,-7.9043,-7.9394,-7.9394,-7.9394,-7.9394,-7.9394,-7.9394,-7.9394,-7.9394,-7.9394,-7.9394,-7.9394,-7.9394,-7.9394,-7.9394,-7.9394,-7.9394,-6.4429,-6.468,-6.4178,-6.0437,-5.9458,-5.8428,-5.4687,-5.4185,-5.4185,-5.313,-5.3281,-5.3306,-5.2277,0.0,0.0,0.0,-5.0419,0.0,0.0,-4.9314,-5.0117,-5.1398,-5.4386,-5.6394,-5.6495,-5.9332,-6.119,-6.1316,-6.3776,-6.5283,-6.5283,-6.7945,-6.9361,-6.9361,-6.9361,-6.9361,-6.9361,-6.9361,-6.9361,-6.9361,-6.9361,-6.9361,-6.9361,-6.9361,-6.9361,-6.9361,-6.9361,-6.9361,-6.9361,-6.9361,-6.9361,-6.9361,-6.9361,-6.9361,-6.9361,-6.9361,-6.9361,-6.9361,-6.9361,-6.9361,-6.9361,-6.9361,-6.9361,-6.9361,-6.9361,-6.9361,-6.9551,-7.0079,-7.0631,-7.1184,-7.1736,-7.2288,-7.2715,-7.2715,-7.274,-7.274,-7.274,-7.3192,-7.3569,-7.3619,-7.4473,-7.5201,-7.5226,-7.5251,-7.5452,-7.5979,-7.6532,-7.7059,-7.7586,-7.7662,-7.7888,-7.8415,-7.849,-7.8515,-7.8515,-7.9043,-7.9394,-7.9394,-7.9394,-7.9394,-7.9394,-7.9394,-7.9394,-7.9394,-7.9394,-7.9394,-7.9394,-7.9394,-7.9394,-7.9394,-7.9394,-7.9394,-6.5886,-6.6262,-6.6086,-6.4781,-6.2797,-6.0713,-5.9031,-5.7097,-5.5139,-5.3306,-5.3934,0.0,0.0,0.0,0.0,0.0,0.0,-5.0167,0.0,-4.9791,-5.0419,-5.1197,-5.2277,-5.3959,-5.6495,-5.5114,-5.5114,-5.77,-5.8403,-5.8905,-5.9257,-6.4002,-6.6689,-6.6689,-6.8472,-6.9361,-6.9361,-6.9361,-6.9361,-6.9361,-6.9361,-6.9361,-6.9361,-6.9361,-6.9361,-6.9361,-6.9361,-6.9361,-6.9361,-6.9361,-6.9361,-6.9361,-6.9361,-6.9361,-6.9361,-6.9361,-6.9361,-6.9361,-6.9361,-6.9361,-6.9361,-6.9361,-6.9361,-6.9361,-6.9361,-6.9361,-6.9476,-6.9677,-7.038,-7.1133,-7.1309,-7.2037,-7.274,-7.274,-7.274,-7.2841,-7.3217,-7.3468,-7.382,-7.4548,-7.4975,-7.5352,-7.5728,-7.5778,-7.5979,-7.6507,-7.7059,-7.7486,-7.7687,-7.8013,-7.8314,-7.8515,-7.8515,-7.8666,-7.9068,-7.9269,-7.9394,-7.9394,-7.9394,-7.9394,-7.9394,-7.9394,-7.9394,-7.9394,-7.9394,-7.9394,-7.9394,-7.9394,-7.9394,-7.9394,-7.9394,-7.9394,-6.7568,-6.7844,-6.7668,-6.6865,-6.4906,-6.2873,-6.1743,-5.996,-5.8052,-5.6244,-5.7022,0.0,0.0,0.0,0.0,0.0,0.0,0.0,0.0,-4.9891,-5.0419,-5.1197,-5.2327,-5.3557,-5.4863,-5.3457,-5.2955,-5.4059,-5.5114,-5.5842,-5.6194,-6.1994,-6.5283,-6.5283,-6.7995,-6.9361,-6.9361,-6.9361,-6.9361,-6.9361,-6.9361,-6.9361,-6.9361,-6.9361,-6.9361,-6.9361,-6.9361,-6.9361,-6.9361,-6.9361,-6.9361,-6.9361,-6.9361,-6.9361,-6.9361,-6.9361,-6.9361,-6.9361,-6.9361,-6.9361,-6.9361,-6.9361,-6.9361,-6.9361,-6.9361,-6.9361,-6.9526,-6.9928,-7.0531,-7.1184,-7.156,-7.2188,-7.274,-7.274,-7.274,-7.2841,-7.3217,-7.3594,-7.4096,-7.4799,-7.5251,-7.5628,-7.5979,-7.6055,-7.618,-7.6532,-7.7059,-7.7486,-7.7687,-7.8189,-7.8591,-7.8817,-7.8842,-7.8992,-7.9344,-7.9394,-7.9394,-7.9394,-7.9394,-7.9394,-7.9394,-7.9394,-7.9469,-7.967,-7.9495,-7.9495,-7.967,-7.9495,-7.9394,-7.9394,-7.9394,-7.9394]},{"header":{"parameterUnit":"m.s-1","parameterCategory":1,"la1":30.6,"la2":29.2853,"lo1":-89.7004,"lo2":-87.6739,"dy":0.0162,"dx":0.0183,"nx":112,"ny":82,"refTime":"2024-04-27T12:00:00:Z","depth":0,"parameterNumber":3,"parameterNumberName":"V-component_of_WINDS"},"data":[0.0,0.0,0.0,0.0,0.0,0.0,0.0,0.0,0.0,0.0,0.0,0.0,0.0,0.0,0.0,0.0,0.0,0.0,0.0,0.0,0.0,0.0,0.0,0.0,0.0,0.0,0.0,0.0,0.0,0.0,0.0,0.0,0.0,0.0,0.0,0.0,0.0,0.0,0.0,0.0,0.0,0.0,0.0,0.0,0.0,0.0,0.0,0.0,0.0,0.0,0.0,0.0,0.0,0.0,0.0,0.0,0.0,0.0,0.0,0.0,0.0,0.0,0.0,0.0,0.0,0.0,0.0,0.0,0.0,0.0,0.0,0.0,0.0,0.0,0.0,0.0,0.0,0.0,0.0,0.0,0.0,0.0,0.0,0.0,0.0,0.0,0.0,0.0,0.0,0.0,7.1992,7.9104,8.4794,8.7523,8.6158,8.5839,8.2576,7.5384,0.0,0.0,0.0,0.0,0.0,0.0,0.0,0.0,0.0,0.0,0.0,0.0,0.0,0.0,0.0,0.0,0.0,0.0,0.0,0.0,0.0,0.0,0.0,0.0,0.0,0.0,0.0,0.0,0.0,0.0,0.0,0.0,0.0,0.0,0.0,0.0,0.0,0.0,0.0,0.0,0.0,0.0,0.0,0.0,0.0,0.0,0.0,0.0,0.0,0.0,0.0,0.0,0.0,0.0,0.0,0.0,0.0,0.0,0.0,0.0,0.0,0.0,0.0,0.0,0.0,0.0,0.0,0.0,0.0,0.0,0.0,0.0,0.0,0.0,0.0,0.0,0.0,0.0,0.0,0.0,0.0,0.0,0.0,0.0,0.0,0.0,0.0,0.0,0.0,0.0,0.0,0.0,0.0,0.0,0.0,0.0,0.0,0.0,0.0,0.0,0.0,0.0,0.0,0.0,7.5156,8.5403,8.7842,8.7987,8.6187,8.5026,8.168,7.5387,0.0,0.0,0.0,0.0,0.0,0.0,0.0,0.0,0.0,0.0,0.0,0.0,0.0,0.0,0.0,0.0,0.0,0.0,0.0,0.0,0.0,0.0,0.0,0.0,0.0,0.0,0.0,0.0,0.0,0.0,0.0,0.0,0.0,0.0,0.0,0.0,0.0,0.0,0.0,0.0,0.0,0.0,0.0,0.0,0.0,0.0,0.0,0.0,0.0,0.0,0.0,0.0,0.0,0.0,0.0,0.0,0.0,0.0,0.0,0.0,0.0,0.0,0.0,0.0,0.0,0.0,0.0,0.0,0.0,0.0,0.0,0.0,0.0,0.0,0.0,0.0,0.0,0.0,0.0,0.0,0.0,0.0,0.0,0.0,0.0,0.0,0.0,0.0,0.0,0.0,0.0,0.0,0.0,0.0,0.0,0.0,0.0,0.0,0.0,0.0,0.0,0.0,0.0,7.4692,8.0701,8.6768,8.7987,8.7726,8.6158,8.4823,8.1621,7.591,7.4435,0.0,0.0,0.0,0.0,0.0,0.0,0.0,0.0,0.0,0.0,0.0,0.0,0.0,0.0,0.0,0.0,0.0,0.0,0.0,0.0,0.0,0.0,0.0,0.0,0.0,0.0,0.0,0.0,0.0,0.0,0.0,0.0,0.0,0.0,0.0,0.0,0.0,0.0,0.0,0.0,0.0,0.0,0.0,0.0,0.0,0.0,0.0,0.0,0.0,0.0,0.0,0.0,0.0,0.0,0.0,0.0,0.0,0.0,0.0,0.0,0.0,0.0,0.0,0.0,0.0,0.0,0.0,0.0,0.0,0.0,0.0,0.0,0.0,0.0,0.0,0.0,0.0,0.0,0.0,0.0,0.0,0.0,0.0,0.0,0.0,0.0,0.0,0.0,0.0,0.0,0.0,0.0,0.0,0.0,0.0,0.0,0.0,0.0,0.0,0.0,0.0,0.0,8.078,8.4852,8.7377,8.7958,8.7523,8.5955,8.462,8.1455,7.5736,7.3816,0.0,0.0,0.0,0.0,0.0,0.0,0.0,0.0,0.0,0.0,0.0,0.0,0.0,0.0,0.0,0.0,0.0,0.0,0.0,0.0,0.0,0.0,0.0,0.0,0.0,0.0,0.0,0.0,0.0,0.0,0.0,0.0,0.0,0.0,0.0,0.0,0.0,0.0,0.0,0.0,0.0,0.0,0.0,0.0,0.0,0.0,0.0,0.0,0.0,0.0,0.0,0.0,0.0,0.0,0.0,0.0,0.0,0.0,0.0,0.0,0.0,0.0,0.0,0.0,0.0,0.0,0.0,0.0,0.0,0.0,0.0,0.0,0.0,0.0,0.0,0.0,0.0,0.0,0.0,0.0,0.0,0.0,0.0,0.0,0.0,0.0,0.0,0.0,0.0,0.0,0.0,0.0,0.0,0.0,0.0,0.0,0.0,0.0,0.0,0.0,0.0,0.0,8.0298,8.4881,8.9177,8.9148,8.7813,8.5374,8.3981,8.0481,7.3973,7.316,0.0,0.0,0.0,0.0,0.0,0.0,0.0,0.0,0.0,0.0,0.0,0.0,0.0,0.0,0.0,0.0,0.0,0.0,0.0,0.0,0.0,0.0,0.0,0.0,0.0,0.0,0.0,0.0,0.0,0.0,0.0,0.0,0.0,0.0,0.0,0.0,0.0,0.0,0.0,0.0,0.0,0.0,0.0,0.0,0.0,0.0,0.0,0.0,0.0,0.0,0.0,0.0,0.0,0.0,0.0,0.0,0.0,0.0,0.0,0.0,0.0,0.0,0.0,0.0,0.0,0.0,0.0,0.0,0.0,0.0,0.0,0.0,0.0,0.0,0.0,0.0,0.0,0.0,0.0,0.0,0.0,0.0,0.0,0.0,0.0,0.0,0.0,0.0,0.0,0.0,0.0,0.0,0.0,0.0,0.0,0.0,0.0,0.0,0.0,0.0,0.0,0.0,8.0454,8.5476,8.8829,8.8306,8.7,8.5229,8.3923,8.0701,7.4806,0.0,0.0,0.0,0.0,0.0,0.0,0.0,0.0,0.0,0.0,0.0,0.0,0.0,0.0,0.0,0.0,0.0,0.0,0.0,0.0,0.0,0.0,0.0,0.0,0.0,0.0,0.0,0.0,0.0,0.0,0.0,0.0,0.0,0.0,0.0,0.0,0.0,0.0,0.0,0.0,0.0,0.0,0.0,0.0,0.0,0.0,0.0,0.0,0.0,0.0,0.0,0.0,0.0,0.0,0.0,0.0,0.0,0.0,0.0,0.0,0.0,0.0,0.0,0.0,0.0,0.0,0.0,0.0,0.0,0.0,0.0,0.0,0.0,0.0,0.0,0.0,0.0,0.0,0.0,0.0,0.0,0.0,0.0,0.0,0.0,0.0,0.0,0.0,0.0,0.0,0.0,0.0,0.0,0.0,0.0,0.0,0.0,0.0,0.0,0.0,0.0,0.0,7.5272,8.1449,8.6422,8.8857,8.8013,8.656,8.4881,8.3604,8.0465,7.484,0.0,0.0,0.0,0.0,0.0,0.0,0.0,0.0,0.0,0.0,0.0,0.0,0.0,0.0,0.0,0.0,0.0,0.0,0.0,0.0,0.0,0.0,0.0,0.0,0.0,0.0,0.0,0.0,0.0,0.0,0.0,0.0,0.0,0.0,0.0,0.0,0.0,0.0,0.0,0.0,0.0,0.0,0.0,0.0,0.0,0.0,0.0,0.0,0.0,0.0,0.0,0.0,0.0,0.0,0.0,0.0,0.0,0.0,0.0,0.0,0.0,0.0,0.0,0.0,0.0,0.0,0.0,0.0,0.0,0.0,0.0,0.0,0.0,0.0,0.0,0.0,0.0,0.0,0.0,0.0,0.0,0.0,0.0,0.0,0.0,0.0,0.0,0.0,0.0,0.0,0.0,0.0,0.0,0.0,0.0,0.0,0.0,0.0,0.0,0.0,0.0,0.0,7.658,8.3027,8.7892,8.9377,8.8412,8.6693,8.4325,8.2907,7.9689,0.0,0.0,0.0,0.0,0.0,0.0,0.0,0.0,0.0,0.0,0.0,0.0,0.0,0.0,0.0,0.0,0.0,0.0,0.0,0.0,0.0,0.0,0.0,0.0,0.0,0.0,0.0,0.0,0.0,0.0,0.0,0.0,0.0,0.0,0.0,0.0,0.0,0.0,0.0,0.0,0.0,0.0,0.0,0.0,0.0,0.0,0.0,0.0,0.0,0.0,0.0,0.0,0.0,0.0,0.0,0.0,0.0,0.0,0.0,0.0,0.0,0.0,0.0,0.0,0.0,0.0,0.0,0.0,0.0,0.0,0.0,0.0,0.0,0.0,0.0,0.0,0.0,0.0,0.0,0.0,0.0,0.0,0.0,0.0,0.0,0.0,0.0,0.0,0.0,0.0,0.0,0.0,0.0,0.0,0.0,0.0,0.0,0.0,0.0,0.0,0.0,0.0,0.0,7.6741,8.2569,8.7127,8.9157,8.7498,8.5662,8.4036,8.2401,7.9539,7.4844,0.0,0.0,0.0,0.0,0.0,0.0,0.0,0.0,0.0,0.0,0.0,0.0,0.0,0.0,0.0,0.0,0.0,0.0,0.0,0.0,0.0,0.0,0.0,0.0,0.0,0.0,0.0,0.0,0.0,0.0,0.0,0.0,0.0,0.0,0.0,0.0,0.0,0.0,0.0,0.0,0.0,0.0,0.0,0.0,0.0,0.0,0.0,0.0,0.0,0.0,0.0,0.0,0.0,0.0,0.0,0.0,0.0,0.0,0.0,0.0,0.0,0.0,0.0,0.0,0.0,0.0,0.0,0.0,0.0,0.0,0.0,0.0,0.0,0.0,0.0,0.0,0.0,0.0,0.0,0.0,0.0,0.0,0.0,0.0,0.0,0.0,0.0,0.0,0.0,0.0,0.0,0.0,0.0,0.0,0.0,0.0,0.0,0.0,0.0,0.0,0.0,0.0,7.6699,8.2448,8.7022,8.8984,8.7145,8.5391,8.409,8.259,8.0271,7.6773,0.0,0.0,0.0,0.0,0.0,0.0,0.0,0.0,0.0,0.0,0.0,0.0,0.0,0.0,0.0,0.0,0.0,0.0,0.0,0.0,0.0,0.0,0.0,0.0,0.0,0.0,0.0,0.0,0.0,0.0,0.0,0.0,0.0,0.0,0.0,0.0,0.0,0.0,0.0,0.0,0.0,0.0,0.0,0.0,0.0,0.0,0.0,0.0,0.0,0.0,0.0,0.0,0.0,0.0,0.0,0.0,0.0,0.0,0.0,0.0,0.0,0.0,0.0,0.0,0.0,0.0,0.0,0.0,0.0,0.0,0.0,0.0,0.0,0.0,0.0,0.0,0.0,0.0,0.0,0.0,0.0,0.0,0.0,0.0,0.0,0.0,0.0,0.0,0.0,0.0,0.0,0.0,0.0,0.0,0.0,0.0,0.0,0.0,0.0,0.0,0.0,0.0,7.6574,8.2589,8.7157,8.8687,8.712,8.5534,8.4395,8.3106,8.1403,7.905,0.0,0.0,0.0,0.0,0.0,0.0,0.0,0.0,0.0,0.0,0.0,0.0,0.0,0.0,0.0,0.0,0.0,0.0,0.0,0.0,0.0,0.0,0.0,0.0,0.0,0.0,0.0,0.0,0.0,0.0,0.0,0.0,0.0,0.0,0.0,0.0,0.0,0.0,0.0,0.0,0.0,0.0,0.0,0.0,0.0,0.0,0.0,0.0,0.0,0.0,0.0,0.0,0.0,0.0,0.0,0.0,0.0,0.0,0.0,0.0,7.2036,6.7939,0.0,0.0,0.0,0.0,0.0,0.0,0.0,0.0,0.0,0.0,0.0,0.0,0.0,0.0,0.0,0.0,0.0,0.0,0.0,0.0,0.0,0.0,0.0,0.0,0.0,0.0,0.0,0.0,0.0,0.0,0.0,0.0,0.0,0.0,0.0,0.0,0.0,0.0,0.0,0.0,7.7203,8.2469,8.6479,8.7814,8.641,8.4803,8.3488,8.2348,8.0928,7.902,7.9419,0.0,0.0,0.0,0.0,0.0,0.0,0.0,0.0,0.0,0.0,0.0,0.0,0.0,0.0,0.0,0.0,0.0,0.0,0.0,0.0,0.0,0.0,0.0,0.0,0.0,0.0,0.0,0.0,0.0,0.0,0.0,0.0,0.0,0.0,0.0,0.0,0.0,0.0,0.0,0.0,0.0,0.0,0.0,0.0,0.0,0.0,0.0,0.0,0.0,0.0,0.0,0.0,0.0,0.0,0.0,0.0,0.0,0.0,0.0,7.6504,7.3644,0.0,0.0,0.0,0.0,0.0,0.0,0.0,0.0,0.0,0.0,0.0,0.0,0.0,0.0,0.0,0.0,0.0,0.0,0.0,0.0,0.0,0.0,0.0,0.0,0.0,0.0,0.0,0.0,0.0,0.0,0.0,0.0,0.0,0.0,0.0,0.0,0.0,0.0,0.0,0.0,7.6963,8.1961,8.5851,8.7526,8.635,8.4969,8.3985,8.3068,8.2017,8.084,8.0525,0.0,0.0,0.0,0.0,0.0,0.0,0.0,0.0,0.0,0.0,0.0,0.0,0.0,0.0,0.0,0.0,0.0,0.0,0.0,0.0,0.0,0.0,0.0,0.0,0.0,0.0,0.0,0.0,0.0,0.0,0.0,0.0,0.0,0.0,0.0,0.0,0.0,0.0,0.0,0.0,0.0,0.0,0.0,0.0,0.0,0.0,0.0,0.0,0.0,0.0,0.0,0.0,0.0,7.8609,8.0045,8.217,8.1601,8.1063,8.0644,8.2142,8.0863,7.7865,7.8401,0.0,0.0,0.0,0.0,0.0,0.0,0.0,0.0,0.0,0.0,0.0,0.0,0.0,0.0,0.0,0.0,0.0,0.0,0.0,0.0,0.0,0.0,7.3851,7.6066,7.5826,7.5108,7.5138,0.0,0.0,0.0,0.0,0.0,0.0,0.0,0.0,0.0,0.0,0.0,7.6185,8.1212,8.5162,8.6838,8.6,8.5073,8.4414,8.3876,8.3337,8.2798,8.1338,8.0073,0.0,0.0,0.0,0.0,0.0,0.0,0.0,0.0,0.0,0.0,0.0,0.0,0.0,0.0,0.0,0.0,0.0,0.0,0.0,0.0,0.0,0.0,0.0,0.0,0.0,0.0,0.0,0.0,0.0,0.0,0.0,0.0,6.3503,6.808,0.0,0.0,0.0,0.0,0.0,0.0,0.0,0.0,0.0,0.0,0.0,0.0,0.0,7.6724,7.8639,8.1721,8.3128,8.2858,8.5731,8.7317,8.7646,8.7556,8.7467,8.7407,8.7655,0.0,8.0331,8.0421,0.0,0.0,0.0,0.0,0.0,0.0,0.0,0.0,0.0,0.0,0.0,0.0,0.0,0.0,0.0,0.0,0.0,0.0,0.0,0.0,0.0,0.0,8.2978,8.3337,8.1601,8.0644,8.3427,7.5557,6.8824,7.1697,6.9931,6.8016,0.0,0.0,0.0,0.0,0.0,0.0,7.5018,8.0225,8.3965,8.4235,8.4085,8.3726,8.3068,8.2948,8.2858,8.2769,8.3746,8.2377,7.8205,8.3271,0.0,0.0,0.0,0.0,0.0,0.0,0.0,0.0,0.0,0.0,0.0,0.0,0.0,0.0,0.0,0.0,0.0,0.0,0.0,0.0,0.0,0.0,0.0,0.0,0.0,0.0,0.0,0.0,0.0,6.5827,6.9754,7.1979,7.2313,7.0837,0.0,0.0,0.0,0.0,0.0,0.0,0.0,0.0,0.0,7.8938,8.0135,8.1482,8.3098,8.5671,8.7347,8.8185,8.9651,9.0938,9.2015,9.2015,9.2015,9.2015,9.2015,9.0279,8.7257,8.5043,8.2469,7.9567,0.0,0.0,0.0,0.0,7.2116,7.3253,7.5736,7.6933,7.7562,7.8968,0.0,0.0,0.0,0.0,0.0,0.0,0.0,7.433,7.6155,7.9836,8.3517,8.5372,8.5252,8.4983,8.603,8.0135,7.4958,7.6006,7.418,7.1816,6.9842,7.044,0.0,0.0,0.0,7.6485,7.7532,8.1212,8.3876,8.4235,8.4295,8.4025,8.3367,8.3307,8.3158,8.2769,8.3386,8.2796,8.0718,8.3307,8.2427,0.0,0.0,0.0,0.0,0.0,0.0,0.0,0.0,0.0,0.0,0.0,0.0,0.0,0.0,0.0,0.0,0.0,0.0,0.0,0.0,0.0,0.0,0.0,0.0,0.0,0.0,0.0,0.0,7.1146,7.4575,7.5587,7.6599,7.528,0.0,0.0,0.0,0.0,0.0,0.0,7.7831,7.8968,8.0794,8.3487,8.4983,8.6479,8.7975,8.9471,9.0938,9.2374,9.2374,9.3152,9.4618,9.4618,9.4618,9.4618,9.4618,9.405,9.2853,8.9382,8.603,8.2888,8.1033,7.8519,7.6066,7.7053,7.7741,7.8609,8.1721,8.2798,8.3038,8.4325,8.1961,7.846,7.7771,0.0,0.0,0.0,0.0,7.6006,7.8639,8.1422,8.4175,8.6599,8.7586,8.7826,8.7287,8.3696,8.0464,8.0135,7.8071,7.5497,7.2684,7.3432,0.0,7.1936,7.5318,7.837,7.9208,8.1751,8.3666,8.4175,8.4205,8.4025,8.3517,8.3487,8.3277,8.2798,8.2844,8.2844,8.2844,8.2844,8.2018,8.0416,0.0,0.0,0.0,0.0,0.0,0.0,0.0,0.0,0.0,0.0,0.0,0.0,0.0,0.0,0.0,0.0,0.0,0.0,0.0,0.0,0.0,0.0,0.0,0.0,0.0,0.0,0.0,0.0,0.0,7.9045,8.2888,0.0,0.0,0.0,0.0,7.5707,7.8011,8.0674,8.3187,8.3995,8.6419,9.0938,9.1177,9.2165,9.4139,9.4259,9.4349,9.4469,9.4469,9.4499,9.4618,9.4618,9.4618,9.4618,9.4618,9.4558,9.4349,9.2224,9.0519,8.8903,8.5671,8.4295,8.3906,8.214,8.2679,8.4384,8.5222,8.6718,8.8215,8.7676,8.4384,8.0165,7.7652,7.5467,0.0,0.0,7.7053,7.9716,8.0494,8.4504,8.8364,8.8544,8.8604,8.8634,8.8604,8.5432,8.2798,8.3367,8.0345,7.7861,7.828,0.0,7.7412,7.424,7.6604,7.8549,7.7981,8.0764,8.2828,8.2858,8.2858,8.2828,8.2828,8.2828,8.2798,8.2844,8.2844,8.2844,8.2844,8.2844,8.2754,8.265,8.0518,0.0,0.0,0.0,0.0,0.0,0.0,0.0,0.0,0.0,0.0,0.0,0.0,0.0,0.0,0.0,0.0,0.0,0.0,0.0,0.0,0.0,0.0,0.0,0.0,0.0,0.0,0.0,0.0,8.1332,8.4444,0.0,8.1931,8.226,8.22,8.1033,8.4175,8.6928,8.8723,8.9441,9.0938,9.3451,9.3541,9.39,9.4588,9.4618,9.4618,9.4618,9.4618,9.4618,9.4618,9.4618,9.4618,9.4618,9.4618,9.4618,9.4558,9.384,9.2494,9.0728,8.8693,8.7646,8.7287,8.7437,8.8185,8.9322,9.0399,9.0698,9.0249,8.8334,8.6299,8.4325,8.2948,8.205,8.1542,8.1781,8.2978,8.4384,8.5073,8.6629,8.8155,8.8574,8.8693,8.8574,8.8155,8.627,8.4594,8.4414,8.1871,7.9686,7.9477,8.0494,8.0524,7.8071,7.9776,8.1272,8.1033,8.202,8.2844,8.2844,8.2844,8.2844,8.2844,8.2844,8.2844,8.2844,8.2844,8.2844,8.2844,8.2844,8.2844,8.2844,8.2018,8.03,0.0,0.0,0.0,0.0,0.0,0.0,0.0,0.0,0.0,0.0,0.0,0.0,0.0,0.0,0.0,0.0,0.0,0.0,0.0,0.0,0.0,0.0,0.0,0.0,0.0,7.6185,8.1272,8.3487,8.6479,8.7556,8.5581,8.5791,8.615,8.6389,8.9232,9.1476,9.2554,9.3032,9.3691,9.4588,9.4618,9.4618,9.4618,9.4618,9.4618,9.4618,9.4618,9.4618,9.4618,9.4618,9.4618,9.4618,9.4618,9.4618,9.4618,9.4618,9.384,9.2554,9.1656,9.1057,9.0788,9.1656,9.2254,9.2733,9.3361,9.2733,9.1297,8.9322,8.7766,8.6599,8.615,8.5881,8.5731,8.597,8.6659,8.7526,8.8185,8.8544,8.8693,8.8693,8.8514,8.8125,8.7227,8.5791,8.4654,8.4414,8.2798,8.1242,8.0584,8.1392,8.1661,8.0345,8.0883,8.1512,8.1751,8.1961,8.211,8.211,8.2499,8.2844,8.2844,8.214,8.205,8.2709,8.214,8.205,8.2739,8.1901,8.1422,8.1422,8.0345,7.922,7.7968,0.0,0.0,0.0,0.0,0.0,0.0,0.0,0.0,0.0,0.0,0.0,0.0,0.0,0.0,0.0,0.0,0.0,0.0,0.0,0.0,0.0,0.0,0.0,7.3013,7.9327,8.4325,8.5731,8.9322,9.0968,8.9052,9.001,9.1027,9.1656,9.2883,9.39,9.4588,9.4648,9.4678,9.4678,9.4678,9.4678,9.4678,9.4618,9.4618,9.4618,9.4618,9.4618,9.4618,9.4618,9.4618,9.4618,9.4618,9.4618,9.4618,9.4618,9.4618,9.4618,9.4618,9.4618,9.4618,9.4618,9.4618,9.4499,9.381,9.2733,9.1566,9.0878,8.8903,8.6748,8.6748,8.6299,8.591,8.6569,8.7706,8.8903,8.9531,9.013,9.0249,8.8963,8.8125,8.7287,8.594,8.4145,8.2978,8.3606,8.3217,8.2559,8.1931,8.1272,8.0853,8.0853,7.9746,0.0,7.9836,8.0464,8.0853,8.0853,8.1991,8.2814,8.2844,8.1003,8.0704,8.2649,8.0973,8.0764,8.2679,8.0285,7.8908,7.8908,7.5746,7.6048,7.9909,0.0,0.0,0.0,0.0,0.0,0.0,0.0,0.0,0.0,0.0,0.0,0.0,0.0,0.0,0.0,0.0,0.0,0.0,0.0,0.0,0.0,7.4599,7.837,7.9238,8.3098,8.6898,8.9651,9.2254,9.3571,9.3032,9.3302,9.3601,9.378,9.4139,9.4409,9.4588,9.5516,9.6025,9.6025,9.6025,9.6025,9.6025,9.5097,9.4618,9.4618,9.4618,9.4618,9.4618,9.4618,9.4618,9.4618,9.4618,9.4618,9.4618,9.4618,9.4618,9.4618,9.4618,9.4618,9.4618,9.4618,9.4618,9.4439,9.3272,9.2943,9.2853,9.1716,9.0219,8.8753,8.8274,8.8005,8.7885,8.8095,8.9082,9.013,9.0309,8.9801,8.9023,8.8185,8.7077,8.603,8.5162,8.4175,8.3517,8.3696,8.3217,8.2784,8.2529,8.235,8.223,8.223,8.1901,8.1751,8.1931,8.211,8.223,8.223,8.211,8.223,8.2709,8.1841,8.1661,8.2709,8.226,8.22,8.2814,8.205,8.1661,8.1661,7.9405,7.8316,0.0,0.0,0.0,0.0,0.0,0.0,0.0,0.0,0.0,0.0,0.0,0.0,0.0,0.0,0.0,0.0,0.0,0.0,0.0,0.0,0.0,0.0,7.9656,8.3965,8.603,8.7706,8.9771,9.2554,9.39,9.4618,9.4618,9.4618,9.4618,9.4618,9.4618,9.4618,9.4618,9.5336,9.5995,9.6563,9.6025,9.6025,9.6563,9.5277,9.4618,9.4618,9.4618,9.4618,9.4618,9.4618,9.4618,9.4618,9.4618,9.4618,9.4618,9.4618,9.4618,9.4618,0.0,0.0,0.0,0.0,9.4618,9.4409,9.3062,9.2853,9.2913,9.1327,9.01,8.9142,8.8484,8.8065,8.7915,8.8185,8.8813,8.9471,8.9741,8.9052,8.8035,8.7077,8.606,8.5043,8.4085,8.3397,8.3008,8.3277,8.2798,0.0,8.2709,8.229,8.1931,8.1931,8.1452,8.1212,8.1482,8.1781,8.1931,8.1931,8.208,8.235,8.2814,8.1661,0.0,0.0,0.0,8.1392,8.1123,8.1093,0.0,0.0,0.0,7.7538,7.7801,7.6691,0.0,0.0,7.5248,7.3462,0.0,0.0,0.0,0.0,0.0,0.0,0.0,0.0,0.0,0.0,0.0,0.0,0.0,0.0,0.0,0.0,8.4714,8.8544,9.2314,9.2314,9.2613,9.4409,9.4618,9.4618,9.4618,9.4618,9.4618,9.4618,9.4618,9.4618,9.4618,9.4738,0.0,0.0,0.0,9.5396,9.6563,9.5277,9.4618,9.4618,9.4618,9.4618,9.4618,9.4618,9.4618,9.4618,9.4618,9.4618,9.4618,9.4618,9.4618,9.4618,9.4618,9.4618,9.4588,9.4528,9.4499,9.4319,9.2943,0.0,0.0,9.0279,8.9232,8.8574,8.7915,8.7317,8.7018,8.7556,8.7826,8.8035,8.8454,8.8095,8.7257,8.591,8.5073,8.4265,8.3038,8.229,8.205,8.2649,8.229,8.208,8.2649,8.1781,8.1033,8.1033,8.0016,7.9477,8.0075,8.0674,8.1033,8.1033,8.1991,0.0,8.2814,8.1093,8.0823,8.2649,8.1123,7.9866,7.9267,7.9238,7.7861,7.4958,7.4899,7.6036,7.837,7.837,7.9896,8.2694,7.6754,7.5587,0.0,0.0,0.0,0.0,0.0,0.0,0.0,0.0,0.0,0.0,0.0,0.0,0.0,0.0,0.0,8.4833,8.8424,9.1506,9.39,9.411,9.4169,9.4558,9.4618,9.4618,9.4618,9.4618,9.4618,9.4618,9.4618,9.4618,9.4618,9.5606,9.6324,9.6563,9.6324,9.6324,9.6563,9.5277,9.4618,9.4618,9.4618,0.0,9.4618,9.4618,9.4618,9.4618,9.4618,9.4618,9.4618,9.4618,9.4618,9.4618,9.4618,9.4618,9.4528,9.399,9.378,9.3601,9.2254,9.1805,9.1566,9.013,8.9232,8.8574,8.7915,8.7975,0.0,8.7826,8.8454,8.9082,8.8125,8.7377,8.6539,8.5222,8.4414,8.3696,8.2918,8.2649,8.2619,8.2739,8.2649,8.2619,8.2814,8.2559,8.238,8.238,8.217,8.205,8.217,8.229,8.238,8.238,8.214,8.217,8.2709,8.1931,8.1781,8.2784,8.2409,8.214,8.1991,8.1991,8.1691,8.1063,8.1063,8.1302,8.1811,8.1811,8.214,8.2814,8.1452,8.1212,0.0,0.0,0.0,0.0,0.0,0.0,0.0,0.0,0.0,0.0,0.0,7.5796,7.8789,0.0,8.5611,8.8245,9.1446,9.384,9.4528,9.4618,9.4618,9.4618,9.4618,9.4618,9.4618,9.4618,9.4618,9.4618,9.4618,9.4618,9.4618,9.5247,9.5905,9.6563,9.5935,9.5905,9.6563,9.5277,9.4618,9.4618,9.4618,9.4618,9.4618,9.4618,9.4618,9.4618,9.4618,9.4618,9.4618,9.4618,9.4618,9.4618,9.4618,9.4618,9.4558,9.4229,9.387,9.3451,9.2464,9.1686,9.0908,8.9591,8.8723,8.8125,8.7796,8.7467,8.7257,8.7616,8.7706,8.7616,8.7287,8.6449,8.5521,8.4863,8.3965,8.3158,8.2828,8.2844,8.2844,8.2844,8.2844,8.2844,8.2844,8.2844,8.2844,8.2844,8.2844,8.2844,8.2844,8.2844,8.2844,8.2844,8.2469,8.2409,8.2739,8.2469,8.2409,8.2814,8.2844,8.2844,8.2844,8.2844,8.2844,8.2844,8.2844,8.2844,8.2844,8.2844,8.2844,8.2844,8.2844,8.2844,0.0,0.0,0.0,0.0,0.0,0.0,0.0,7.5138,7.6036,7.7652,7.8609,8.0225,8.3816,8.7107,8.9741,9.1177,9.3661,9.5217,9.4678,9.4618,9.4618,9.4618,9.4618,9.4618,9.4618,9.4618,9.4618,9.4618,9.4618,9.4618,9.4618,9.4618,9.5097,9.6144,9.5157,9.5127,9.6174,9.5127,9.4618,9.4618,9.4618,9.4618,9.4618,9.4618,9.4618,9.4618,9.4618,9.4618,9.4618,9.4618,9.4618,9.4618,9.4618,9.4618,9.4588,9.4469,9.399,9.3302,9.2643,9.1626,9.0429,8.9262,8.8424,8.7885,8.7736,8.6958,8.6299,8.7227,8.6718,8.594,8.621,8.5402,8.4504,8.4354,8.3547,8.2844,8.2844,8.2844,8.2844,8.2844,8.2844,8.2844,8.2844,8.2844,8.2844,8.2844,8.2844,8.2844,8.2844,8.2844,8.2844,8.2844,8.2844,8.2844,8.2844,8.2844,8.2844,8.2844,8.2844,8.2844,8.2844,8.2844,8.2844,8.2844,8.2844,8.2844,8.2844,8.2844,8.2844,8.2844,8.2844,8.2844,7.1098,6.7956,6.7717,7.1158,7.3791,7.6485,0.0,8.3038,8.5192,8.5432,8.6479,8.8035,9.0219,9.0997,9.1925,9.384,9.4469,9.4708,9.4618,9.4618,9.4618,9.4618,9.4618,9.4618,9.4618,9.4618,9.4618,9.4618,9.4618,9.4618,9.4618,9.4618,9.4678,9.4828,9.4678,9.4678,9.4828,9.4678,9.4618,9.4618,9.4618,9.4618,9.4618,9.4618,9.4618,9.4618,9.4618,9.4618,9.4618,9.4618,9.4618,9.4618,9.4618,9.4618,9.4528,9.393,9.3272,9.2613,9.1955,9.1237,9.0519,8.9801,8.9112,8.8454,8.7885,8.7616,8.7377,8.6928,8.6689,8.6299,8.5222,8.4384,8.3696,8.3128,8.2858,8.2844,8.2844,8.2844,8.2844,8.2844,8.2844,8.2844,8.2844,8.2844,8.2844,8.2844,8.2844,8.2844,8.2844,8.2844,8.2844,8.2844,8.2844,8.2844,8.2844,8.2844,8.2844,8.2844,8.2844,8.2844,8.2844,8.2844,8.2844,8.2844,8.2844,8.2844,8.2844,8.2844,8.2844,8.2844,8.2844,8.2844,7.2864,7.2624,7.4031,7.6455,7.9357,8.235,8.5162,8.6868,8.8155,8.9322,9.001,9.0997,9.3002,9.3661,9.408,9.4528,9.4917,9.5037,9.4648,9.4618,9.4618,9.4618,9.4618,9.4917,9.5666,9.5067,9.4917,9.5695,9.5037,9.4618,9.4618,9.4618,9.4618,9.4618,9.4618,9.4618,9.4618,9.4618,9.4618,9.4618,9.4618,9.4618,9.4618,9.4618,9.4618,9.4618,9.4618,9.4618,9.4618,9.4618,9.4618,9.4618,9.4618,9.4379,9.399,9.3691,9.3152,9.2494,9.1835,9.0698,8.9531,8.9621,8.8693,8.7616,8.8125,8.7736,8.7048,8.6748,8.6389,8.5881,8.4953,8.4235,8.3666,8.3397,8.3038,8.2844,8.2844,8.2844,8.2844,8.2844,8.2844,8.2844,8.2844,8.2844,8.2844,8.2844,8.2844,8.2844,8.2844,8.2844,8.2844,8.2844,8.2844,8.2844,8.2844,8.2844,8.2844,8.2844,8.2844,8.2844,8.2844,8.2844,8.2844,8.2844,8.2844,8.2844,8.2844,8.2844,8.2844,8.2844,8.2844,8.2844,7.4091,7.5886,7.831,8.0734,8.3666,8.6569,8.8963,8.9621,9.0279,9.2075,9.2434,9.2883,9.4349,9.5007,9.5157,9.4678,9.5007,9.5157,9.4678,9.4618,9.4349,9.3601,9.3511,9.402,9.5366,9.4947,9.5007,9.5965,9.5157,9.4618,9.4618,9.4618,9.4618,9.4618,9.4618,9.4618,9.4618,9.4618,9.4618,9.4618,9.4618,9.4618,9.4618,9.4618,9.4618,9.4618,9.4618,9.4618,9.4618,9.4618,9.4618,9.4588,9.4409,9.402,9.3541,9.3182,9.2733,9.2224,9.1566,9.0399,8.9292,8.9561,8.8574,8.7377,8.8185,8.7467,8.6389,8.6389,8.5791,8.5043,8.4564,8.3965,8.3457,8.3457,8.3098,8.2844,8.2844,8.2844,8.2844,8.2844,8.2844,8.2844,8.2844,8.2844,8.2844,8.2844,8.2844,8.2844,8.2844,8.2844,8.2844,8.2844,8.2844,8.2844,8.2844,8.2844,8.2844,8.2844,8.2844,8.2844,8.2844,8.2844,8.2844,8.2844,8.2844,8.2844,8.2844,8.2844,8.2844,8.2844,8.2844,8.2844,7.4151,7.4929,7.6245,8.1422,8.4684,8.7496,9.0788,9.2015,9.2883,9.4229,9.4528,9.4528,9.4588,9.4618,9.4618,9.4618,9.4618,9.4618,9.4618,9.4618,9.3661,9.1057,9.0758,9.1267,9.2583,9.387,9.4618,9.4678,9.4618,9.4618,9.4618,9.4618,9.4618,9.4618,9.4618,9.4618,9.4618,9.4618,9.4618,9.4618,9.4618,9.4618,9.4618,9.4618,9.4618,9.4618,9.4618,9.4618,9.4618,9.4618,9.4618,9.4558,9.387,9.3601,9.3421,9.2135,9.1656,9.1566,9.0908,9.0638,9.0489,8.986,8.9202,8.8514,8.7915,8.6778,8.5731,8.5731,8.4803,8.3786,8.3786,8.3277,8.2798,8.2798,8.2769,8.2844,8.2844,8.2844,8.2844,8.2844,8.2844,8.2844,8.2844,8.2844,8.2844,8.2844,8.2844,8.2844,8.2844,8.2844,8.2844,8.2844,8.2844,8.2844,8.2844,8.2844,8.2844,8.2844,8.2844,8.2844,8.2844,8.2844,8.2844,8.2844,8.2844,8.2844,8.2844,8.2844,8.2844,8.2844,8.2844,8.2844,7.2595,7.6395,8.1482,8.4594,8.7676,9.0608,9.3032,9.378,9.408,9.4528,9.3541,9.2613,9.2613,9.2284,9.2105,9.2554,9.411,9.5097,9.4678,9.6114,9.5905,9.2374,9.3122,9.3571,9.2673,9.2224,9.3062,9.5725,9.5097,9.4618,9.4618,9.4618,9.4618,9.4618,9.4618,9.4618,9.4618,9.4618,9.4618,9.4618,9.4618,9.4618,9.4618,9.4618,9.4618,9.4618,9.4618,9.4618,9.4618,9.4618,9.4349,9.39,9.3661,9.3062,9.2224,9.1776,9.1327,9.0938,9.0728,9.007,8.9382,8.9591,8.8604,8.7407,8.7616,8.6748,8.5611,8.5162,8.4414,8.3636,8.3217,8.2918,8.2844,8.2844,8.2844,8.2844,8.2844,8.2844,8.2844,8.2844,8.2844,8.2844,8.2844,8.2844,8.2844,8.2844,8.2844,8.2844,8.2844,8.2844,8.2844,8.2844,8.2844,8.2844,8.2844,8.2844,8.2844,8.2844,8.2844,8.2844,8.2844,8.2844,8.2844,8.2844,8.2844,8.2844,8.2844,8.2844,8.2844,8.2844,8.2844,8.2844,7.4809,7.9686,8.5372,8.7826,9.0399,9.2733,9.4259,9.4618,9.4409,9.3691,9.2524,9.1267,9.007,8.9112,8.9052,9.0668,9.1955,9.3212,9.4439,9.6055,9.5815,9.2314,9.3032,9.3302,9.2015,9.1147,9.2194,9.5935,9.5666,9.5217,9.4977,9.5187,9.5097,9.4618,9.4618,9.4618,9.4618,9.4618,9.4618,9.4618,9.4618,9.4618,9.4618,9.4618,9.4469,9.4259,9.4499,9.4469,9.4259,9.4499,9.4199,9.3571,9.3332,9.2583,9.1596,9.1357,9.0997,9.0638,9.0638,9.007,8.9382,8.9322,8.8454,8.7347,8.7077,8.6389,8.5551,8.4893,8.4235,8.3636,8.3217,8.2948,8.2844,8.2844,8.2844,8.2844,8.2844,8.2844,8.2844,8.2844,8.2844,8.2844,8.2844,8.2844,8.2844,8.2844,8.2844,8.2844,8.2844,8.2844,8.2844,8.2844,8.2844,8.2844,8.2844,8.2844,8.2844,8.2844,8.2844,8.2844,8.2844,8.2844,8.2844,8.2844,8.2844,8.2844,8.2844,8.2844,8.2844,8.2844,8.2844,8.2844,8.0375,8.4414,8.7736,9.0938,9.2673,9.381,9.4409,9.4499,9.387,9.1746,9.1177,9.004,8.6748,8.5252,8.5581,8.8843,8.8604,8.9561,9.408,9.4768,9.384,9.1147,9.0878,9.0848,9.0758,9.0758,9.2135,9.5366,9.6144,9.6204,9.5576,9.6144,9.5905,9.4648,9.4618,9.4618,9.4618,9.4618,9.4618,9.4618,9.4618,9.4618,9.4618,9.4618,9.4259,9.3661,9.4319,9.4229,9.3691,9.4289,9.4139,9.3451,9.2793,9.2135,9.1506,9.0878,9.0608,9.0579,9.0579,9.0579,9.0339,8.9052,8.8604,8.8215,8.6329,8.5731,8.5551,8.4893,8.4235,8.3726,8.3696,8.3217,8.2844,8.2844,8.2769,8.2828,8.2828,8.2828,8.2828,8.2828,8.2769,8.2844,8.2844,8.2844,8.2844,8.2844,8.2844,8.2844,8.2844,8.2844,8.2844,8.2844,8.2844,8.2844,8.2844,8.2844,8.2844,8.2844,8.2844,8.2844,8.2844,8.2844,8.2844,8.2844,8.2844,8.2844,8.2844,8.2844,8.2844,8.2844,8.2844,8.2844,8.3158,8.7437,9.1416,9.2733,9.3721,9.4259,9.393,9.3092,9.1386,8.7915,8.5252,8.2559,7.9267,8.0375,8.2559,8.4863,8.9082,9.3002,9.5695,9.6922,9.6563,9.39,9.402,9.375,9.2254,9.2554,9.3601,9.5456,9.5306,9.5037,9.4858,9.5007,9.4947,9.4618,9.4618,9.4618,9.4618,9.4618,9.4618,9.4618,9.4618,9.4618,9.4618,9.4618,9.4528,9.4349,9.4528,9.4499,9.4319,9.399,9.3451,9.2793,9.2135,9.1476,9.0878,9.0698,9.0339,8.992,8.992,8.9591,8.9052,8.8215,8.7616,8.7077,8.6569,8.609,8.5551,8.4893,8.4235,8.3636,8.3128,8.2888,8.2844,8.2844,8.3128,8.3487,8.3487,8.3487,8.3487,8.3487,8.3098,8.2844,8.2844,8.2844,8.2844,8.2844,8.2844,8.2844,8.2844,8.2844,8.2844,8.2844,8.2844,8.2844,8.2844,8.2844,8.2844,8.2844,8.2844,8.2844,8.2844,8.2844,8.2844,8.2844,8.2844,8.2844,8.2844,8.2844,8.2844,8.2844,8.2844,8.2844,8.6958,9.0174,9.2866,9.3224,9.3403,9.2899,9.1165,8.9815,8.7736,8.3158,8.0524,7.813,7.5138,7.7053,7.9986,8.2858,8.7377,9.1985,9.5995,9.7192,9.7132,9.5636,9.5785,9.5366,9.3631,9.381,9.4349,9.5097,9.5366,9.5336,9.5037,9.5306,9.5217,9.4618,9.4618,9.4618,9.4618,9.4618,9.4618,9.4618,9.4618,9.4618,9.4618,9.4618,9.4439,9.4169,9.4469,9.4439,9.4139,9.375,9.3182,9.2524,9.1865,9.1207,9.0638,9.0638,9.0219,8.9621,8.9322,8.8813,8.8185,8.7826,8.7437,8.7018,8.6419,8.618,8.6,8.5342,8.4863,8.4444,8.3786,8.3606,8.3547,8.3247,8.3457,8.3816,8.4115,8.3726,8.3307,8.3307,8.3008,8.2844,8.2844,8.2844,8.2844,8.2844,8.2844,8.2844,8.2844,8.2844,8.2844,8.2844,8.2844,8.2844,8.2844,8.2844,8.2844,8.2844,8.2844,8.2844,8.2844,8.2844,8.2844,8.2844,8.2844,8.2844,8.2844,8.2844,8.2844,8.2844,8.2844,8.2844,9.0758,9.2303,9.2882,9.2882,9.2318,9.0926,8.8018,8.6171,8.3649,7.8609,7.6604,7.5108,7.2804,7.4599,7.7891,8.229,8.5402,8.9501,9.6055,9.6653,9.6533,9.6803,9.6683,9.6055,9.4738,9.4768,9.4798,9.4618,9.5666,9.6055,9.5486,9.5995,9.5785,9.4648,9.4618,9.4618,9.4618,9.4618,9.4618,9.4618,9.4618,9.4618,9.4618,9.4618,9.4289,9.375,9.4349,9.4259,9.3691,9.3511,9.3122,9.2524,9.1776,9.1147,9.0638,9.0638,9.016,8.9441,8.8873,8.8185,8.7556,8.7556,8.7496,8.7227,8.615,8.615,8.6449,8.597,8.5761,8.5551,8.4983,8.4773,8.4564,8.3995,8.3936,8.4145,8.4714,8.3876,8.2978,8.2798,8.2844,8.2844,8.2844,8.2844,8.2844,8.2844,8.2844,8.2844,8.2844,8.2844,8.2844,8.2844,8.2844,8.2844,8.2844,8.2844,8.2844,8.2844,8.2844,8.2844,8.2844,8.2844,8.2844,8.2844,8.2844,8.2844,8.2844,8.2844,8.2844,8.2844,8.2844,8.2844,9.1955,9.2631,9.2882,9.2882,9.1733,9.0379,8.962,8.5595,8.0899,7.7012,7.3103,7.0231,6.9752,7.2265,7.6604,8.3277,8.7526,9.2075,9.8149,9.7132,9.6354,9.8,9.7222,9.6055,9.4738,9.5606,9.5785,9.4678,9.4828,9.4917,9.4798,9.4888,9.4858,9.4618,9.4618,9.4618,9.4618,9.4618,9.4618,9.4618,9.4618,9.4618,9.4618,9.4618,9.4558,9.4439,9.4558,9.4528,9.4349,9.3242,9.2703,9.2494,9.1267,9.0728,9.0638,9.0638,8.989,8.8843,8.8723,8.7885,8.6868,8.6868,8.6479,8.609,8.6419,8.621,8.594,8.6389,8.612,8.5671,8.5551,8.5132,8.4684,8.4564,8.4953,8.5372,8.5492,8.4923,8.4055,8.2978,8.2844,8.2844,8.2844,8.2844,8.2844,8.2844,8.2844,8.2844,8.2844,8.2844,8.2844,8.2844,8.2844,8.2844,8.2844,8.2844,8.2844,8.2844,8.2844,8.2844,8.2844,8.2844,8.2844,8.2844,8.2844,8.2844,8.2844,8.2844,8.2844,8.2844,8.2844,8.2844,9.381,9.362,9.3068,9.3068,9.1214,8.8514,8.5162,8.1129,7.6676,7.1781,6.8734,6.7029,6.7388,7.0141,7.427,8.0165,8.4175,8.8843,9.5486,9.5336,9.5277,9.7281,9.6952,9.6324,9.5695,9.5905,9.5935,9.5666,9.5306,9.4977,9.4618,9.4618,9.4618,9.4618,9.4618,9.4618,9.4618,9.4618,9.4618,9.4618,9.4618,9.4618,9.4618,9.4618,9.4618,9.4618,9.4618,9.4409,9.399,9.3002,9.2404,9.1985,9.1027,9.0638,9.0638,9.0638,8.9801,8.8693,8.8693,8.7796,8.6689,8.6689,8.6449,8.621,8.618,8.6419,8.6718,8.6689,8.6718,8.6569,8.5881,8.5731,8.5641,8.5312,8.5462,8.5521,8.4833,8.4444,8.3906,8.2948,8.2844,8.2844,8.2844,8.2844,8.2844,8.2844,8.2844,8.2844,8.2844,8.2844,8.2844,8.2844,8.2844,8.2844,8.2844,8.2844,8.2844,8.2844,8.2844,8.2844,8.2844,8.2844,8.2844,8.2844,8.2844,8.2844,8.2844,8.2844,8.2844,8.2844,8.2844,8.2844,9.4888,9.4277,9.3365,9.3189,9.0748,8.6882,8.1458,7.7504,7.3495,6.8014,6.5892,6.5353,6.646,6.8764,7.2295,7.7771,8.0734,8.5013,9.2733,9.3302,9.384,9.6294,9.6563,9.6473,9.6174,9.5935,9.5905,9.6144,9.5666,9.5157,9.4648,9.4618,9.4618,9.4618,9.4618,9.4618,9.4618,9.4618,9.4618,9.4618,9.4618,9.4618,9.4618,9.4618,9.4618,9.4618,9.4618,9.4229,9.3541,9.2883,9.2194,9.1566,9.0908,9.0638,9.0638,9.0638,8.9801,8.8693,8.8843,8.7915,8.6689,8.6838,8.6808,8.6599,8.624,8.6868,8.7616,8.7227,8.7496,8.7646,8.6449,8.6509,8.6689,8.5881,8.5701,8.5342,8.4025,8.3726,8.3547,8.2888,8.2844,8.2844,8.2844,8.2844,8.2844,8.2844,8.2844,8.2844,8.2844,8.2844,8.2844,8.2844,8.2844,8.2844,8.2844,8.2844,8.2844,8.2844,8.2844,8.2844,8.2844,8.2844,8.2844,8.2844,8.2844,8.2844,8.2844,8.2844,8.2844,8.2844,8.2844,8.2844,9.3721,9.3824,9.3717,9.3277,9.0329,8.6621,8.3596,7.8523,7.3465,7.0286,6.7178,6.5772,6.8256,6.8974,7.1846,8.0075,8.1183,8.4145,9.3242,9.2434,9.2314,9.6114,9.6563,9.6114,9.4917,9.5815,9.6025,9.4888,9.4738,9.4678,9.4618,9.4618,9.4618,9.4618,9.4618,9.4618,9.4618,9.4618,9.4618,9.4618,9.4618,9.4618,9.4618,9.4618,9.4618,9.4618,9.4618,9.4229,9.3541,9.2883,9.2194,9.1566,9.0908,9.0638,9.0638,9.0638,8.9801,8.8783,8.9382,8.8304,8.6778,8.7407,8.7197,8.6778,8.7347,8.7616,8.7826,8.8334,8.8544,8.8424,8.7706,8.7556,8.7287,8.6,8.5701,8.5342,8.4025,8.3726,8.3547,8.2888,8.2844,8.2844,8.2844,8.2844,8.2844,8.2844,8.2844,8.2844,8.2844,8.2844,8.2844,8.2844,8.2844,8.2844,8.2844,8.2844,8.2844,8.2844,8.2844,8.2844,8.2844,8.2844,8.2844,8.2844,8.2844,8.2844,8.2844,8.2844,8.2844,8.2844,8.2844,8.2844,9.381,9.4331,9.3892,9.3629,9.0412,8.6313,8.2308,7.7368,7.2425,6.7954,6.5622,6.4725,6.5802,6.5981,6.7897,7.3732,7.445,7.7233,8.5701,8.597,8.7377,9.2943,9.3601,9.4169,9.5636,9.5905,9.5755,9.5247,9.5576,9.5456,9.4648,9.4618,9.4618,9.4618,9.4618,9.4618,9.4618,9.4618,9.4618,9.4618,9.4618,9.4618,9.4618,9.4618,9.4618,9.4618,9.4618,9.378,9.2404,9.2554,9.1746,9.0459,9.0579,9.0638,9.0638,9.0638,9.007,8.9322,8.9591,8.8873,8.7945,8.8215,8.8364,8.8364,8.7856,8.7975,8.8364,8.8604,8.8693,8.8544,8.7885,8.7107,8.627,8.5312,8.4803,8.4384,8.3846,8.3427,8.3068,8.2828,8.2844,8.2844,8.2844,8.2844,8.2844,8.2844,8.2844,8.2844,8.2844,8.2844,8.2844,8.2844,8.2844,8.2844,8.2844,8.2844,8.2844,8.2844,8.2844,8.2844,8.2844,8.2844,8.2844,8.2844,8.2844,8.2844,8.2844,8.2844,8.2844,8.2844,8.2844,8.2844,9.2194,9.3821,9.4067,9.3892,9.0011,8.5187,8.0998,7.5892,7.0712,6.5981,6.4485,6.3947,6.3767,6.3887,6.5173,6.8794,7.0051,7.2984,7.9926,8.1063,8.3427,8.9441,8.9801,9.1027,9.4738,9.5217,9.5306,9.5306,9.5725,9.5606,9.4648,9.4618,9.4618,9.4618,9.4618,9.4618,9.4618,9.4618,9.4618,9.4618,9.4618,9.4499,9.4319,9.4528,9.4499,9.4289,9.4289,9.3391,9.1925,9.2194,9.1386,9.001,9.0459,9.0638,9.0608,9.0429,9.007,8.9681,8.9681,8.9232,8.8753,8.9142,8.9172,8.8993,8.8454,8.8753,8.9172,8.8783,8.8394,8.7975,8.7526,8.6539,8.5492,8.4624,8.4055,8.3666,8.3487,8.3098,8.2844,8.2844,8.2844,8.2844,8.2844,8.2844,8.2844,8.2844,8.2844,8.2844,8.2844,8.2844,8.2844,8.2844,8.2844,8.2844,8.2844,8.2844,8.2844,8.2844,8.2844,8.2844,8.2844,8.2844,8.2844,8.2844,8.2844,8.2844,8.2844,8.2844,8.2844,8.2844,8.2844,8.2844,8.8035,9.1626,9.4532,9.398,8.8815,8.3095,8.0644,7.4346,6.8286,6.5592,6.4485,6.3827,6.3199,6.3588,6.4874,6.7567,7.0171,7.3492,7.816,7.9417,8.1542,8.618,8.5581,8.6599,9.1207,9.3451,9.4618,9.4618,9.4618,9.4618,9.4618,9.4618,9.4618,9.4618,9.4618,9.4618,9.4618,9.4618,9.4618,9.4618,9.4618,9.4259,9.3601,9.4289,9.4229,9.3601,9.3601,9.3212,9.2554,9.1895,9.1237,9.0638,9.0638,9.0638,9.0549,8.992,8.9681,8.9681,8.9681,8.9232,8.8903,9.019,8.9292,8.7975,8.9262,9.01,9.0339,8.9052,8.7736,8.6689,8.6689,8.621,8.5372,8.4055,8.3726,8.3547,8.2918,8.2844,8.2844,8.2844,8.2844,8.2844,8.2844,8.2844,8.2844,8.2844,8.2844,8.2844,8.2844,8.2844,8.2844,8.2844,8.2844,8.2844,8.2844,8.2844,8.2844,8.2844,8.2844,8.2844,8.2844,8.2844,8.2844,8.2844,8.2844,8.2844,8.2844,8.2844,8.2844,8.2844,8.2844,8.2844,8.0823,8.3517,8.4875,8.3871,8.1243,7.8178,7.514,7.1691,6.8106,6.4964,6.3827,6.3318,6.3109,6.3588,6.5024,6.8166,6.9722,7.2475,7.8011,8.0165,8.2858,8.7496,9.007,9.2045,9.3511,9.5067,9.5576,9.4678,9.5456,9.5546,9.4648,9.4618,9.4618,9.4618,9.4618,9.4618,9.4618,9.4618,9.4618,9.4618,9.4618,9.4259,9.3601,9.4289,9.4229,9.3601,9.408,9.3631,9.2583,9.2374,9.1626,9.0638,9.0638,9.0369,9.001,9.0249,9.004,8.9741,9.016,8.989,8.9412,8.983,8.9262,8.8454,8.8873,8.8813,8.8544,8.8125,8.7706,8.7077,8.5701,8.5192,8.4684,8.3367,8.3068,8.3008,8.2798,8.2844,8.2844,8.2844,8.3128,8.3277,8.2828,8.3128,8.3277,8.2828,8.2844,8.2844,8.2844,8.2844,8.2844,8.2844,8.2844,8.2844,8.2844,8.2844,8.2844,8.2844,8.2844,8.2844,8.2844,8.2844,8.2844,8.2844,8.2844,8.2844,8.2844,8.2844,8.2844,8.2844,8.2844,8.2844,7.5108,7.828,7.9896,7.9327,7.7053,7.448,7.2684,6.9602,6.652,6.4425,6.4485,6.4545,6.3318,6.4395,6.5772,6.664,6.9183,7.2176,7.5377,7.9477,8.3487,8.7137,9.1506,9.402,9.3541,9.4917,9.5486,9.4678,9.5366,9.5486,9.4648,9.4618,9.4618,9.4618,9.4618,9.4618,9.4618,9.4618,9.4618,9.4618,9.4618,9.4259,9.3601,9.4289,9.4229,9.3601,9.405,9.375,0.0,9.2434,9.1746,9.0968,9.0728,9.0399,9.007,9.0219,9.001,8.9681,8.986,8.9651,8.9262,8.9023,8.8484,8.7945,8.7945,8.7826,8.7706,8.7706,8.7526,8.6928,8.5162,8.4714,8.4384,8.3068,8.2844,8.2844,8.2844,8.2844,8.2828,8.3098,8.3457,8.3666,8.3517,8.3846,8.3965,8.3547,8.3277,8.3217,8.3457,8.3277,8.3217,8.3487,8.3277,8.3128,8.3128,8.2888,8.2844,8.2844,8.2844,8.2844,8.2844,8.2844,8.2844,8.2844,8.2844,8.2844,8.2844,8.2844,8.2844,8.2844,8.2844,8.2844,0.0,7.4899,7.7951,7.8549,7.4988,7.1487,7.2146,6.7986,0.0,6.4246,6.6251,6.7029,6.3977,6.6101,6.7238,6.3947,6.8764,7.2505,7.1338,7.7981,8.3786,8.6,9.0638,9.3152,9.1895,9.3481,9.4618,9.4618,9.4618,9.4618,9.4618,9.4618,9.4588,9.4528,9.4588,9.4618,9.4618,9.4618,9.4588,9.4528,9.4588,9.4229,9.3541,9.4259,9.4199,9.3511,9.3571,9.3541,9.3421,9.2135,9.1626,9.1566,9.0908,9.0579,9.0429,8.992,8.9681,8.9531,8.8963,8.8723,8.8574,8.7856,8.7197,8.6689,8.6689,8.7107,8.7646,8.7646,8.7167,8.6389,8.5103,8.4743,8.4384,8.3128,8.2798,8.2844,8.2844,8.2844,8.2948,8.3547,8.3726,8.3965,8.4534,8.4714,8.4773,8.4714,8.4205,8.4025,8.4624,8.4175,8.4025,8.4654,8.4115,8.3726,8.3726,8.3128,8.2844,8.2844,8.2844,8.2844,8.2844,8.2844,8.2844,8.2844,8.2844,8.2844,8.2844,8.2844,8.2844,8.2844,8.2844,8.2844,6.3588,0.0,6.8166,6.7807,6.6789,6.5892,0.0,6.5024,6.4575,6.661,6.7537,6.7717,6.6969,6.9512,7.0679,6.7358,7.026,7.3163,7.3851,8.0315,8.6689,9.1207,9.3272,9.405,9.3212,9.402,9.4618,9.4618,9.4618,9.4618,9.4618,9.4618,9.4379,9.384,9.4319,9.4618,9.4618,9.4618,9.4349,9.384,9.4349,9.399,9.2883,9.408,9.396,9.2853,9.3361,9.3302,9.2763,9.1955,9.1626,9.1566,9.0908,9.001,8.9262,9.01,8.9771,8.8963,8.9322,8.9112,8.8484,8.7317,8.6808,8.6689,8.6689,8.6778,8.6928,8.6928,8.6808,8.6479,8.5671,8.5103,8.4504,8.3696,8.3128,8.2844,8.2844,8.2844,8.2798,8.2948,8.3816,8.4384,8.4025,8.4803,8.5282,8.4803,8.4594,8.4534,8.4684,8.4564,8.4534,8.4684,8.4115,8.3726,8.3726,8.3128,8.2844,8.2844,8.2844,8.2844,8.2844,8.2844,8.2844,8.2844,8.2844,8.2844,8.2844,8.2844,8.2844,8.2844,8.2844,8.2844,6.1224,6.281,6.4844,6.6011,6.5592,6.5173,6.6071,6.5353,6.5144,6.7478,6.8226,6.8345,6.8016,6.9692,7.044,6.8315,6.9991,7.3612,7.9477,8.4474,8.9471,9.4738,9.5187,9.5037,9.4947,9.4738,9.4618,9.4618,9.4618,9.4618,9.4618,9.4618,9.4289,9.3601,9.4259,9.4469,9.4139,9.4439,9.4259,9.3601,9.4289,9.39,9.2643,9.399,9.387,9.2613,9.2972,9.2943,9.2524,9.1566,9.1177,9.1117,9.0459,8.9591,8.8813,8.983,8.9352,8.8334,8.8993,8.8394,8.7197,8.6449,8.603,8.5791,8.5791,8.5791,8.591,8.6509,8.6689,8.6539,8.5851,8.5432,8.4983,8.4325,8.3906,8.3666,8.3666,8.3666,8.3756,8.4055,8.4684,8.5132,8.5103,8.5671,8.603,8.5671,8.5372,8.5282,8.5581,8.5342,8.5282,8.5581,8.5013,8.4624,8.4624,8.3756,8.3068,8.2769,8.2844,8.2844,8.2844,8.2844,8.2888,8.3217,8.3217,8.3217,8.3217,8.2918,8.2844,8.2844,8.2844,8.2844,6.1463,6.2899,6.5054,6.8226,6.7268,6.6161,6.8465,6.6789,6.5503,6.8166,6.9183,6.9453,6.8974,7.0081,7.044,6.8435,6.9842,7.4779,8.5073,8.8245,9.1357,9.6294,9.6025,9.5606,9.6084,9.5217,9.4618,9.4618,9.4618,9.4618,9.4618,9.4499,9.4199,9.3601,9.4139,9.4169,9.3601,9.4259,9.4259,9.3601,9.4169,9.381,9.2643,9.378,9.3631,9.2464,9.2464,9.2344,9.2075,9.0938,9.0429,9.0279,8.9741,8.9112,8.8604,8.9262,8.8753,8.7766,8.8215,8.7257,8.5821,8.5731,8.5372,8.4983,8.4893,8.4863,8.5103,8.621,8.6539,8.6419,8.597,8.5761,8.5551,8.4983,8.4773,8.4714,8.4714,8.4714,8.4863,8.5432,8.5611,8.591,8.6569,8.6748,8.6868,8.6958,8.6509,8.6359,8.6898,8.6419,8.621,8.6778,8.615,8.5671,8.5551,8.4534,8.3606,8.2948,8.2828,8.2798,8.2888,8.2828,8.3128,8.3876,8.3696,8.3696,8.3876,8.3217,8.2918,8.2918,8.3008,8.3008,6.3109,6.4605,6.6221,6.8465,6.6251,6.4485,6.8166,6.6071,6.5054,7.0949,7.2235,7.2445,7.2894,7.7173,7.8071,7.0141,7.3223,7.8759,8.4983,8.7586,9.016,9.375,9.4528,9.4558,9.408,9.4379,9.4618,9.4618,9.4618,9.4618,9.4618,9.405,9.3691,9.3571,9.3691,9.3691,9.3571,9.4259,9.4259,9.3571,9.3691,9.3332,9.2613,9.2823,9.2494,9.1776,9.1776,9.1147,9.01,8.989,8.9471,8.8963,8.8873,8.8424,8.7945,8.8604,8.8364,8.7646,8.7167,8.6778,8.6419,8.5881,8.6,8.627,8.5701,8.5551,8.5581,8.5791,8.5851,8.594,8.6419,8.612,8.5671,8.5581,8.5103,8.4714,8.4714,8.4714,8.4743,8.4833,8.5312,8.591,8.6569,8.7167,8.7736,8.8304,8.8304,8.8274,8.8364,8.7796,8.7437,8.7526,8.6419,8.5462,8.4923,8.4684,8.4265,8.3636,8.3068,8.3008,8.3547,8.3068,8.3337,8.4534,8.3487,8.3457,8.4564,8.3906,8.3576,8.3606,8.4145,8.4115,6.1642,6.2869,6.4964,6.9453,6.8136,6.7119,7.2535,6.8465,6.5862,7.3911,7.1577,6.9393,7.3642,7.5766,7.6544,7.5527,8.0045,8.4534,8.6958,8.8723,9.1087,9.4768,9.4528,9.4349,9.5127,9.4828,9.4618,9.4618,9.4618,9.4618,9.4618,9.4319,9.396,9.3601,9.393,9.396,9.3571,9.4259,9.408,9.3062,9.3421,9.2853,9.1566,9.2284,9.2045,9.1057,9.0698,9.0219,8.9591,8.8484,8.8095,8.8095,8.7347,8.7107,8.7197,8.7496,8.7646,8.7556,8.6509,8.615,8.603,8.5372,8.5372,8.5492,8.4833,8.4893,8.5162,8.5162,8.5432,8.5851,8.6509,8.6449,8.615,8.5791,8.5731,8.5671,8.5312,8.5521,8.5881,8.627,8.6569,8.6988,8.7646,8.8035,8.8334,8.8634,8.8693,8.8693,8.8693,8.8095,8.7706,8.7706,8.6808,8.609,8.5791,8.5462,8.4953,8.4295,8.3995,8.3936,8.4265,8.4325,8.4624,8.5222,8.4654,8.4654,8.5252,8.4594,8.4265,8.4265,8.4564,8.4564,6.0625,6.1523,6.3797,6.9931,6.9123,6.8794,7.6305,7.1128,6.7238,7.6185,7.2146,6.8794,7.4719,7.4929,7.5886,8.1093,8.612,8.9471,8.9771,9.0818,9.2703,9.5755,9.4768,9.4439,9.5965,9.5187,9.4618,9.4618,9.4618,9.4618,9.4618,9.4469,9.4199,9.384,9.4169,9.4199,9.381,9.4199,9.384,9.2823,9.3182,9.2494,9.0908,9.1596,9.1357,9.0369,8.9711,8.9262,8.8843,8.7317,8.6808,8.6898,8.5881,8.5881,8.6449,8.6449,8.6868,8.7287,8.612,8.5791,8.5821,8.5162,8.4953,8.4863,8.4354,8.4444,8.4743,8.4893,8.5192,8.5611,8.627,8.6329,8.609,8.5581,8.597,8.6359,8.6,8.6449,8.7107,8.7796,8.7945,8.8155,8.8813,8.8903,8.8963,8.9112,8.9142,8.9142,8.9142,8.8574,8.8095,8.7945,8.7317,8.6838,8.6689,8.609,8.5551,8.5192,8.4893,8.4773,8.4923,8.5282,8.5611,8.591,8.5611,8.5611,8.591,8.5252,8.4953,8.4953,8.5103,8.5162,6.2181,6.2929,6.4156,6.8884,6.6729,6.6101,7.6395,7.2535,6.9064,7.7083,7.7233,7.6425,7.819,7.9926,8.1991,8.4863,8.8753,9.1835,9.3062,9.387,9.4439,9.4708,9.4618,9.4588,9.4738,9.4678,9.4618,9.4618,9.4618,9.4618,9.4618,9.399,9.393,9.4528,9.396,9.393,9.4528,9.396,9.3601,9.3511,9.2943,9.2284,9.1506,9.0399,8.983,8.9711,8.9052,8.8065,8.6868,8.6748,8.6,8.4923,8.4833,8.5192,8.5761,8.5761,8.618,8.6659,8.594,8.609,8.6509,8.5851,8.5611,8.5611,8.5581,8.5162,8.4833,8.5462,8.5222,8.4923,8.5611,8.5312,8.4833,8.4803,8.5282,8.591,8.6479,8.7137,8.7826,8.8484,8.8604,8.8813,8.9471,8.9591,8.9801,9.0399,9.0489,9.0489,9.0489,8.992,8.9292,8.8693,8.8035,8.7377,8.6718,8.609,8.594,8.6509,8.5402,8.4983,8.5611,8.5073,8.5372,8.6569,8.5402,8.5372,8.6599,8.594,8.5611,8.5641,8.624,8.6539,6.0326,6.1822,6.4276,6.9273,6.7986,6.8076,7.7801,7.454,7.2026,8.1183,7.9746,7.7233,7.8549,8.1751,8.4953,8.7197,9.0878,9.3661,9.4139,9.4439,9.4618,9.4618,9.4618,9.4618,9.4618,9.4618,9.4618,9.4618,9.4618,9.4618,9.4618,9.4349,9.4349,9.4588,9.4349,9.4139,9.396,9.3721,9.3182,9.2344,9.2105,9.1446,9.0399,8.989,8.9441,8.8993,8.7915,8.7137,8.6569,8.5342,8.4803,8.4714,8.4714,8.4624,8.4564,8.5402,8.5611,8.5492,8.5641,8.5312,8.4923,8.5521,8.5432,8.5162,8.5581,8.5791,8.591,8.5731,8.5222,8.4863,8.5521,8.5192,8.4714,8.4714,8.5521,8.627,8.609,8.6928,8.7766,8.8035,8.8394,8.8903,8.9561,9.001,9.0369,9.0608,9.0638,9.0638,9.0638,9.007,8.9412,8.8753,8.7706,8.6958,8.6689,8.6449,8.6419,8.6659,8.621,8.606,8.6299,8.606,8.618,8.6659,8.618,8.6389,8.7317,8.7077,8.7167,8.7556,8.7826,8.7915,5.88,6.0266,6.2989,6.7837,6.7687,6.9064,7.9387,7.7083,7.5377,8.4474,8.2769,7.9776,8.0255,8.3786,8.6958,8.7885,9.1746,9.4618,9.4618,9.4618,9.4618,9.4618,9.4618,9.4618,9.4618,9.4618,9.4618,9.4618,9.4618,9.4618,9.4618,9.4618,9.4618,9.4618,9.4409,9.405,9.3571,9.3152,9.2404,9.1297,9.1087,9.0519,8.9651,8.9441,8.8873,8.8005,8.6868,8.612,8.5641,8.4295,8.3876,8.4085,8.4085,8.3965,8.3846,8.4743,8.4923,8.4773,8.5222,8.4803,8.4235,8.5342,8.5252,8.4863,8.5731,8.618,8.6329,8.609,8.5372,8.4863,8.5521,8.5043,8.4414,8.4414,8.5581,8.6539,8.609,8.7077,8.8005,8.8005,8.8394,8.8903,8.9561,9.004,9.0399,9.0608,9.0638,9.0638,9.0638,9.007,8.9322,8.8454,8.7347,8.6689,8.6689,8.6689,8.6778,8.6988,8.6808,8.6689,8.6689,8.6689,8.6689,8.6689,8.6898,8.7227,8.7706,8.7915,8.8245,8.8693,8.8693,8.8783,5.8171,5.865,6.0086,6.4096,6.5114,6.8375,8.0883,8.0195,7.8968,8.624,8.6659,8.5312,8.3995,8.6479,8.8274,8.6898,9.1147,9.4588,9.4588,9.4618,9.4618,9.4618,9.4618,9.4618,9.4618,9.4618,9.4618,9.4618,9.4618,9.4618,9.4618,9.4618,9.4618,9.4588,9.393,9.3571,9.3541,9.2254,9.1267,9.0608,8.995,8.9651,8.9621,8.8963,8.7945,8.6629,8.597,8.4953,8.3726,8.3726,8.3337,8.2844,8.2844,8.3158,8.3726,8.3726,8.4145,8.4684,8.4714,8.4714,8.4803,8.5492,8.5252,8.4953,8.627,8.621,8.5821,8.6479,8.5731,8.4863,8.5521,8.4714,8.3756,8.3756,8.5252,8.6689,8.6689,8.7736,8.8663,8.8663,8.8663,8.8873,8.9531,8.9681,8.989,9.0549,9.0638,9.0638,9.0638,9.007,8.9142,8.7856,8.7077,8.6689,8.6689,8.6689,8.6988,8.7676,8.7077,8.6689,8.6689,8.6689,8.6689,8.6689,8.7347,8.7706,8.7736,8.8394,8.8693,8.8693,8.8693,8.9052,6.2361,6.2121,6.2391,6.7298,6.9901,7.3582,8.2409,8.1572,8.1003,8.8274,8.8723,8.7377,8.606,8.8125,8.9471,8.7676,9.1057,9.39,9.39,9.4289,9.4618,9.4618,9.4618,9.4618,9.4618,9.4618,9.4618,9.4618,9.4618,9.4618,9.4618,9.4618,9.4379,9.39,9.3691,9.2913,9.1506,9.1117,9.013,8.8574,8.8394,8.8274,8.8274,8.8095,8.7257,8.594,8.5282,8.4504,8.3696,8.3247,8.2948,8.2844,8.2844,8.2888,8.3098,8.3547,8.3576,8.3487,8.4384,8.4115,8.3606,8.5192,8.5252,8.4953,8.627,8.621,8.5821,8.6479,8.5402,8.4295,8.5402,8.5043,8.4534,8.5013,8.591,8.6689,8.6689,8.7377,8.7856,8.7377,8.7676,8.8215,8.8873,8.9352,8.989,9.0549,9.0638,9.0638,9.0638,8.9262,8.8304,8.8394,8.7377,8.6689,8.6689,8.7107,8.7496,8.7706,8.7496,8.7616,8.8065,8.7167,8.7107,8.8065,8.7826,8.8155,8.9082,8.9292,8.9621,9.007,9.007,9.016,6.4006,6.3767,6.4575,7.1697,7.427,7.6754,8.3247,8.4414,8.5492,9.0399,9.016,8.8843,8.8005,8.9172,8.986,8.8663,9.1357,9.3571,9.3571,9.4169,9.4618,9.4618,9.4618,9.4618,9.4618,9.4618,9.4618,9.4618,9.4618,9.4499,9.4229,9.4199,9.378,9.2823,9.2554,9.1716,9.0279,8.9741,8.8753,8.7287,8.7018,8.6778,8.6539,8.6778,8.618,8.4863,8.4235,8.3726,8.3307,8.2918,8.2844,8.2844,8.2844,8.2844,8.2798,8.3217,8.3098,8.2888,8.3666,8.3427,8.3008,8.4444,8.4654,8.4504,8.5581,8.5791,8.5791,8.618,8.5432,8.4743,8.5821,8.5402,8.4893,8.5551,8.6419,8.6928,8.6389,8.6808,8.7077,8.6419,8.6629,8.7197,8.8125,8.8634,8.9112,8.9771,8.986,8.986,8.986,8.8813,8.8245,8.8634,8.7975,8.7467,8.7467,8.7856,8.8215,8.8454,8.8245,8.8514,8.9412,8.7945,8.7586,8.8663,8.8544,8.8873,8.9681,8.992,9.0249,9.0638,9.0638,9.0638,6.4366,6.4635,6.6879,7.6275,7.822,7.9148,8.4265,8.8185,9.1057,9.2194,9.1087,8.992,8.992,8.989,8.986,8.992,9.1925,9.3511,9.3571,9.4169,9.4618,9.4618,9.4618,9.4618,9.4618,9.4618,9.4588,9.4528,9.4528,9.4199,9.3451,9.3391,9.2763,9.1386,9.0758,9.01,8.9322,8.8125,8.7137,8.6389,8.5791,8.5162,8.4564,8.5282,8.4923,8.3696,8.3038,8.2844,8.2844,8.2844,8.2844,8.2844,8.2844,8.2844,8.2844,8.2844,8.2844,8.2844,8.2844,8.2844,8.2858,8.3517,8.3726,8.3846,8.4504,8.5132,8.5611,8.5671,8.5641,8.5761,8.6479,8.5731,8.4953,8.5551,8.6569,8.7107,8.5881,8.609,8.6329,8.5791,8.5701,8.612,8.7467,8.7706,8.7945,8.8663,8.8723,8.8723,8.8843,8.8753,8.8693,8.8753,8.8723,8.8693,8.8693,8.8753,8.9023,8.9621,8.9112,8.9352,9.0579,8.8813,8.8125,8.8843,8.9382,8.9711,8.9741,9.0339,9.0638,9.0638,9.0638,9.0668,6.8555,6.9423,7.0679,7.5946,8.1332,8.6329,9.004,9.1177,9.1327,9.1117,9.1536,9.1955,9.1955,9.1536,9.1357,9.1895,9.2434,9.3002,9.3511,9.4169,9.4618,9.4618,9.4618,9.4618,9.4618,9.4618,9.4379,9.384,9.381,9.3272,9.2105,9.2045,9.1207,8.9382,8.9172,8.8274,8.6569,8.627,8.5521,8.4354,8.4235,8.3816,8.3217,8.4384,8.4504,8.3696,8.3038,8.2844,8.2844,8.2844,8.2844,8.2844,8.2844,8.2844,8.2844,8.2844,8.2844,8.2844,8.2844,8.2844,8.2858,8.3517,8.3726,8.3846,8.4504,8.4803,8.5043,8.5551,8.5312,8.5192,8.6359,8.609,8.5521,8.5671,8.5521,8.5282,8.4983,8.5043,8.5252,8.5611,8.5701,8.612,8.7467,8.7706,8.8095,8.9262,8.9023,8.9052,9.007,8.9322,8.8873,8.9412,8.8993,8.8693,8.8693,8.9172,8.9531,8.9651,8.9531,8.9801,9.0608,8.9232,8.9023,9.019,8.986,8.992,9.0429,9.0579,9.0638,9.0638,9.0638,9.0908,6.8136,6.9961,7.2684,8.0165,8.606,9.0399,9.1805,9.2105,9.1985,9.1656,9.1626,9.1656,9.1656,9.1626,9.1716,9.2075,9.2673,9.3182,9.3541,9.4169,9.4618,9.4618,9.4618,9.4469,9.4139,9.411,9.384,9.3152,9.2823,9.2194,9.1207,9.0549,8.9441,8.7766,8.7407,8.6599,8.5222,8.4923,8.4414,8.3726,8.3427,8.3098,8.2769,8.3487,8.3576,8.3247,8.2918,8.2844,8.2844,8.2844,8.2844,8.2844,8.2844,8.2844,8.2844,8.2844,8.2844,8.2844,8.2844,8.2844,8.2828,8.3158,8.3277,8.3337,8.3666,8.3995,8.4325,8.4654,8.4743,8.4863,8.5551,8.5252,8.4743,8.4743,8.4983,8.5013,8.4384,8.4235,8.4444,8.5103,8.5222,8.5641,8.6988,8.7496,8.7945,8.8634,8.8454,8.8693,9.001,8.9292,8.9052,9.004,8.983,8.9621,8.9621,8.992,9.013,9.013,9.013,9.0279,9.0638,8.998,8.995,9.0638,9.0309,9.0309,9.0638,9.0968,9.1117,9.1117,9.1446,9.1746,6.5832,6.9393,7.4899,8.5162,8.983,9.1865,9.1656,9.1865,9.2135,9.2224,9.1566,9.0968,9.0968,9.1416,9.1776,9.1776,9.2703,9.3451,9.3571,9.399,9.4319,9.4409,9.4319,9.405,9.3451,9.3302,9.2972,9.2314,9.1536,9.0788,9.001,8.8813,8.7556,8.621,8.5641,8.5043,8.4384,8.3846,8.3547,8.3547,8.3008,8.2844,8.2844,8.2844,8.2844,8.2844,8.2844,8.2844,8.2844,8.2844,8.2844,8.2844,8.2844,8.2844,8.2844,8.2844,8.2844,8.2844,8.2844,8.2844,8.2844,8.2844,8.2844,8.2844,8.2844,8.3217,8.3726,8.3726,8.4205,8.4714,8.4714,8.4325,8.3876,8.3756,8.4564,8.5013,8.3816,8.3547,8.3786,8.4564,8.4893,8.5402,8.6479,8.7257,8.7736,8.7856,8.7885,8.8334,8.9651,8.9262,8.9322,9.0519,9.0638,9.0638,9.0638,9.0638,9.0638,9.0638,9.0638,9.0638,9.0638,9.0638,9.0638,9.0638,9.0638,9.0638,9.0638,9.1297,9.1626,9.1626,9.2284,9.2673,6.3948,7.1368,8.0075,8.618,8.8454,8.9621,9.1267,9.0818,9.0219,9.0788,9.1656,9.2344,9.2344,9.2404,9.2464,9.2464,9.2613,9.2943,9.3511,9.3182,9.3092,9.3631,9.3212,9.2823,9.2733,9.2224,9.1596,9.0938,8.9771,8.8514,8.7287,8.6509,8.5492,8.4175,8.4025,8.3666,8.3038,8.2948,8.2888,8.2888,8.2798,8.2844,8.2844,8.2844,8.2844,8.2844,8.2844,8.2844,8.2844,8.2844,8.2844,8.2844,8.2844,8.2844,8.2844,8.2844,8.2844,8.2844,8.2844,8.2844,8.2844,8.2844,8.2844,8.2844,8.2844,8.3217,8.3726,8.3726,8.4205,8.4714,8.4714,8.4654,8.4444,8.3876,8.3876,8.3786,8.3038,8.2888,8.3247,8.4474,8.5641,8.6479,8.6659,8.7257,8.7915,8.8454,8.8544,8.9023,9.0339,8.995,8.983,9.0549,9.0638,9.0638,9.0638,9.0638,9.0638,9.0638,9.0638,9.0638,9.0638,9.0638,9.0638,9.0638,9.0638,9.0638,9.0638,9.1297,9.1626,9.1626,9.2284,9.2913,6.616,7.1816,7.7921,8.618,8.7616,8.7915,9.1386,9.1147,9.0399,9.1057,9.1656,9.1925,9.1566,9.1805,9.2045,9.2045,9.2344,9.2703,9.3002,9.2793,9.2703,9.3002,9.2763,9.2314,9.1566,9.0908,9.01,8.9082,8.7766,8.6748,8.615,8.5162,8.4325,8.3756,8.3367,8.3068,8.2844,8.2844,8.2844,8.2844,8.2844,8.2844,8.2844,8.2844,8.2844,8.2844,8.2844,8.2844,8.2844,8.2844,8.2844,8.2844,8.2844,8.2844,8.2844,8.2844,8.2844,8.2844,8.2844,8.2844,8.2844,8.2844,8.2844,8.2844,8.2844,8.2978,8.3187,8.3187,8.3397,8.3636,8.3636,8.3636,8.3547,8.3247,8.3187,8.3217,8.3277,8.3307,8.3696,8.5013,8.603,8.6808,8.7197,8.7496,8.8065,8.9082,8.8933,8.9172,9.0459,9.007,8.992,9.0579,9.0638,9.0638,9.0638,9.0638,9.0638,9.0638,9.0638,9.0638,9.0638,9.0638,9.0818,9.1177,9.0818,9.0818,9.1177,9.1835,9.2344,9.2733,9.3421,9.387,6.631,7.0021,7.3672,8.3098,8.4564,8.4863,8.9322,8.9591,8.9112,8.995,9.0399,9.0429,8.9741,9.0579,9.1327,9.1147,9.1536,9.1835,9.1835,9.1835,9.1835,9.1835,9.1716,9.1147,9.001,8.9142,8.8245,8.7257,8.594,8.5192,8.5192,8.4115,8.3487,8.3487,8.3008,8.2844,8.2844,8.2844,8.2844,8.2844,8.2844,8.2844,8.2844,8.2844,8.2844,8.2844,8.2844,8.2844,8.2844,8.2844,8.2844,8.2844,8.2844,8.2844,8.2844,8.2844,8.2844,8.2844,8.2844,8.2844,8.2844,8.2844,8.2844,8.2844,8.2844,8.2844,8.2844,8.2844,8.2844,8.2844,8.2844,8.2844,8.2844,8.2844,8.2844,8.2948,8.3606,8.3995,8.4504,8.5492,8.621,8.6898,8.7586,8.7856,8.8334,8.9501,8.9232,8.9352,9.0489,9.007,8.992,9.0579,9.0638,9.0638,9.0638,9.0638,9.0638,9.0638,9.0638,9.0638,9.0638,9.0638,9.0938,9.1596,9.1147,9.1207,9.1865,9.2524,9.3092,9.3601,9.4289,9.4618,6.1317,6.4874,6.8794,7.5018,7.7412,7.9267,8.3277,8.4145,8.4444,8.5731,8.7018,8.7706,8.7018,8.8963,9.0489,8.986,8.9801,8.983,8.983,8.983,8.983,8.983,8.9262,8.8634,8.7915,8.6659,8.5881,8.5791,8.4564,8.3846,8.3846,8.3187,8.2828,8.2828,8.2769,8.2844,8.2844,8.2844,8.2844,8.2844,8.2844,8.2844,8.2844,8.2844,8.2844,8.2844,8.2844,8.2844,8.2844,8.2844,8.2844,8.2844,8.2844,8.2844,8.2844,8.2844,8.2844,8.2844,8.2844,8.2844,8.2844,8.2844,8.2844,8.2844,8.2844,8.2844,8.2844,8.2844,8.2844,8.2844,8.2844,8.2844,8.2844,8.2844,8.2844,8.2948,8.3606,8.4714,8.5611,8.5671,8.621,8.6898,8.7586,8.8215,8.8873,8.9561,8.9651,8.986,9.0549,9.007,8.992,9.0579,9.0638,9.0638,9.0638,9.0638,9.0638,9.0638,9.0638,9.0638,9.0638,9.0638,9.0938,9.1596,9.1596,9.1895,9.2554,9.3212,9.3541,9.3601,9.4289,9.4618,6.0559,6.2216,6.4306,7.1547,7.3702,7.5168,7.9567,8.1871,8.3128,8.3187,8.4893,8.594,8.4444,8.6329,8.8035,8.7796,8.7736,8.7736,8.7736,8.7736,8.7736,8.7736,8.7526,8.7137,8.6479,8.5581,8.4893,8.4474,8.2828,8.223,8.3068,8.208,8.1901,8.2739,8.2844,8.2844,8.2844,8.2844,8.2844,8.2844,8.2844,8.2844,8.2844,8.2844,8.2844,8.2844,8.2844,8.2844,8.2844,8.2844,8.2844,8.2844,8.2844,8.2844,8.2844,8.2844,8.2844,8.2844,8.2844,8.2844,8.2844,8.2844,8.2844,8.2844,8.2844,8.2844,8.2844,8.2844,8.2844,8.2844,8.2844,8.2844,8.2858,8.3277,8.3696,8.4205,8.4863,8.5701,8.6329,8.6329,8.6509,8.6898,8.7586,8.7915,8.8424,8.9501,8.9681,8.989,9.0549,9.0429,9.0369,9.0608,9.0638,9.0638,9.0638,9.0638,9.0638,9.0638,9.0638,9.0638,9.0638,9.1027,9.1566,9.2224,9.2673,9.3002,9.3212,9.3451,9.381,9.4259,9.4499,9.4618,5.8817,5.9513,6.0962,6.7834,6.9273,7.038,7.5886,7.8878,8.0464,8.0434,8.2888,8.4564,8.3038,8.4175,8.5492,8.594,8.603,8.603,8.603,8.621,8.627,8.603,8.603,8.5761,8.5103,8.4444,8.3876,8.3427,8.22,8.1841,8.2709,8.1931,8.1871,8.2739,8.2844,8.2844,8.2844,8.2844,8.2844,8.2844,8.2844,8.2844,8.2844,8.2844,8.2844,8.2844,8.2844,8.2844,8.2844,8.2844,8.2844,8.2844,8.2844,8.2844,8.2844,8.2844,8.2844,8.2844,8.2844,8.2844,8.2844,8.2844,8.2844,8.2844,8.2844,8.2844,8.2844,8.2844,8.2844,8.2844,8.2844,8.2918,8.3247,8.3906,8.4564,8.5162,8.5611,8.621,8.6689,8.6689,8.6689,8.6898,8.7586,8.7885,8.8394,8.9501,8.986,9.016,9.0579,9.0638,9.0638,9.0638,9.0638,9.0638,9.0638,9.0638,9.0638,9.0638,9.0638,9.0728,9.0968,9.1386,9.2045,9.2913,9.3361,9.3691,9.393,9.393,9.4169,9.4618,9.4618,9.4618,0.0,0.0,0.0,6.359,6.3947,6.4904,7.1966,7.4689,7.6066,7.7382,8.0794,8.3367,8.2798,8.2739,8.3187,8.4444,8.4654,8.4654,8.4654,8.5192,8.5372,8.4743,8.4654,8.4414,8.3756,8.3128,8.2844,8.2844,8.2709,8.2709,8.2844,8.2844,8.2844,8.2844,8.2844,8.2844,8.2844,8.2844,8.2844,8.2844,8.2844,8.2844,8.2844,8.2844,8.2844,8.2844,8.2844,8.2844,8.2844,8.2844,8.2844,8.2844,8.2844,8.2844,8.2844,8.2844,8.2844,8.2844,8.2844,8.2844,8.2844,8.2844,8.2844,8.2844,8.2844,8.2844,8.2844,8.2844,8.2844,8.2844,8.2769,8.3247,8.3906,8.4594,8.5222,8.5701,8.5731,8.621,8.6689,8.6689,8.6689,8.6898,8.7556,8.8245,8.8903,8.9531,9.0219,9.0638,9.0638,9.0638,9.0638,9.0668,9.0668,9.0668,9.0668,9.0668,9.0668,9.0668,9.0668,9.0968,9.1626,9.1656,9.2284,9.3541,9.3601,9.393,9.4618,9.4618,9.4618,9.4618,9.4618,9.4618,5.6297,0.0,0.0,0.0,0.0,0.0,6.5503,6.8585,7.1547,7.3791,7.6664,7.9267,8.1033,8.211,8.2964,8.3247,8.3307,8.3307,8.3307,8.3457,8.3517,8.3337,8.3307,8.3217,8.3038,8.2858,8.2844,8.2844,8.1871,8.1751,8.2709,8.2844,8.2844,8.2844,8.2844,8.2844,8.2844,8.2844,8.2844,8.2844,8.2844,8.2844,8.2844,8.2844,8.2844,8.2844,8.2844,8.2844,8.2844,8.2844,8.2844,8.2844,8.2844,8.2844,8.2844,8.2844,8.2844,8.2844,8.2844,8.2844,8.2844,8.2844,8.2844,8.2844,8.2844,8.2844,8.2844,8.2844,8.2844,8.2858,8.3337,8.3606,8.4025,8.5162,8.5551,8.5821,8.6299,8.6539,8.6689,8.6689,8.6689,8.6748,8.6928,8.7915,8.8753,8.8933,8.992,9.0638,9.0638,9.0638,9.0818,9.1297,9.1357,9.1357,9.1357,9.1357,9.1357,9.1357,9.1357,9.1626,9.2314,9.2793,9.3212,9.3571,9.408,9.4409,9.4618,9.4618,9.4618,9.4618,9.4618,9.4618,0.0,0.0,5.7886,5.9379,0.0,0.0,6.2989,6.6759,7.032,7.2116,7.6125,7.9357,7.9537,8.0405,8.1003,8.0734,8.0913,8.1482,8.2589,8.2844,8.2844,8.2844,8.2844,8.2844,8.2844,8.2844,8.2844,8.2844,8.205,8.1961,8.2709,8.2844,8.2844,8.2844,8.2844,8.2844,8.2844,8.2844,8.2844,8.2844,8.2844,8.2844,8.2844,8.2844,8.2844,8.2844,8.2844,8.2844,8.2844,8.2844,8.2844,8.2844,8.2844,8.2844,8.2844,8.2844,8.2844,8.2844,8.2844,8.2844,8.2844,8.2844,8.2844,8.2844,8.2844,8.2844,8.2844,8.2844,8.2948,8.3307,8.3965,8.4354,8.4803,8.5851,8.609,8.621,8.6599,8.6689,8.6689,8.6689,8.6689,8.6689,8.6689,8.7796,8.8693,8.8693,8.9801,9.0638,9.0638,9.0638,9.0788,9.1177,9.1446,9.1626,9.1626,9.1865,9.2015,9.2015,9.2015,9.2314,9.2972,9.3361,9.3721,9.399,9.4409,9.4618,9.4618,9.4618,9.4618,9.4618,9.4618,9.4618,0.0,0.0,0.0,6.1496,6.0206,0.0,6.278,6.6759,6.9961,7.0919,7.6275,8.0016,7.7502,7.7562,7.7831,7.7233,7.7831,7.9297,8.205,8.2619,8.2754,8.2469,8.2619,8.2844,8.2844,8.2844,8.2844,8.2844,8.2844,8.2844,8.2844,8.2844,8.2844,8.2844,8.2844,8.2844,8.2844,8.2844,8.2844,8.2844,8.2844,8.2844,8.2844,8.2844,8.2844,8.2844,8.2844,8.2844,8.2844,8.2844,8.2844,8.2844,8.2844,8.2844,8.2844,8.2844,8.2844,8.2844,8.2844,8.2844,8.2844,8.2844,8.2844,8.2844,8.2844,8.2844,8.2844,8.2844,8.3187,8.3786,8.4534,8.5132,8.5761,8.6509,8.6689,8.6689,8.6689,8.6689,8.6689,8.6689,8.6748,8.6778,8.6778,8.7915,8.8783,8.8783,8.986,9.0638,9.0638,9.0638,9.0668,9.0728,9.1327,9.1716,9.1716,9.2344,9.2703,9.2703,9.2703,9.3002,9.3661,9.3691,9.399,9.4588,9.4618,9.4618,9.4618,9.4618,9.4618,9.4618,9.4618,9.4618,0.0,0.0,0.0,0.0,6.0924,0.0,6.0805,6.1553,6.2989,6.5772,6.7508,6.9273,7.1787,7.2774,7.3193,7.3073,7.451,7.6754,7.9956,8.1751,8.217,8.0584,8.1781,8.2844,8.2844,8.2844,8.2844,8.2844,8.2844,8.2844,8.2844,8.2844,8.2844,8.2844,8.2844,8.2844,8.2844,8.2844,8.2844,8.2844,8.2844,8.2844,8.2844,8.2844,8.2844,8.2844,8.2844,8.2844,8.2844,8.2844,8.2844,8.2844,8.2844,8.2844,8.2844,8.2844,8.2844,8.2844,8.2844,8.2844,8.2844,8.2844,8.2844,8.2844,8.2844,8.2844,8.2844,8.2844,8.2858,8.3217,8.4414,8.4803,8.5192,8.6389,8.6689,8.6689,8.6689,8.6689,8.6689,8.6689,8.7137,8.7496,8.7496,8.8604,8.9471,8.9471,9.013,9.0638,9.0638,9.0638,9.0848,9.1386,9.2015,9.2404,9.2404,9.3002,9.3391,9.3391,9.3391,9.3691,9.4379,9.4409,9.4469,9.4618,9.4618,9.4618,9.4618,9.4618,9.4618,9.4618,9.4618,9.4618,0.0,0.0,0.0,6.1556,6.1373,0.0,0.0,6.1882,6.3408,6.4755,6.658,6.8076,6.8405,6.9004,6.9453,6.9453,7.056,7.2235,7.4599,7.8579,8.1302,8.1302,8.217,8.2844,8.2844,8.2844,8.2844,8.2844,8.2844,8.2844,8.2844,8.2844,8.2844,8.2844,8.2844,8.2844,8.2844,8.2844,8.2844,8.2844,8.2844,8.2844,8.2844,8.2844,8.2844,8.2844,8.2844,8.2844,8.2844,8.2844,8.2844,8.2844,8.2844,8.2844,8.2844,8.2844,8.2844,8.2844,8.2844,8.2844,8.2844,8.2844,8.2844,8.2844,8.2844,8.2844,8.2844,8.2844,8.3008,8.3457,8.4444,8.4953,8.5462,8.6449,8.6689,8.6689,8.6689,8.6689,8.6689,8.6689,8.7227,8.7706,8.7706,8.8783,8.9681,8.9681,9.0219,9.0638,9.0638,9.0638,9.0758,9.1087,9.2015,9.2613,9.2613,9.3511,9.411,9.411,9.411,9.4259,9.4588,9.4618,9.4618,9.4618,9.4618,9.4618,9.4618,9.4618,9.4618,9.4618,9.4618,9.4618,0.0,0.0,0.0,0.0,0.0,6.1912,0.0,0.0,0.0,6.4425,6.67,6.8016,6.5353,6.5293,6.5652,6.5652,6.643,6.7537,6.9004,7.4031,7.822,8.0075,8.0524,8.0704,8.0853,8.1452,8.208,8.2709,8.2844,8.2844,8.2844,8.2844,8.2844,8.2844,8.2844,8.2844,8.2844,8.2844,8.2844,8.2844,8.2844,8.2844,8.2844,8.2844,8.2844,8.2844,8.2844,8.2844,8.2844,8.2844,8.2844,8.2844,8.2844,8.2844,8.2844,8.2844,8.2844,8.2844,8.2844,8.2844,8.2844,8.2844,8.2844,8.2844,8.2844,8.2844,8.2844,8.2844,8.3217,8.3876,8.4534,8.5192,8.5851,8.6509,8.6689,8.6689,8.6689,8.6689,8.6689,8.6689,8.7347,8.7885,8.7885,8.8873,8.9711,8.983,9.0399,9.0818,9.0818,9.0818,9.0818,9.0818,9.1895,9.2613,9.2613,9.384,9.4618,9.4618,9.4618,9.4618,9.4618,9.4618,9.4618,9.4618,9.4618,9.4618,9.4618,9.4618,9.4618,9.4618,9.4618,9.4618,0.0,0.0,0.0,6.5144,6.5084,6.4844,6.251,0.0,6.2361,6.1702,0.0,6.1194,6.0835,0.0,0.0,6.0864,6.2421,6.4306,6.6191,6.8106,6.9842,7.1218,7.2415,7.3373,7.3971,7.6664,7.9597,8.2529,8.2844,8.2844,8.2844,8.2844,8.2844,8.2844,8.2844,8.2844,8.2844,8.2844,8.2844,8.2844,8.2844,8.2844,8.2844,8.2844,8.2844,8.2844,8.2844,8.2844,8.2844,8.2844,8.2844,8.2844,8.2844,8.2844,8.2844,8.2844,8.2844,8.2844,8.2844,8.2844,8.2844,8.2844,8.2844,8.2844,8.2844,8.2844,8.2844,8.2844,8.3217,8.3876,8.4534,8.5192,8.5851,8.6509,8.6689,8.6689,8.6689,8.6689,8.6689,8.6689,8.7706,8.8574,8.8574,8.9172,8.986,9.0429,9.1087,9.1506,9.1506,9.1506,9.1506,9.1506,9.2165,9.2613,9.2613,9.384,9.4618,9.4618,9.4618,9.4618,9.4618,9.4618,9.4618,9.4618,9.4618,9.4618,9.4618,9.4618,9.4618,9.4618,9.4618,9.4618,0.0,0.0,6.9034,6.8555,6.7777,6.6969,6.6281,6.4036,6.2032,6.1732,0.0,0.0,0.0,0.0,0.0,0.0,6.1044,6.1762,6.2989,6.3647,6.5622,6.9961,7.1308,7.2894,7.5497,7.4899,7.5916,7.9597,7.9896,7.9896,7.9896,8.1721,8.2844,8.2844,8.2844,8.2844,8.2844,8.2844,8.2844,8.2844,8.2844,8.2844,8.2844,8.2844,8.2844,8.2844,8.2844,8.2844,8.2844,8.2844,8.2844,8.2844,8.2844,8.2844,8.2844,8.2844,8.2844,8.2844,8.2844,8.2844,8.2844,8.2844,8.2844,8.2844,8.2844,8.2844,8.2844,8.2844,8.3217,8.3876,8.4534,8.5192,8.5851,8.6509,8.6689,8.6778,8.7197,8.6958,8.6898,8.7706,8.7975,8.8364,8.9142,8.9801,9.0339,9.0608,9.1207,9.1476,9.1087,9.1386,9.1626,9.1626,9.2194,9.2763,9.3152,9.405,9.4618,9.4618,9.4618,9.4618,9.4618,9.4618,9.4618,9.4618,9.4618,9.4618,9.4618,9.4618,9.4618,9.4618,9.4618,9.4618,7.1787,7.1996,7.1936,7.1098,6.9842,6.8585,6.7807,6.5173,6.281,6.245,6.2121,0.0,0.0,0.0,6.0475,6.0775,0.0,6.0146,6.0266,6.0446,6.248,6.7597,6.9602,7.1667,7.4569,7.3223,7.3373,7.6245,7.7293,7.7801,7.7801,8.0973,8.2844,8.2844,8.2844,8.2844,8.2844,8.2844,8.2844,8.2844,8.2844,8.2844,8.2844,8.2844,8.2844,8.2844,8.2844,8.2844,8.2844,8.2844,8.2844,8.2844,8.2844,8.2844,8.2844,8.2844,8.2844,8.2844,8.2844,8.2844,8.2844,8.2844,8.2844,8.2844,8.2844,8.2844,8.2798,8.2978,8.3487,8.4145,8.4803,8.5462,8.609,8.6569,8.6689,8.6808,8.7317,8.7167,8.7257,8.8215,8.8334,8.8544,8.9501,9.007,9.0429,9.0608,9.1207,9.1506,9.1207,9.1596,9.1955,9.2135,9.2583,9.3062,9.3541,9.4199,9.4618,9.4618,9.4618,9.4618,9.4618,9.4618,9.4618,9.4618,9.4618,9.4618,9.4618,9.4618,9.4618,9.4618,9.4618,9.4618,7.6784,7.7083,7.6485,7.2026,7.0859,6.9632,6.5173,6.4575,6.4575,6.3318,6.3498,6.3528,6.2301,0.0,0.0,0.0,6.0086,0.0,0.0,5.877,5.9727,6.1253,6.4814,6.7208,6.7328,7.0709,7.2924,7.3073,7.6006,7.7801,7.7801,8.0973,8.2844,8.2844,8.2844,8.2844,8.2844,8.2844,8.2844,8.2844,8.2844,8.2844,8.2844,8.2844,8.2844,8.2844,8.2844,8.2844,8.2844,8.2844,8.2844,8.2844,8.2844,8.2844,8.2844,8.2844,8.2844,8.2844,8.2844,8.2844,8.2844,8.2844,8.2844,8.2844,8.2844,8.2844,8.2888,8.3517,8.4175,8.4833,8.5492,8.615,8.6659,8.6659,8.6689,8.6689,8.6689,8.7227,8.7676,8.7736,8.8753,8.9621,8.9651,8.9681,8.992,9.0549,9.1207,9.1835,9.2464,9.2554,9.2823,9.3451,9.3541,9.3571,9.3571,9.4199,9.4618,9.4618,9.4618,9.4618,9.4618,9.4618,9.4618,9.4618,9.4618,9.4618,9.4618,9.4618,9.4618,9.4618,9.4618,9.4618,7.8519,7.8968,7.8759,7.7203,7.4839,7.2355,7.035,6.8046,6.5712,6.3528,6.4276,0.0,0.0,0.0,0.0,0.0,0.0,5.9787,0.0,5.9338,6.0086,6.1014,6.2301,6.4306,6.7328,6.5682,6.5682,6.8764,6.9602,7.0201,7.062,7.6275,7.9477,7.9477,8.1601,8.2844,8.2844,8.2844,8.2844,8.2844,8.2844,8.2844,8.2844,8.2844,8.2844,8.2844,8.2844,8.2844,8.2844,8.2844,8.2844,8.2844,8.2844,8.2844,8.2844,8.2844,8.2844,8.2844,8.2844,8.2844,8.2844,8.2844,8.2844,8.2844,8.2844,8.2844,8.2798,8.3038,8.3876,8.4773,8.4983,8.5851,8.6689,8.6689,8.6689,8.6808,8.7257,8.7556,8.7975,8.8843,8.9352,8.9801,9.0249,9.0309,9.0549,9.1177,9.1835,9.2344,9.2583,9.2972,9.3332,9.3571,9.3571,9.375,9.4229,9.4469,9.4618,9.4618,9.4618,9.4618,9.4618,9.4618,9.4618,9.4618,9.4618,9.4618,9.4618,9.4618,9.4618,9.4618,9.4618,9.4618,8.0524,8.0853,8.0644,7.9686,7.7352,7.4929,7.3582,7.1457,6.9183,6.7029,6.7956,0.0,0.0,0.0,0.0,0.0,0.0,0.0,0.0,5.9458,6.0086,6.1014,6.2361,6.3827,6.5383,6.3707,6.3109,6.4425,6.5682,6.655,6.6969,7.3881,7.7801,7.7801,8.1033,8.2844,8.2844,8.2844,8.2844,8.2844,8.2844,8.2844,8.2844,8.2844,8.2844,8.2844,8.2844,8.2844,8.2844,8.2844,8.2844,8.2844,8.2844,8.2844,8.2844,8.2844,8.2844,8.2844,8.2844,8.2844,8.2844,8.2844,8.2844,8.2844,8.2844,8.2844,8.2858,8.3337,8.4055,8.4833,8.5282,8.603,8.6689,8.6689,8.6689,8.6808,8.7257,8.7706,8.8304,8.9142,8.9681,9.013,9.0549,9.0638,9.0788,9.1207,9.1835,9.2344,9.2583,9.3182,9.3661,9.393,9.396,9.4139,9.4558,9.4618,9.4618,9.4618,9.4618,9.4618,9.4618,9.4618,9.4708,9.4947,9.4738,9.4738,9.4947,9.4738,9.4618,9.4618,9.4618,9.4618]}]]